GFSSGP_925_thetae_000.txt.gz
Theta_e
320 322 323 321 318 315 318 316 315 316 316 314 311 314 315 316 319 317 322 327 329 328 330 335 335 336 337 337 338 334 334 336 336 337 337 336 336 335 335 335 337 337 336 336 335 333 332 332 333
320 322 321 314 320 316 312 315 317 313 314 313 313 314 316 317 317 318 325 328 328 329 330 334 334 336 336 336 336 336 336 337 336 335 335 334 334 333 332 333 334 335 334 333 330 327 325 327 327
320 320 319 316 314 315 316 314 313 314 312 313 314 312 315 316 314 318 325 328 329 330 331 332 333 334 336 336 335 335 335 335 334 333 333 333 332 331 330 329 330 332 330 327 325 324 322 321 320
320 315 309 319 320 318 315 316 311 314 313 310 312 313 310 313 316 318 323 328 329 331 331 331 331 331 335 336 336 335 338 335 332 332 332 332 329 327 325 323 324 325 324 321 317 311 307 306 306
315 309 312 316 315 314 312 312 310 313 313 312 312 313 312 312 314 316 322 327 327 330 330 329 328 329 335 335 334 334 335 334 332 330 330 328 325 322 320 319 320 319 315 310 308 307 309 305 301
312 309 315 314 313 313 312 311 311 312 311 311 312 312 310 311 312 316 321 326 326 326 326 326 325 326 331 334 333 332 332 332 330 329 326 323 320 319 317 316 316 315 314 313 313 310 305 303 300
315 314 316 313 314 314 315 308 312 312 312 312 310 313 310 309 312 316 320 325 326 325 324 323 323 325 328 329 330 330 330 329 327 326 322 319 318 317 316 315 315 315 314 312 304 300 299 298 298
311 313 316 313 314 315 314 310 311 311 312 307 308 312 312 309 311 315 320 324 325 324 323 321 321 324 324 325 327 327 328 325 322 320 318 316 314 314 312 312 314 314 312 305 299 298 298 298 298
308 311 311 313 313 314 312 313 311 309 310 309 308 309 308 309 312 316 320 322 324 323 323 321 320 321 321 322 324 324 325 320 318 316 315 313 308 306 305 309 311 310 307 300 299 298 298 298 298
313 309 310 309 310 314 314 312 313 313 311 308 308 306 307 308 311 315 317 318 321 322 322 321 320 319 319 319 320 319 321 319 315 313 311 307 301 300 301 307 306 302 300 299 298 298 298 297 297
312 314 311 312 311 313 313 312 310 310 311 308 309 309 305 305 307 313 315 317 319 320 320 321 320 319 318 317 317 316 316 316 312 310 308 303 299 298 300 302 301 299 298 297 297 297 297 296 296
316 313 312 313 314 315 314 310 311 309 315 311 307 307 305 303 303 308 312 315 317 317 319 320 320 319 318 316 315 313 313 312 310 308 306 302 298 297 299 300 297 296 296 297 297 297 296 296 295
315 314 314 312 312 312 311 313 312 309 309 308 306 305 304 303 303 306 309 311 313 315 316 317 319 319 318 316 314 312 310 310 307 306 304 300 297 297 297 297 296 296 296 296 296 296 296 296 295
312 312 311 310 312 311 313 313 313 310 309 308 307 305 303 302 304 304 305 306 307 309 312 314 316 318 318 317 314 311 309 308 307 305 302 299 298 297 297 296 296 296 296 296 296 296 296 295 294
312 312 308 308 309 310 309 312 310 311 309 308 306 304 303 302 304 304 307 306 308 307 307 309 312 315 317 317 315 312 308 307 306 304 300 299 298 297 297 296 296 295 295 295 294 295 294 294 294
310 309 310 309 308 309 310 309 310 307 306 306 306 305 304 305 304 306 308 308 308 307 307 306 306 309 313 315 315 313 309 306 305 303 298 298 298 297 297 296 296 295 294 293 293 293 294 294 295
307 309 307 308 307 308 308 309 308 306 307 307 306 306 306 308 307 308 310 310 309 308 307 306 305 306 307 311 312 312 310 305 303 302 298 298 298 297 297 296 295 294 293 293 293 293 293 294 294
308 307 307 307 309 307 308 309 309 308 308 307 307 308 309 308 309 310 311 310 309 309 307 306 305 304 304 305 306 306 306 304 302 300 298 298 298 297 296 295 295 294 293 292 292 293 293 293 293
307 306 306 306 307 308 309 309 309 308 307 309 309 308 308 309 308 309 309 309 309 307 305 304 303 301 301 301 301 300 301 302 301 299 297 298 297 297 296 295 294 294 293 293 292 292 292 292 292
308 308 309 309 308 307 308 309 309 308 309 308 309 309 309 308 307 307 306 307 307 308 306 303 302 301 300 299 299 299 299 298 300 299 297 297 297 296 296 295 294 293 292 292 292 292 291 291 291
307 308 309 309 307 306 305 309 307 307 306 307 307 307 305 305 307 307 303 304 306 304 305 304 303 301 299 298 297 298 298 297 296 296 297 297 297 296 295 295 294 293 292 292 292 292 292 292 289
310 307 308 308 308 310 307 311 307 307 307 306 306 304 303 304 303 302 301 301 304 306 305 303 301 299 298 298 297 297 297 296 296 296 297 297 297 296 295 294 293 293 292 291 291 291 291 292 291
310 308 307 307 307 307 308 307 310 306 308 307 306 305 304 303 302 302 301 302 304 304 304 303 301 299 298 297 297 297 296 297 297 296 295 296 296 295 294 293 293 292 292 291 291 290 291 291 291
307 308 306 305 306 310 309 308 313 307 308 309 307 309 304 303 302 300 301 301 302 300 300 300 299 298 297 297 296 296 296 296 295 295 294 294 294 295 294 293 292 292 291 291 290 290 290 291 291
307 307 309 308 309 312 307 307 311 309 309 307 306 305 304 302 300 300 299 298 299 298 296 296 297 296 296 296 296 296 296 297 297 296 294 293 293 293 294 293 291 291 291 290 290 289 290 290 289
306 308 310 314 311 314 303 310 315 311 307 305 303 303 302 302 301 300 300 297 298 297 296 296 296 296 296 296 296 296 296 295 295 295 294 294 294 294 293 293 291 291 290 290 289 289 289 289 288
306 308 308 311 312 311 313 310 309 311 307 306 306 303 303 302 301 301 300 299 299 297 297 297 296 297 296 296 296 295 296 295 295 295 295 295 295 294 294 294 292 291 290 289 289 288 288 288 287
306 306 310 308 314 315 312 311 313 311 312 308 305 303 306 303 301 300 300 299 299 298 297 296 295 295 296 296 296 295 295 296 295 295 295 295 295 294 293 293 292 291 289 289 288 288 288 287 287
310 307 306 307 311 316 317 315 310 312 311 305 305 306 304 300 299 299 298 298 298 298 298 297 297 296 295 294 294 294 294 293 294 294 295 295 294 294 293 293 291 290 289 288 287 287 287 286 286
306 311 310 313 313 310 312 314 309 308 308 304 300 299 299 297 296 296 296 296 297 297 298 297 297 297 297 296 295 295 294 294 293 293 293 293 293 293 293 292 291 289 288 288 287 287 287 286 285

GFSSGP_925_thetae_003.txt.gz
Theta_e
320 321 323 321 322 319 320 319 315 317 316 313 312 316 318 316 320 321 319 324 326 324 325 332 336 337 340 339 338 336 332 331 333 335 336 335 336 336 336 336 338 338 338 337 336 335 333 330 332
319 321 321 316 321 319 315 315 318 316 313 312 313 314 316 319 315 318 323 325 328 325 322 326 330 333 337 338 338 337 333 335 336 336 336 336 335 334 334 335 335 335 335 334 332 328 325 326 326
319 319 319 318 316 317 316 315 315 313 312 314 314 312 315 317 314 318 323 326 329 328 325 327 330 333 334 335 337 336 334 336 336 336 335 334 334 333 333 332 335 334 333 330 327 325 323 322 322
319 315 312 321 320 318 316 316 311 313 312 311 312 314 310 313 316 318 322 327 328 329 330 334 333 333 334 335 335 334 336 336 335 334 333 333 332 331 330 328 332 331 329 326 322 318 317 314 309
315 310 314 314 315 315 313 313 313 313 313 312 312 314 312 311 313 316 321 327 328 330 331 333 333 332 333 337 336 334 338 336 333 332 331 331 330 328 325 325 326 324 322 318 315 317 313 304 301
314 311 316 314 312 312 312 311 311 311 311 311 311 312 313 311 312 314 319 325 327 330 332 333 333 331 333 336 336 335 337 336 333 331 330 330 327 324 322 322 321 319 315 311 310 305 301 300 299
315 315 314 313 314 315 315 308 311 312 312 312 310 313 312 309 312 314 318 324 327 330 331 332 331 330 330 335 334 334 335 335 333 330 329 327 323 321 319 319 318 318 316 314 305 300 300 299 299
313 315 316 314 315 315 313 310 310 311 313 307 308 314 314 310 311 314 318 324 327 327 328 328 327 326 327 329 333 334 333 332 331 329 326 322 319 317 316 316 317 317 316 308 302 300 300 299 299
308 313 312 313 312 313 312 312 309 308 310 308 309 309 310 309 311 314 319 324 326 326 326 325 325 325 325 326 327 330 331 330 329 327 322 319 315 315 313 313 315 316 313 305 300 299 299 299 299
314 312 312 309 308 313 313 312 313 312 312 309 309 308 309 308 311 315 318 321 324 325 325 325 324 323 323 324 326 328 329 328 325 322 318 315 311 310 308 312 313 313 308 302 299 299 299 299 298
312 315 311 311 308 311 313 312 311 311 313 311 312 310 307 306 308 313 315 318 319 320 323 323 323 322 322 322 324 326 327 326 322 318 315 313 309 307 306 309 309 307 303 300 299 298 298 298 298
316 313 312 313 312 314 314 311 312 309 316 313 309 308 307 306 306 308 313 315 317 318 320 322 323 322 321 321 321 322 323 323 319 315 312 310 306 302 303 306 305 303 301 298 297 298 297 297 296
314 314 313 312 311 312 311 314 312 310 310 308 307 306 306 305 305 307 309 312 315 317 318 319 321 322 321 321 319 319 319 319 318 314 311 309 304 299 300 303 302 299 297 297 297 297 296 296 296
311 312 310 309 311 310 313 313 311 311 309 309 307 308 306 304 306 305 305 307 309 313 315 317 318 320 321 320 319 318 317 316 315 313 309 308 304 299 299 301 299 296 296 296 296 296 295 295 294
310 312 308 307 308 309 308 311 310 311 308 309 310 306 305 304 304 304 308 307 309 309 311 313 315 317 319 320 319 318 316 314 313 312 309 307 303 299 297 298 297 295 295 295 295 294 294 294 294
309 308 310 309 307 308 310 311 310 308 306 306 306 307 305 307 306 307 308 309 308 308 308 309 310 313 316 318 319 318 316 314 312 310 309 307 304 299 297 297 296 295 295 295 294 294 294 293 294
306 309 307 307 307 308 309 310 308 306 306 306 307 308 309 309 309 308 309 309 309 309 308 308 307 309 311 315 315 316 316 315 312 310 308 306 303 299 297 296 296 295 294 294 294 294 293 293 293
309 306 306 307 308 306 307 308 308 307 307 308 309 309 308 308 308 308 308 309 309 310 309 307 307 306 308 311 311 312 313 313 312 311 308 306 302 299 297 297 296 295 294 294 293 293 292 293 292
307 305 305 304 305 307 309 309 308 308 306 308 309 309 308 307 308 306 307 308 308 308 307 305 305 304 305 307 307 306 307 308 309 310 308 306 302 298 298 297 296 295 294 294 293 291 292 292 291
306 307 308 307 307 305 307 309 309 308 309 309 309 309 307 306 307 306 305 306 306 306 306 304 303 302 303 305 305 304 303 302 304 306 306 305 302 298 298 297 296 295 294 293 292 292 291 291 291
306 307 309 308 305 305 304 307 306 308 305 306 306 305 305 304 304 304 303 302 303 305 304 304 303 301 300 302 302 301 301 300 299 300 301 302 301 298 297 297 296 295 294 293 292 292 292 292 291
309 306 307 307 307 309 306 310 307 308 307 307 306 304 303 303 303 301 300 302 301 301 302 302 301 301 299 300 299 299 299 298 297 297 298 300 299 297 297 297 296 295 294 293 292 292 292 293 292
309 307 307 306 307 306 307 306 307 306 308 307 306 307 305 302 302 303 301 301 299 299 300 301 300 299 298 298 298 298 298 298 298 298 297 297 297 296 297 296 296 295 294 293 292 291 291 292 294
305 306 304 304 306 309 308 308 310 307 309 307 306 307 304 303 302 303 301 300 298 298 298 297 297 297 297 297 297 297 297 296 296 296 296 296 295 295 295 296 295 295 294 293 293 292 291 292 292
307 307 310 310 308 311 305 307 310 309 309 306 307 303 302 302 301 301 299 298 297 296 295 296 296 295 295 295 295 296 296 296 296 295 295 293 293 293 295 295 295 294 294 293 292 291 291 291 291
306 307 313 315 314 316 303 314 316 308 308 305 301 301 302 300 298 298 297 297 297 296 295 294 294 294 294 294 294 295 295 295 295 295 295 295 295 295 295 296 295 294 293 292 291 290 290 290 290
306 308 308 311 310 314 313 311 311 312 305 303 302 298 297 296 296 296 296 296 296 297 295 294 293 294 294 294 294 294 294 294 294 294 294 295 295 294 294 296 295 294 294 292 291 290 290 290 289
306 306 309 307 311 315 312 312 313 311 305 300 298 296 294 293 294 295 295 295 295 295 295 294 294 293 293 292 293 293 293 293 293 294 294 295 295 295 294 294 293 293 292 291 290 289 289 289 289
307 306 306 307 310 314 315 315 310 303 300 298 294 291 291 292 293 293 294 295 295 294 294 293 293 292 292 292 292 292 292 293 293 293 293 294 294 294 294 294 293 291 292 290 289 288 288 288 288
308 311 312 317 317 311 315 316 298 296 295 293 289 290 290 291 292 293 293 294 295 294 293 293 292 292 291 291 292 292 292 291 292 292 293 293 293 293 293 293 293 291 290 291 290 287 287 287 287

GFSSGP_925_thetae_006.txt.gz
Theta_e
319 321 322 326 325 323 323 324 321 323 322 318 318 321 322 322 322 322 322 326 327 330 337 338 339 337 336 335 334 333 333 332 334 338 338 335 336 336 335 336 338 339 340 337 336 335 334 331 331
318 320 324 325 322 320 318 321 324 322 319 318 318 319 321 321 321 322 325 325 328 330 337 341 339 340 340 337 337 337 334 331 333 338 337 336 335 335 335 335 337 337 337 335 335 331 326 327 326
319 320 323 322 322 320 320 321 321 318 317 318 320 318 320 322 319 322 322 326 329 330 335 339 338 340 340 339 339 337 335 332 335 338 336 336 335 333 333 333 334 335 334 333 328 326 324 323 323
320 321 321 321 321 321 320 320 320 321 317 316 318 319 317 317 320 320 320 328 331 331 334 336 333 335 337 338 338 337 335 334 337 336 335 334 333 332 331 331 332 333 331 328 325 322 318 314 310
318 320 319 320 319 319 319 319 318 320 319 318 317 320 319 316 315 316 323 329 332 332 334 336 329 331 332 334 336 336 333 336 337 334 333 332 332 331 329 328 330 329 326 323 320 319 310 303 301
319 320 318 319 318 318 319 318 318 318 318 317 317 318 319 314 314 316 322 329 331 333 334 335 332 333 333 333 336 335 334 338 337 334 332 330 330 329 326 326 326 324 322 319 317 310 303 300 299
319 319 318 319 320 321 321 315 317 318 318 319 316 319 319 317 313 315 322 328 331 333 334 335 335 334 331 333 337 336 336 338 336 333 330 330 329 326 323 323 322 321 319 318 315 310 303 300 299
321 321 321 321 319 319 318 316 316 317 318 313 315 318 318 318 313 315 321 326 329 331 333 334 335 335 335 333 333 336 335 337 335 333 330 329 328 322 320 318 319 319 318 314 311 307 302 300 300
316 320 320 319 318 317 317 317 314 314 316 315 316 317 318 312 312 319 322 324 327 329 331 332 333 333 333 333 331 334 334 334 334 333 330 328 323 320 318 317 317 318 316 311 303 300 300 300 300
320 320 319 317 317 317 317 317 317 317 318 318 317 316 314 312 314 317 320 322 325 327 328 329 330 331 331 331 331 331 334 333 333 332 329 326 321 318 317 316 317 317 314 310 303 299 299 299 299
320 320 319 317 315 314 316 317 316 317 318 318 318 317 317 314 314 315 317 318 321 324 326 326 327 328 328 329 329 329 331 332 331 329 325 322 318 315 313 315 316 316 312 309 303 298 298 298 298
320 319 319 318 316 316 317 317 317 317 317 317 317 317 316 315 315 314 315 317 318 320 323 325 325 326 326 326 327 327 328 328 326 325 322 319 316 314 312 314 314 313 310 306 299 297 297 297 297
319 319 318 318 316 316 317 318 318 317 317 316 316 315 314 315 314 313 313 313 315 317 320 322 324 324 324 325 324 325 325 325 324 322 320 318 314 311 310 311 311 310 306 301 297 297 297 296 296
316 316 316 315 315 316 316 316 315 315 315 315 315 315 315 315 314 312 312 311 312 314 317 319 322 322 323 323 323 323 322 323 322 319 318 316 312 309 308 308 308 306 303 298 296 297 296 295 295
313 315 315 315 314 314 314 315 315 315 314 314 314 315 314 314 313 312 312 312 312 312 313 316 319 320 322 322 321 321 320 320 320 317 316 315 312 307 303 305 305 303 300 296 296 296 295 295 294
313 313 315 315 312 312 314 314 315 314 312 313 313 314 314 314 314 313 313 311 311 311 311 312 315 317 319 321 320 320 319 318 317 316 314 314 311 308 302 302 301 300 296 295 295 295 294 295 295
314 315 315 314 312 312 314 314 314 313 312 312 313 313 314 314 313 313 312 312 311 310 310 310 312 316 317 319 319 319 318 317 316 315 313 312 311 308 303 300 299 298 295 295 295 295 295 295 295
317 316 314 314 314 312 312 312 312 312 312 312 312 313 313 313 313 312 310 309 309 310 309 309 309 312 315 316 317 318 316 315 314 313 312 310 309 307 302 299 298 297 295 294 294 294 294 295 295
313 313 314 314 313 312 313 313 313 313 312 313 313 313 313 313 312 310 309 308 307 307 307 307 307 307 312 313 314 315 315 314 313 312 310 308 307 306 303 299 297 296 295 295 294 294 293 293 293
313 313 314 314 313 310 313 313 312 313 313 313 313 313 313 311 310 309 307 306 305 304 304 304 305 305 308 311 312 313 312 312 311 311 308 307 305 305 304 300 297 295 294 294 293 293 293 294 293
313 313 315 314 312 312 311 316 314 314 311 311 311 311 310 309 309 307 305 303 302 301 301 301 302 302 304 307 309 309 304 306 307 308 306 304 304 302 303 299 297 296 295 294 293 293 293 294 292
315 314 312 312 312 318 311 319 317 315 314 312 312 311 310 308 307 305 303 301 300 298 298 299 300 300 300 303 305 305 304 304 303 303 303 303 302 301 300 299 297 296 295 294 293 293 293 295 294
314 309 309 309 312 312 313 313 318 312 312 312 311 308 309 305 304 303 302 301 299 298 297 297 297 297 298 300 301 302 303 303 302 300 301 301 300 299 298 297 296 295 295 294 293 292 292 293 296
307 310 309 310 312 316 315 314 316 314 312 312 308 306 304 303 302 301 300 300 299 297 296 296 296 295 295 296 298 299 300 300 300 299 299 299 298 297 297 296 295 295 294 294 294 293 292 292 294
309 312 321 319 320 320 312 312 314 313 309 308 307 304 302 301 301 300 300 299 298 297 296 295 295 295 295 294 295 295 296 297 298 298 298 298 297 296 295 295 294 294 294 293 293 293 292 292 292
312 314 319 321 323 321 309 315 316 311 306 304 303 301 299 299 300 300 299 298 297 296 295 295 295 295 294 294 294 294 294 294 295 296 296 297 297 296 295 294 293 293 293 293 292 292 291 291 291
311 312 312 316 317 316 315 315 315 313 306 304 301 299 297 297 297 297 297 297 295 295 294 294 293 293 294 294 294 294 294 293 294 294 294 294 295 295 294 293 293 292 292 292 292 291 291 291 291
309 310 314 312 317 321 315 314 316 313 309 302 299 297 296 295 295 295 296 296 295 294 294 293 293 292 291 292 293 293 293 293 293 293 292 292 292 293 293 293 292 292 291 291 291 290 290 290 290
312 310 309 310 313 318 320 316 310 309 304 300 296 295 294 294 295 295 294 295 295 293 293 292 291 291 291 290 291 291 292 292 292 292 292 292 291 291 291 292 291 291 290 290 290 290 290 289 289
311 313 313 318 317 315 315 315 304 302 299 296 293 292 292 293 293 293 294 292 294 292 291 292 291 290 290 289 289 289 289 289 289 290 292 292 292 292 290 290 290 290 290 289 289 289 289 288 288

GFSSGP_925_thetae_009.txt.gz
Theta_e
320 322 323 326 327 324 323 324 323 324 324 321 321 322 322 322 322 325 326 329 331 332 336 336 339 340 338 340 340 339 335 336 337 338 338 337 338 337 336 337 338 340 340 338 336 335 333 332 331
320 321 324 323 325 323 322 323 324 323 322 321 321 321 322 322 322 323 327 329 331 332 337 340 340 340 340 337 335 335 334 334 338 338 337 337 336 336 336 337 338 339 338 336 335 334 328 326 326
321 320 323 323 323 323 322 322 322 321 322 321 321 321 321 321 322 323 326 329 331 331 337 341 341 340 337 337 336 336 335 332 334 338 338 337 337 335 334 334 336 336 336 333 330 326 325 324 323
321 322 322 322 322 321 321 321 321 322 321 319 320 321 321 320 321 323 325 330 332 330 336 341 341 340 340 340 338 338 337 333 333 338 337 336 334 333 332 332 333 333 333 332 326 324 321 317 311
320 321 322 322 321 320 319 320 321 322 322 321 320 321 321 320 318 320 325 330 333 331 333 338 339 339 340 340 339 338 337 334 335 338 337 334 333 332 330 330 331 331 331 328 324 319 312 304 301
321 320 321 321 320 319 320 322 321 321 321 321 319 320 320 319 318 319 323 329 332 333 334 335 335 337 338 338 337 337 337 334 337 337 335 333 331 331 330 328 330 329 326 323 322 313 303 300 300
321 322 321 321 320 320 320 320 320 320 319 319 320 318 320 320 318 319 322 327 331 333 335 336 337 334 334 333 333 334 335 334 338 337 334 333 330 330 329 327 327 325 322 321 320 312 304 300 300
322 321 321 321 320 319 319 319 319 318 318 318 318 319 319 321 318 320 324 326 329 332 335 336 336 337 337 337 335 338 335 334 338 337 334 331 329 328 325 323 323 322 321 319 317 311 305 301 300
320 321 321 321 319 318 319 318 318 318 318 318 318 318 319 318 318 320 323 325 327 330 334 335 336 336 336 336 335 337 336 336 337 336 333 332 329 327 324 321 320 320 320 317 315 308 301 300 300
321 322 321 320 318 318 318 318 318 318 318 318 318 319 319 318 317 318 320 322 325 327 330 333 334 335 335 335 334 333 332 334 335 335 333 331 329 324 321 319 318 319 318 316 314 303 300 300 301
321 320 319 319 319 318 317 317 317 318 318 317 317 317 318 317 317 317 317 318 320 322 326 329 332 333 333 334 333 333 332 332 333 333 333 330 328 322 319 318 317 318 317 313 310 301 298 300 300
322 319 320 320 319 318 318 317 317 318 318 318 318 318 317 317 317 317 317 317 317 319 321 326 328 330 331 331 331 331 331 332 332 332 332 329 326 320 318 317 317 318 314 312 308 300 300 299 299
320 319 318 318 318 319 318 318 318 317 317 317 317 317 317 317 317 316 316 316 316 317 319 322 326 327 329 330 330 329 330 331 331 332 331 327 323 319 316 316 316 317 314 311 306 300 299 298 297
318 318 318 317 317 317 317 317 317 316 317 316 316 316 316 316 316 316 315 315 315 315 317 319 322 326 326 328 329 328 329 329 329 329 328 325 321 318 315 314 315 314 311 308 302 300 299 298 297
316 316 316 317 317 316 315 316 316 317 316 315 315 315 315 315 315 315 315 315 315 315 315 317 319 323 325 326 327 327 327 327 328 327 325 322 320 317 314 312 313 312 309 303 300 300 299 299 297
315 316 317 318 315 315 314 316 317 315 315 315 315 315 315 315 315 315 315 314 314 314 313 314 315 319 323 324 325 326 325 325 326 325 323 320 318 315 312 310 310 309 305 301 299 299 298 298 297
318 318 318 317 317 315 315 315 315 315 315 315 315 315 315 315 315 313 312 311 311 311 312 312 313 315 319 322 323 324 324 323 323 323 321 319 316 314 310 308 308 306 302 299 298 298 298 298 298
321 320 319 318 319 315 317 316 315 315 316 316 316 316 315 315 312 310 309 308 308 308 309 310 311 311 316 319 321 322 323 322 321 320 319 318 315 312 308 306 305 303 300 298 298 298 298 298 298
318 318 318 318 318 317 316 315 315 316 316 316 317 316 314 312 311 307 306 304 304 304 304 306 308 310 311 316 318 320 320 321 320 319 318 317 314 311 307 305 303 301 299 298 297 297 297 298 296
316 317 317 318 317 314 315 316 316 316 316 315 314 314 313 312 309 307 305 304 302 301 301 303 304 306 308 313 315 316 317 318 318 317 316 315 313 310 306 304 302 300 298 297 297 297 297 297 296
316 316 317 317 316 316 316 317 319 318 317 314 312 312 310 308 307 306 305 302 301 300 300 300 301 302 304 308 310 312 312 309 310 313 313 312 311 309 306 303 302 300 298 297 297 296 296 297 296
317 317 316 315 316 320 315 319 318 318 317 313 312 311 308 307 306 305 303 302 300 300 299 299 298 299 301 303 306 307 308 307 307 307 308 309 308 308 306 303 302 300 298 297 297 296 296 297 296
316 312 313 313 316 317 318 317 318 316 316 313 311 308 307 305 304 303 303 301 300 299 299 298 298 298 298 299 301 302 303 304 305 303 302 304 304 304 305 303 302 300 298 297 297 296 296 297 297
310 312 314 315 316 321 319 319 317 316 315 311 309 307 305 305 304 303 301 300 299 298 298 297 298 297 297 297 297 297 298 299 300 301 301 301 302 302 301 302 301 300 299 297 297 296 295 296 297
311 314 321 324 325 324 318 316 317 315 312 312 309 305 304 304 303 302 302 300 298 297 297 296 296 296 296 296 296 296 296 296 297 298 298 299 300 300 299 299 299 299 298 297 297 296 295 295 296
318 318 324 326 326 325 315 320 318 312 309 306 305 303 302 301 301 300 300 298 297 297 296 296 295 294 295 295 295 295 295 295 295 295 295 296 297 298 298 297 297 297 297 297 296 296 295 294 295
315 315 313 317 318 321 318 318 316 310 308 305 303 301 300 299 299 299 298 298 296 296 295 294 294 293 292 293 294 294 293 294 294 294 294 294 294 294 295 295 296 295 296 296 295 295 295 294 294
314 317 322 318 322 322 317 315 315 315 312 306 303 301 300 299 298 298 296 297 296 294 294 293 292 292 291 291 291 291 291 291 291 292 293 293 293 292 292 293 293 294 294 294 294 294 294 293 293
313 312 312 313 314 318 318 315 312 312 310 307 302 299 298 297 296 296 296 294 294 292 292 292 291 290 290 289 290 289 289 288 288 287 288 287 290 291 292 291 291 292 292 293 293 293 293 293 293
314 314 314 317 317 316 316 318 314 308 306 302 299 296 295 295 292 293 295 292 292 291 291 290 290 290 289 288 289 289 289 288 287 285 285 285 286 286 289 290 290 291 291 291 292 292 291 292 292

GFSSGP_925_thetae_012.txt.gz
Theta_e
319 321 322 324 329 327 326 325 322 322 322 321 320 320 320 320 321 324 325 329 329 334 337 334 333 333 334 340 341 339 339 336 337 335 337 338 338 337 337 334 336 340 340 339 337 334 332 330 329
321 320 322 325 326 326 322 322 322 321 321 320 321 320 320 321 320 324 329 329 329 333 336 334 334 335 335 339 341 340 338 336 337 338 339 337 338 337 336 338 339 340 338 338 335 334 329 325 325
319 320 323 324 323 323 322 321 320 320 320 321 320 321 320 320 320 324 326 329 329 332 339 337 335 338 336 338 340 339 334 335 335 336 336 336 337 337 335 336 338 338 336 334 332 326 325 323 321
321 322 320 321 323 320 320 319 319 320 320 319 320 319 320 320 321 324 325 330 330 331 338 340 339 341 340 337 336 337 334 333 335 336 338 338 336 333 332 333 334 334 333 333 328 324 321 317 311
320 321 322 323 322 319 318 319 321 321 321 320 319 320 318 319 320 320 326 330 332 330 336 341 341 339 341 338 336 335 336 334 332 336 337 337 334 332 331 331 331 332 332 331 326 322 315 306 302
322 319 322 323 319 319 319 319 320 320 321 319 319 318 319 319 319 319 324 329 332 331 332 336 340 340 339 340 339 338 337 336 333 335 339 336 333 331 330 330 330 330 330 327 323 316 305 301 300
322 323 322 321 319 320 320 319 319 317 316 317 318 317 318 318 318 319 322 326 330 333 333 334 336 337 339 340 339 339 338 337 334 337 337 335 332 329 329 328 329 329 326 323 320 308 301 300 300
320 320 320 321 320 319 318 318 318 317 316 317 317 316 318 320 318 318 321 324 328 331 334 334 336 334 336 338 338 337 336 337 335 338 337 334 332 331 325 326 326 326 323 322 318 307 300 301 300
320 320 320 321 320 318 317 317 317 317 316 316 316 316 317 318 318 319 321 323 326 329 332 335 336 337 333 334 334 333 334 335 336 337 337 333 332 329 323 324 322 323 321 320 316 307 301 301 300
320 322 322 319 318 318 316 315 315 314 315 314 314 315 318 318 317 318 319 321 324 326 329 334 335 336 337 336 336 334 335 335 336 337 336 333 331 331 325 323 321 319 320 317 316 310 301 300 300
321 320 319 317 318 318 317 316 314 315 316 315 315 314 314 316 316 316 317 317 317 322 325 328 333 335 336 336 335 335 334 334 334 333 334 333 331 330 325 321 318 318 319 316 315 305 300 301 301
320 319 318 318 318 318 317 316 315 314 314 315 314 314 314 313 313 316 316 316 317 317 320 326 327 332 334 335 335 334 333 333 330 332 333 332 331 328 324 319 318 317 317 314 309 305 299 300 301
319 319 318 317 317 316 317 316 316 315 314 314 313 314 313 312 313 316 317 316 316 316 317 319 325 328 331 333 333 333 333 332 332 330 331 331 330 328 322 319 317 316 316 314 310 304 299 300 299
317 317 316 315 315 315 316 315 315 314 313 313 313 313 312 311 313 314 315 315 315 315 315 315 319 326 328 330 332 332 331 332 332 330 328 329 330 327 322 318 317 316 316 312 310 305 300 299 298
316 315 314 315 315 316 315 313 314 313 313 312 311 311 311 312 313 311 310 310 311 312 314 315 315 320 327 328 329 330 330 330 331 330 331 332 330 325 322 317 317 317 316 312 310 303 300 299 298
315 315 316 317 315 313 313 313 314 314 312 313 312 310 311 312 309 308 307 307 307 308 309 311 314 315 321 326 327 328 329 328 329 330 330 329 328 324 320 316 315 316 315 311 307 301 300 299 298
315 316 317 318 316 313 313 314 314 313 312 312 312 312 313 308 307 306 304 304 303 304 306 308 310 314 315 321 325 326 327 327 327 327 328 326 325 323 318 315 313 314 312 310 304 300 299 299 298
319 318 317 317 316 315 313 312 314 313 313 312 312 312 309 307 306 305 304 302 301 302 303 305 307 309 312 318 321 323 324 324 324 324 325 324 321 321 317 313 312 311 310 307 302 299 298 298 298
316 316 316 316 315 316 315 314 313 313 314 313 312 309 308 307 306 304 302 301 300 300 300 301 304 306 310 315 317 319 321 321 322 322 321 321 319 318 316 311 309 309 308 305 301 299 298 298 298
315 315 315 315 316 314 314 314 314 314 314 314 310 308 306 305 304 303 301 300 300 300 299 299 300 303 306 310 312 314 314 316 316 318 319 318 317 316 314 311 307 306 305 302 300 298 298 298 297
316 315 315 315 315 314 313 314 314 315 315 310 309 307 306 304 304 302 301 300 299 299 298 298 298 299 302 305 307 310 311 311 310 312 313 314 315 314 311 311 307 304 303 301 299 298 298 298 296
316 315 315 315 315 316 315 317 316 315 310 310 308 305 304 303 302 301 300 299 299 298 298 298 298 297 298 300 301 301 303 304 305 306 306 307 309 311 311 308 307 303 302 300 299 298 297 297 296
316 312 312 313 314 315 316 316 315 313 311 310 307 305 303 302 301 300 299 299 298 297 296 297 297 297 297 297 297 297 298 298 300 300 301 301 303 304 306 307 306 304 302 300 299 298 297 297 297
310 311 312 311 314 318 317 317 317 314 312 308 306 304 303 302 301 300 300 298 297 297 296 295 295 296 296 296 296 296 296 296 296 297 297 298 299 301 302 302 303 303 303 301 299 298 297 297 297
310 313 318 319 318 319 315 315 315 311 310 308 305 303 302 300 299 298 297 297 297 296 296 295 293 293 294 294 294 294 295 295 295 295 294 295 295 296 298 299 299 299 301 301 299 298 298 297 297
315 317 322 324 318 317 315 317 317 309 306 304 303 301 300 299 298 298 298 297 296 295 294 293 292 291 291 292 292 291 291 292 293 293 293 293 293 293 294 295 295 297 298 299 299 298 297 297 296
314 315 314 315 310 316 316 315 313 307 305 302 301 300 298 298 297 296 297 296 295 294 293 292 291 290 290 290 289 288 288 288 287 287 287 288 290 292 292 292 293 293 295 296 297 297 297 296 296
312 315 319 317 321 318 317 315 315 311 307 303 301 299 298 297 296 295 294 296 293 292 292 291 290 290 289 289 289 288 287 286 286 285 285 285 285 285 287 290 292 291 292 293 294 295 295 295 295
312 312 316 315 314 314 315 312 310 310 308 303 301 299 297 295 293 294 293 292 292 291 290 290 290 289 288 287 288 288 287 287 286 285 284 284 284 285 285 285 285 289 291 291 291 292 293 294 294
312 314 314 316 316 314 315 315 311 307 303 302 298 297 295 295 291 292 293 291 291 290 289 289 288 288 288 287 286 287 287 286 286 285 284 284 284 284 284 285 285 285 285 289 290 290 291 292 293

GFSSGP_925_thetae_015.txt.gz
Theta_e
318 320 321 321 319 318 319 321 318 319 320 318 319 319 318 318 319 320 328 330 332 336 337 331 332 334 335 337 339 339 338 338 337 332 331 331 334 335 332 333 339 339 339 338 337 333 331 328 328
316 319 320 317 319 318 317 318 319 319 319 319 318 319 318 319 319 324 328 329 329 336 336 333 331 332 334 335 339 339 338 336 336 333 336 336 337 336 336 335 338 339 337 338 336 333 329 324 324
319 321 316 316 316 316 317 316 317 317 318 319 318 318 318 318 319 325 328 328 330 335 335 335 333 333 333 334 339 340 340 336 336 338 337 336 335 335 334 337 339 338 336 335 333 326 324 323 320
320 318 313 316 320 316 316 315 317 319 317 318 318 317 317 318 321 324 322 326 331 333 335 335 333 336 336 336 340 340 338 337 337 336 336 336 337 336 334 335 336 335 334 333 331 325 323 318 313
319 312 315 318 319 317 316 318 319 319 318 317 317 318 316 319 321 319 321 324 329 331 336 339 335 335 337 336 338 338 337 333 335 334 336 336 336 333 331 331 333 333 332 331 330 325 319 310 302
315 311 315 317 316 316 317 317 317 316 316 316 316 316 315 318 318 321 324 325 329 330 334 340 340 337 338 340 337 336 335 336 335 334 336 336 335 332 329 329 330 330 330 329 326 321 312 302 300
318 315 317 318 318 317 318 317 316 315 313 315 316 315 315 316 319 319 323 327 330 331 330 334 338 340 339 339 338 336 337 336 335 333 336 338 335 332 329 323 328 329 329 326 323 315 303 300 300
314 313 318 316 316 317 316 316 316 316 314 315 315 313 316 318 318 317 319 323 329 331 331 331 333 336 339 339 339 339 338 337 336 334 335 338 334 332 330 325 326 328 327 324 321 308 301 300 300
315 313 315 318 316 315 315 316 315 313 315 314 314 314 314 318 318 318 320 321 323 329 331 333 333 334 334 336 338 339 338 337 336 335 335 338 335 331 330 327 323 327 324 323 319 307 301 301 300
315 315 317 316 315 316 315 314 312 313 311 311 311 312 314 316 318 317 317 319 321 322 325 330 332 334 334 333 337 338 338 336 334 335 335 336 334 332 331 328 321 322 322 320 317 306 301 300 299
318 315 316 317 317 316 316 314 313 312 314 312 312 312 312 313 312 314 315 316 317 318 321 324 328 332 335 335 333 331 332 332 333 334 335 333 332 332 330 329 322 318 319 318 316 311 302 301 301
318 316 317 316 315 315 316 316 314 314 313 311 310 310 311 311 310 312 313 315 315 316 317 320 324 327 332 335 336 335 335 333 334 331 333 332 332 330 330 328 322 317 317 316 312 306 301 301 301
316 317 317 315 313 313 313 314 315 313 312 310 310 309 309 309 309 309 309 310 312 313 314 317 322 326 327 332 335 335 335 335 334 332 331 331 330 329 329 327 323 318 316 315 312 307 301 300 301
314 313 313 312 313 312 314 313 314 312 310 309 309 308 307 306 306 305 306 305 306 308 311 314 317 323 327 330 332 334 334 333 333 333 331 330 330 330 328 326 323 319 316 315 314 307 302 300 300
313 313 311 312 312 312 311 313 312 311 309 310 310 308 305 304 304 303 303 303 304 306 307 310 313 318 325 328 330 332 333 332 332 332 331 329 329 328 327 326 323 319 316 315 314 310 305 300 299
314 313 313 314 313 313 312 313 312 310 310 311 308 305 304 304 303 302 301 301 301 304 306 308 311 315 324 327 328 329 331 330 330 330 330 331 328 328 327 325 322 319 316 316 314 311 306 300 299
312 313 313 314 313 312 311 311 311 310 310 309 307 304 304 303 302 301 300 299 300 301 303 306 310 314 318 325 326 327 328 329 328 328 328 329 330 329 327 325 322 317 317 316 314 311 307 300 299
314 314 314 314 314 312 312 310 309 310 311 311 304 303 304 303 301 300 299 299 298 299 301 304 308 312 316 318 321 323 324 326 325 325 325 326 326 327 324 322 319 316 316 315 312 310 303 300 299
313 314 314 313 313 314 313 312 312 310 310 308 305 304 304 302 301 299 299 298 298 298 298 300 304 308 312 314 316 317 318 319 321 322 322 323 323 322 323 320 316 314 314 314 312 308 301 299 298
313 314 313 312 313 313 312 312 310 311 312 307 305 304 304 302 300 299 298 298 298 297 297 298 300 303 305 307 310 311 311 310 311 314 318 317 317 318 319 319 315 312 311 311 310 307 302 299 298
314 314 313 313 312 312 312 311 312 311 307 306 305 304 303 301 300 298 297 297 297 297 297 297 297 298 301 303 305 306 306 306 308 306 307 312 312 313 314 315 315 311 308 308 308 305 301 298 298
315 313 313 314 313 314 313 315 313 311 308 306 304 302 301 300 299 298 297 297 296 296 296 296 296 297 297 298 299 298 297 298 298 299 300 301 302 307 309 309 310 309 306 304 305 304 301 298 298
313 311 311 312 312 312 313 314 312 309 309 307 303 302 300 299 298 297 297 297 296 294 294 295 295 295 296 296 296 296 296 296 296 297 298 298 299 301 302 303 304 306 306 304 302 301 299 298 297
309 310 311 310 312 314 313 314 313 309 310 306 303 302 301 299 297 297 297 296 295 294 293 293 293 294 294 294 294 295 294 294 294 294 294 294 295 296 298 299 300 299 302 304 302 300 299 298 297
309 311 317 316 314 317 313 314 314 309 307 306 303 301 299 298 296 295 295 295 294 293 292 291 291 291 290 290 291 290 291 291 289 289 289 291 292 293 293 294 295 296 297 298 300 300 299 298 297
310 314 319 322 317 314 312 316 315 304 302 301 300 299 298 298 297 295 295 294 294 292 292 290 289 289 288 288 287 287 286 286 286 286 286 286 286 286 287 291 293 293 293 294 296 297 298 298 297
314 315 313 315 305 312 315 313 308 304 302 301 300 298 297 296 295 295 295 294 294 292 291 290 289 288 288 288 287 287 286 286 285 285 285 285 285 285 285 285 285 288 291 292 292 294 294 295 296
313 313 317 315 314 313 314 313 314 308 304 301 299 297 296 295 294 292 294 293 292 291 291 290 289 288 287 287 287 287 286 286 285 285 284 284 284 284 284 285 285 285 285 286 290 291 291 291 292
312 311 316 315 313 312 310 311 308 309 305 301 298 297 294 293 292 293 291 292 291 290 289 289 288 287 287 286 286 285 285 285 285 284 284 284 284 284 284 284 284 284 284 285 285 285 288 291 291
311 312 312 316 313 310 315 313 304 301 300 299 297 296 294 292 289 291 291 290 290 289 288 288 288 287 287 286 286 285 285 284 284 284 284 284 284 284 283 283 283 283 284 284 284 284 285 285 289

GFSSGP_925_thetae_018.txt.gz
Theta_e
315 319 320 320 319 313 318 320 317 319 319 317 317 318 318 317 318 317 327 330 331 334 336 333 334 334 336 338 340 341 340 338 334 332 330 330 330 329 330 334 339 338 340 338 339 332 330 327 326
316 320 320 313 316 316 316 316 319 318 318 317 317 318 317 318 318 324 327 331 330 334 335 331 334 334 335 337 338 338 338 337 336 333 331 332 335 334 332 333 337 339 338 337 339 332 328 324 323
320 320 314 313 312 315 316 315 317 317 317 317 317 316 316 318 319 324 329 328 329 335 335 332 332 335 336 337 336 336 336 336 335 332 336 337 336 335 334 336 337 339 336 337 334 327 324 323 321
318 316 311 314 318 314 315 314 315 317 317 316 316 317 315 316 319 324 323 326 328 333 336 334 331 332 334 335 337 339 337 337 334 336 337 336 336 334 334 336 337 337 335 334 332 328 323 320 315
317 309 313 316 317 315 316 316 317 318 317 317 316 316 315 318 322 322 323 326 329 334 335 335 334 333 333 334 336 338 339 338 337 336 336 336 336 334 333 334 334 333 332 331 330 327 323 315 304
314 308 313 315 316 315 316 315 316 314 312 313 315 314 313 317 319 321 323 325 329 330 334 336 335 334 335 335 336 339 339 336 336 335 336 334 336 335 332 329 332 332 331 329 328 325 319 306 300
315 312 314 316 315 316 317 315 315 314 313 314 315 315 313 315 318 320 323 325 328 329 331 336 338 336 334 337 337 338 338 335 336 335 334 336 336 335 332 328 329 330 329 329 327 321 312 301 299
312 310 316 314 314 316 315 314 314 315 315 313 313 312 314 316 318 319 322 324 328 330 330 330 335 338 338 337 339 338 337 336 337 334 333 336 337 335 332 331 324 327 328 327 325 317 305 300 300
311 312 313 316 315 315 313 313 312 311 313 312 313 313 312 315 317 317 319 321 325 328 330 331 331 333 338 339 339 339 338 336 336 335 334 335 338 335 332 331 328 319 326 325 322 314 302 300 300
312 311 313 314 314 316 315 314 313 313 310 311 311 311 313 314 317 317 317 318 320 323 326 329 330 331 332 335 337 339 337 337 336 336 335 334 337 334 332 331 329 321 322 322 320 312 301 301 300
316 313 314 316 315 314 315 313 313 313 313 311 311 310 310 312 314 310 310 311 313 317 321 325 326 328 330 332 333 335 337 338 337 336 334 335 334 333 331 330 327 323 322 320 318 314 303 300 299
317 316 315 316 315 314 315 313 312 313 313 312 309 308 308 305 304 305 305 306 308 309 311 316 327 329 329 330 332 332 335 337 337 336 335 333 332 331 331 329 328 324 320 319 317 311 305 300 301
315 315 315 314 312 312 313 312 313 312 310 308 307 305 304 303 304 304 304 305 306 307 309 311 316 326 330 331 332 333 333 332 331 331 333 332 331 331 330 329 327 326 320 318 317 314 308 301 301
313 313 312 311 311 312 313 312 313 312 310 308 307 304 302 302 301 301 301 301 303 305 307 310 312 319 329 331 331 333 335 334 334 334 333 330 329 330 330 329 327 326 323 318 316 314 309 301 300
313 312 310 310 311 311 310 313 312 311 308 308 303 301 302 301 300 299 299 299 300 303 306 309 312 314 322 329 331 333 334 334 334 334 334 333 331 329 328 329 328 326 325 319 317 316 312 305 300
313 312 312 313 312 312 311 313 312 310 308 306 301 301 301 301 300 299 299 299 300 302 306 310 315 316 320 325 329 332 332 332 332 332 331 331 331 330 328 326 327 326 324 320 317 315 313 307 300
310 312 312 313 312 312 311 311 311 310 309 304 302 302 301 300 299 298 298 298 299 301 305 310 314 318 322 324 326 328 329 329 329 328 327 327 329 330 329 328 326 326 322 319 317 316 313 310 303
312 312 312 313 313 312 312 309 309 309 307 303 302 301 300 299 298 298 297 297 298 300 303 307 311 314 317 319 322 322 324 324 324 324 325 327 328 328 327 328 326 324 321 318 317 316 313 310 307
312 312 312 311 311 312 311 310 310 310 305 303 303 302 301 299 298 297 297 297 298 299 300 302 306 309 313 314 315 315 313 313 317 318 319 320 322 324 324 323 321 320 317 317 316 315 311 309 304
310 312 312 311 311 310 311 311 310 309 309 305 304 302 301 299 297 297 296 296 296 296 297 298 299 302 306 309 309 308 307 306 306 308 310 312 315 316 319 319 317 317 316 313 313 312 309 306 302
312 312 312 313 312 310 311 311 311 307 305 304 303 301 300 298 297 295 295 295 295 296 296 296 296 297 299 302 304 304 304 306 308 304 303 301 305 308 311 312 313 311 309 310 311 309 307 304 301
315 312 312 313 312 313 311 313 311 310 306 304 302 300 298 297 296 295 295 293 293 294 295 295 296 296 296 297 298 298 296 295 295 296 298 299 300 301 302 303 305 305 306 305 305 306 305 301 301
314 310 311 311 310 311 311 312 310 308 308 305 301 299 298 296 295 294 294 294 293 293 293 294 293 293 294 295 295 295 294 294 294 295 296 296 296 297 298 298 299 300 299 301 302 301 300 300 299
309 310 309 309 309 312 310 311 312 309 309 304 301 299 298 296 295 294 294 293 292 291 291 291 290 290 291 291 292 290 288 288 288 288 288 288 289 291 293 294 294 295 296 297 297 299 300 299 297
308 310 316 316 312 316 312 312 312 308 305 305 301 299 297 295 294 293 293 292 291 290 289 289 288 288 287 287 286 286 286 286 285 285 285 285 285 285 285 286 287 290 292 293 293 295 296 297 297
308 311 317 322 315 314 311 315 313 302 301 300 300 298 297 297 295 293 293 292 291 290 289 289 288 288 287 287 286 286 285 285 285 284 284 284 284 284 285 285 285 285 285 286 289 292 293 293 294
313 314 313 315 303 310 314 312 305 302 300 299 298 297 296 295 295 294 293 293 292 291 289 288 287 287 287 287 286 286 285 285 285 284 284 284 284 284 284 284 285 285 285 285 285 285 286 289 291
311 311 314 312 314 311 313 312 312 305 302 299 298 297 295 294 293 293 292 292 292 291 290 288 287 286 286 286 286 285 285 285 285 285 284 284 284 284 284 284 284 284 284 284 284 285 285 285 285
310 312 314 313 310 310 308 309 307 307 303 300 297 296 295 293 292 291 293 292 291 290 289 288 287 287 286 286 285 285 285 285 285 284 284 283 283 283 283 283 282 282 282 282 282 283 283 284 284
311 311 311 313 312 310 312 312 306 305 302 299 297 296 294 294 292 291 290 290 290 289 288 288 287 287 286 286 285 285 285 285 284 283 283 282 282 282 282 282 282 282 282 282 281 281 281 282 282

GFSSGP_925_thetae_021.txt.gz
Theta_e
314 318 319 319 317 313 317 319 316 318 317 316 316 316 317 316 316 315 325 329 330 332 333 336 336 336 336 341 337 337 337 336 334 332 329 327 328 329 330 333 339 339 338 337 336 333 327 327 323
318 319 319 311 314 315 315 314 318 317 316 315 316 316 316 318 315 322 326 329 330 332 335 333 335 336 338 343 342 340 339 337 335 332 330 329 331 331 330 335 337 338 338 336 336 330 326 324 323
319 318 312 312 310 314 315 314 315 316 315 316 316 315 315 317 318 321 326 329 328 333 334 333 334 335 339 342 341 340 339 337 337 334 331 333 337 336 333 332 336 339 337 335 336 328 324 323 321
318 314 309 312 315 313 314 314 313 316 316 315 314 316 313 315 317 323 327 327 328 331 335 333 333 335 335 339 339 337 337 336 337 334 336 337 337 335 333 335 336 337 335 333 333 330 324 321 316
314 307 312 314 315 314 315 315 315 316 315 315 314 315 312 316 322 321 322 324 326 328 334 334 332 333 335 335 336 336 336 336 334 332 335 337 336 333 332 333 335 334 332 330 330 329 325 319 307
312 307 312 314 315 313 315 314 314 313 311 313 315 313 312 316 319 321 322 324 327 330 334 335 334 332 333 334 335 335 337 337 335 335 336 333 335 335 333 329 332 332 331 329 328 328 323 314 301
313 309 313 314 314 315 316 313 314 313 312 314 313 314 311 315 317 318 323 324 327 329 332 333 335 334 334 335 335 335 337 338 336 335 335 335 335 336 333 332 325 330 330 329 328 325 319 306 300
309 309 315 313 313 315 313 312 313 313 314 310 312 311 312 314 316 318 321 324 326 327 328 330 334 336 335 336 337 337 338 338 337 335 335 334 335 337 335 332 330 325 327 326 327 323 315 302 299
308 309 311 315 314 314 312 313 312 310 311 310 312 312 311 313 316 317 318 320 323 327 329 330 332 335 336 336 336 338 338 337 336 335 335 333 335 337 336 333 331 328 323 324 325 322 311 301 299
310 308 310 313 313 315 314 313 313 312 311 311 310 310 311 312 314 314 312 311 313 317 324 329 332 334 335 336 337 339 339 338 336 334 334 333 333 334 334 333 331 329 323 323 324 321 312 301 299
313 311 312 315 313 314 314 313 312 313 312 311 312 309 307 304 305 305 305 305 305 307 310 316 327 332 334 336 337 338 338 338 334 334 334 334 333 333 333 331 330 328 325 323 321 319 312 304 299
317 315 314 315 314 314 314 313 313 311 312 308 306 305 303 302 302 302 303 303 305 307 308 310 312 324 330 332 333 333 335 338 336 335 334 333 333 332 332 331 330 328 326 324 321 318 313 306 299
315 314 314 313 311 311 312 312 312 311 309 306 304 303 301 301 301 301 301 302 303 305 307 309 311 314 324 330 332 332 333 334 339 338 336 336 335 329 330 330 329 328 327 325 321 318 315 310 302
312 313 311 311 311 311 312 311 312 311 306 304 303 301 300 300 299 299 299 299 301 303 306 309 312 312 318 327 331 333 333 333 332 332 332 331 333 332 327 330 329 328 326 326 324 319 316 313 305
312 312 309 309 310 310 309 312 311 309 305 304 302 300 299 299 298 298 298 298 299 303 307 312 314 316 315 323 329 331 333 334 334 334 334 332 331 330 328 328 329 328 326 325 323 320 317 314 311
312 310 310 312 311 311 311 313 311 309 306 303 301 299 299 298 298 298 298 298 300 303 307 312 318 320 321 324 327 330 331 332 332 333 332 330 330 331 330 329 327 326 328 326 322 320 317 315 312
308 309 311 311 311 311 311 312 310 307 305 302 301 300 299 298 297 297 297 297 299 302 306 310 315 319 322 324 327 328 328 328 327 328 329 329 329 329 329 329 328 326 325 323 321 319 316 315 313
309 311 310 311 313 311 311 309 308 308 308 303 300 299 298 298 297 296 296 296 298 300 302 306 310 314 316 320 321 322 322 320 322 323 324 325 325 325 325 324 323 323 321 319 319 318 316 313 312
310 311 312 310 310 312 310 309 309 308 304 302 300 299 298 297 296 295 295 295 296 297 299 300 304 306 312 315 314 312 310 310 312 314 316 317 319 320 321 319 319 318 318 318 317 316 314 311 308
310 311 310 310 310 309 310 310 309 307 306 303 301 299 298 296 295 294 294 294 295 295 296 297 298 301 304 305 304 304 302 299 300 302 305 308 310 312 313 314 314 312 312 312 311 312 311 309 307
310 310 311 312 311 310 310 309 310 305 303 302 300 299 297 295 294 293 292 293 293 294 295 296 296 297 299 301 302 302 302 301 299 297 298 299 300 301 303 306 306 307 307 306 305 305 305 304 303
313 310 311 312 312 314 309 313 309 307 304 302 300 297 296 295 294 293 292 291 292 292 294 295 296 297 297 297 297 296 293 292 291 292 293 294 295 296 297 298 299 299 300 301 302 302 300 299 299
313 310 310 310 310 310 309 310 308 307 307 303 299 297 295 294 293 292 292 291 291 291 292 292 293 294 293 294 294 292 289 288 288 288 289 288 287 288 289 291 293 294 295 295 296 298 300 300 298
308 309 309 308 308 311 310 310 310 309 309 303 300 298 296 294 293 292 292 291 290 290 289 290 290 289 290 290 289 288 287 286 286 285 285 285 285 285 285 285 285 285 287 289 291 293 294 296 297
308 310 314 315 312 315 309 310 310 308 304 303 301 297 295 294 292 291 291 290 289 289 288 288 287 286 286 286 286 286 285 285 285 284 284 285 285 285 285 285 285 285 285 285 285 285 287 290 292
307 310 315 317 315 313 310 314 313 302 300 300 299 297 295 293 292 291 291 291 289 288 288 288 287 287 286 286 286 285 285 285 285 285 285 284 284 284 284 284 284 284 284 285 285 285 285 285 285
310 311 310 314 299 308 313 311 304 301 300 298 297 296 295 294 293 292 292 291 290 288 288 288 287 287 286 286 285 285 285 285 285 285 284 284 284 283 283 283 283 283 284 283 283 283 283 283 283
310 309 313 310 314 312 314 311 312 304 302 299 298 297 295 294 293 292 292 292 290 289 288 287 287 287 286 285 285 285 285 285 284 284 284 283 283 283 283 283 283 283 283 282 282 282 282 282 282
311 313 313 311 310 312 309 310 305 305 301 300 299 297 295 293 293 292 292 292 291 290 289 287 287 286 285 285 285 285 285 285 285 284 283 283 283 283 283 282 283 282 282 282 281 281 281 280 281
309 311 312 316 313 309 310 313 303 305 301 299 298 296 294 293 292 291 292 291 290 290 289 288 287 286 286 285 285 285 285 285 285 284 283 283 282 282 282 282 281 281 280 280 279 279 279 279 279

GFSSGP_925_thetae_024.txt.gz
Theta_e
315 317 319 317 315 312 316 318 315 316 316 315 315 316 316 315 315 315 323 327 329 331 334 336 338 340 341 335 335 334 336 335 334 331 328 328 328 328 329 335 340 338 336 337 336 329 325 325 323
318 319 317 308 313 313 314 313 317 316 315 314 315 315 315 317 314 319 324 328 329 332 332 335 336 336 337 337 334 335 337 336 334 332 330 329 329 329 330 336 337 336 337 335 335 327 324 323 322
318 317 311 309 309 313 314 313 314 314 314 315 315 314 314 315 315 320 324 328 328 332 333 333 335 335 335 341 341 339 339 337 335 333 331 330 333 333 331 332 335 338 336 334 334 330 324 322 320
317 312 307 309 314 312 313 313 312 315 314 313 313 315 311 314 315 321 325 327 328 331 334 333 334 335 335 338 340 340 339 337 336 334 331 334 337 335 332 332 333 334 335 332 332 331 326 322 316
312 306 310 313 314 313 312 314 313 315 314 313 313 315 312 314 321 321 321 323 325 327 333 334 333 334 335 339 341 340 338 336 336 335 333 337 336 333 330 331 333 333 331 330 328 329 327 322 311
311 306 310 312 314 312 313 312 313 312 311 312 314 312 311 315 318 320 321 321 324 327 330 334 333 333 336 340 340 339 339 338 338 336 335 337 334 333 332 330 330 331 330 328 327 326 324 318 303
311 307 311 312 313 314 314 308 313 312 312 313 312 313 311 313 314 316 322 323 325 330 333 334 335 333 333 336 339 338 337 337 337 335 335 336 335 335 333 332 329 325 329 328 326 325 323 314 300
307 307 313 312 312 314 313 311 312 312 313 309 311 310 311 310 314 316 321 323 325 327 329 333 334 335 335 335 336 336 337 336 337 336 334 335 335 335 335 334 332 328 325 326 324 323 321 309 300
307 307 309 314 311 314 312 313 311 309 310 309 309 311 308 309 314 316 316 317 317 320 325 328 332 335 336 337 337 337 337 336 336 337 334 334 333 335 334 335 332 330 327 323 323 323 319 307 300
307 305 308 311 312 314 313 313 312 312 310 311 310 309 307 307 307 306 304 305 306 308 311 320 327 332 334 337 341 339 338 337 337 336 334 333 332 332 331 333 332 330 327 324 324 322 318 309 301
312 309 311 314 312 313 313 313 311 312 312 311 311 306 302 303 303 302 302 302 302 304 307 308 313 325 331 334 336 341 341 339 337 334 334 333 333 333 330 331 331 329 328 326 325 322 318 313 303
316 314 312 315 313 313 314 312 313 311 311 307 302 302 301 300 300 299 300 301 302 304 305 308 309 310 323 331 334 339 335 334 335 333 332 334 335 334 332 331 331 330 328 327 325 324 320 315 308
316 314 312 312 311 311 311 311 312 310 308 302 302 301 299 299 299 299 299 300 301 304 306 309 311 311 311 324 332 336 337 336 332 332 333 332 333 331 329 329 331 330 329 327 325 324 322 317 313
311 311 310 309 310 310 311 310 311 308 302 302 301 299 298 298 297 298 298 298 301 304 309 312 314 315 313 317 328 332 332 335 335 334 332 333 334 332 331 328 327 329 329 327 326 324 322 319 315
310 312 308 309 309 310 308 312 310 307 304 302 300 298 298 297 297 296 297 298 299 304 309 315 318 320 316 320 327 331 332 333 333 332 332 332 332 332 332 329 328 328 329 328 326 323 322 321 318
311 308 310 310 310 310 310 313 311 305 305 302 300 297 297 297 296 296 296 297 300 303 308 315 319 322 324 326 327 328 329 329 328 328 329 329 329 328 328 328 327 326 326 326 326 324 321 319 317
306 311 309 310 310 310 310 312 310 305 304 302 300 298 298 296 295 295 296 297 299 302 307 312 315 320 321 323 324 324 325 325 324 325 325 324 323 324 324 324 323 322 321 321 320 317 316 316 315
311 309 309 310 311 310 310 309 307 307 306 302 299 297 297 296 294 294 295 296 298 300 303 307 313 313 317 319 318 316 316 315 315 315 316 319 320 320 320 319 318 318 318 317 316 316 315 314 312
308 309 311 310 309 311 310 309 309 308 302 300 298 298 296 295 294 294 294 295 296 299 301 305 308 310 314 314 310 308 302 305 307 307 309 309 310 312 313 312 312 312 312 311 312 312 312 311 309
309 310 309 308 308 310 309 309 307 307 305 302 299 297 296 294 293 293 293 294 294 295 296 299 303 305 307 308 304 301 300 299 299 300 302 303 304 304 305 305 305 307 307 305 304 305 306 305 304
308 309 309 310 310 309 309 309 308 304 303 300 299 297 295 294 293 291 292 292 294 295 295 296 298 301 302 303 303 303 300 297 296 294 295 295 297 298 298 298 299 300 300 300 301 301 300 300 300
309 307 309 310 312 315 309 313 309 306 304 301 298 296 294 293 292 291 291 291 291 292 294 295 297 298 298 299 300 299 294 289 287 288 289 289 290 291 291 292 293 293 294 295 295 296 298 299 297
311 309 309 310 310 309 309 310 308 305 306 302 299 296 294 293 292 291 290 290 290 291 291 291 292 293 293 294 295 293 289 287 287 287 287 286 286 286 286 286 286 286 286 287 289 292 293 293 294
306 308 308 306 307 310 310 310 309 307 308 303 299 296 295 293 292 291 290 289 288 289 289 289 289 289 290 290 289 288 287 286 286 285 285 285 285 285 285 285 285 285 285 285 285 285 285 286 287
307 309 314 315 312 315 308 308 310 307 304 303 301 297 294 293 291 290 289 289 288 288 287 287 287 286 287 287 286 286 285 285 285 285 285 285 285 284 284 284 284 284 284 284 283 284 284 283 284
307 310 315 317 314 314 308 313 312 302 299 298 299 296 294 292 291 290 290 289 288 288 287 287 287 286 286 286 285 285 285 285 285 284 284 284 284 283 283 283 283 283 283 283 283 283 283 283 283
308 310 309 312 296 307 313 311 304 301 300 298 296 295 294 292 291 290 291 290 288 288 288 287 286 286 285 285 285 285 285 285 285 284 284 284 284 283 283 283 283 283 283 282 282 282 282 282 282
309 307 312 309 313 314 314 312 314 306 303 298 297 296 294 293 292 291 291 291 289 288 287 287 287 286 285 285 286 285 285 285 285 285 284 284 283 283 283 283 282 282 282 281 281 281 281 281 281
311 312 311 310 311 315 310 313 304 305 301 299 298 297 295 294 293 291 292 292 290 289 287 286 286 286 285 285 285 285 285 285 285 284 284 283 282 282 282 281 281 281 280 280 280 280 280 280 281
308 310 311 315 313 307 311 315 302 303 300 299 298 297 295 293 292 292 293 292 290 289 288 287 286 286 285 285 285 285 284 284 284 284 284 283 282 281 281 280 280 279 279 279 278 278 278 278 278

GFSSGP_925_thetae_027.txt.gz
Theta_e
315 317 319 316 320 318 317 317 314 316 316 314 313 315 316 315 315 319 322 326 329 331 335 339 341 342 340 342 338 336 336 335 333 331 329 328 328 330 331 339 339 335 336 337 333 326 325 323 322
318 318 316 310 316 317 318 313 316 315 314 313 314 313 315 317 313 318 323 327 329 331 334 337 339 338 338 336 335 334 335 335 334 331 329 329 328 328 333 338 337 336 337 334 333 325 323 322 321
318 316 314 312 311 315 316 313 314 314 313 314 314 313 313 315 314 319 324 327 328 332 333 335 336 337 338 336 333 334 337 336 335 333 331 330 332 331 330 334 334 337 335 333 333 331 325 322 319
316 312 309 312 313 311 312 312 312 314 314 312 312 315 311 313 315 320 325 328 328 331 332 334 335 336 337 341 342 340 338 337 335 334 331 333 335 333 331 331 334 333 333 330 329 330 328 323 316
312 308 313 314 314 312 310 312 313 313 312 312 312 314 312 313 320 321 324 326 327 330 333 333 335 335 336 337 340 341 339 338 336 335 332 336 336 333 329 331 333 331 329 328 327 326 327 321 309
312 308 313 314 313 312 312 311 312 311 310 312 312 311 311 312 315 320 323 323 326 329 333 335 334 335 336 336 339 340 340 338 338 338 332 337 336 331 331 330 329 331 330 328 325 324 324 317 303
311 310 311 311 312 313 314 309 311 311 311 312 311 312 310 310 313 316 323 324 325 331 333 334 334 334 335 337 338 339 339 337 337 337 334 336 335 334 333 332 330 326 327 327 324 321 321 314 301
307 309 311 311 313 314 312 311 311 311 313 308 310 311 310 307 312 316 320 321 323 326 328 333 335 335 334 336 337 338 338 337 336 336 334 334 335 334 335 334 331 329 326 325 321 318 321 313 300
305 307 310 312 311 313 311 313 310 308 310 309 308 308 304 305 311 314 313 311 311 312 317 324 331 334 336 340 339 339 336 336 335 336 335 333 334 333 332 333 332 330 328 326 324 323 319 312 301
307 306 308 309 309 312 312 312 311 311 310 311 310 306 304 304 304 303 302 303 305 307 308 310 317 327 335 339 336 336 340 336 335 335 334 334 332 333 331 330 333 330 329 327 326 325 322 315 305
310 308 308 313 311 312 313 312 311 312 311 310 311 306 302 301 301 300 300 300 300 303 306 308 309 312 324 336 336 334 335 335 336 335 334 334 332 332 333 330 329 330 328 327 326 325 324 320 312
314 313 311 314 312 312 313 311 312 311 311 305 302 301 300 300 299 298 298 299 302 304 307 309 310 311 312 324 332 333 333 333 333 333 331 333 333 333 333 331 331 330 329 328 326 324 323 322 317
315 313 312 312 310 311 310 312 312 310 303 301 301 300 299 298 298 298 299 300 303 305 309 312 313 314 313 312 329 332 332 331 331 331 331 331 332 333 332 330 329 330 330 328 327 325 324 323 320
310 311 309 309 310 309 311 310 309 306 301 301 300 299 298 297 297 297 298 299 303 306 311 315 317 317 314 312 327 330 331 330 330 330 330 331 331 331 332 330 328 327 327 328 327 326 324 322 320
309 312 308 309 308 309 308 309 309 305 302 301 300 298 297 296 296 295 296 298 301 306 312 317 319 321 323 326 328 328 329 328 327 326 329 329 329 329 328 328 327 327 327 325 325 324 322 321 318
310 307 312 311 309 309 309 314 309 303 304 303 300 298 297 296 295 295 297 298 301 306 312 317 318 319 321 323 325 326 327 327 326 326 327 326 326 325 324 325 324 323 323 323 322 321 320 318 315
307 313 309 310 309 309 310 313 309 304 304 302 300 299 298 296 295 295 296 298 301 304 309 315 318 319 320 321 323 323 322 322 321 322 322 322 322 322 321 320 319 319 319 318 317 317 317 316 316
312 310 308 310 310 309 310 309 307 305 304 302 299 298 297 296 294 293 295 296 297 301 307 311 315 318 319 319 317 316 315 313 312 312 312 315 316 317 317 315 315 315 315 314 314 314 313 313 311
308 309 310 309 309 311 310 308 309 305 302 301 299 298 297 295 293 293 294 295 297 301 303 307 310 310 314 314 311 308 303 304 306 306 306 307 308 308 309 309 310 309 309 307 307 308 308 307 305
307 309 309 307 307 309 309 309 309 307 304 302 300 298 296 295 293 292 293 294 295 296 300 302 305 306 308 310 306 303 300 299 299 299 301 302 303 303 302 302 302 302 303 302 302 302 302 301 299
308 308 308 310 309 308 309 310 309 305 302 300 299 297 295 294 293 291 291 292 294 295 297 299 300 302 303 303 303 300 297 294 293 292 292 292 294 294 295 295 295 295 295 295 295 297 299 298 299
309 306 307 309 311 314 309 317 310 306 304 301 298 296 294 293 292 291 290 290 291 291 295 296 299 301 301 301 300 297 292 287 286 286 287 287 287 287 288 288 288 288 288 288 289 291 293 294 293
311 306 307 309 310 310 310 311 310 306 307 303 299 296 294 293 292 291 289 289 290 291 292 293 294 295 296 296 295 293 288 286 286 286 286 286 286 286 286 286 286 286 285 285 285 285 285 285 286
305 307 307 305 307 311 310 312 311 308 307 303 299 296 295 293 291 290 289 288 288 288 290 291 292 291 291 291 291 290 288 286 286 286 286 285 285 284 284 284 284 284 284 284 284 284 284 284 284
307 309 314 315 313 316 307 308 310 307 304 303 301 297 294 293 291 290 289 288 287 287 287 288 288 287 287 288 287 287 286 286 286 285 285 285 284 284 284 284 284 284 283 283 283 283 283 283 283
306 310 315 317 315 315 307 312 312 303 300 298 299 297 294 292 291 290 289 288 288 287 287 287 286 286 286 286 286 286 286 285 285 284 284 284 283 283 283 283 283 283 283 283 283 282 282 282 282
308 310 309 310 296 309 313 311 308 301 301 298 297 296 295 293 291 290 290 289 288 287 287 287 286 285 285 285 285 285 285 285 284 284 284 284 283 283 283 283 283 283 283 282 282 282 282 282 281
308 307 312 309 312 312 313 313 315 306 304 299 297 296 295 293 291 291 290 290 289 288 287 286 286 285 285 285 285 285 285 285 285 285 285 285 284 284 284 284 283 283 282 282 282 282 281 281 281
310 310 310 310 311 314 311 313 305 307 304 301 299 297 296 294 293 292 291 291 290 288 287 287 286 285 285 285 285 285 285 285 286 286 285 285 284 284 283 282 282 281 281 281 280 280 280 280 280
308 309 310 314 312 307 310 315 303 303 301 300 299 297 296 295 294 292 292 292 290 288 287 286 286 286 285 285 285 285 285 285 285 285 285 284 284 283 282 281 281 280 279 279 279 278 278 277 277

GFSSGP_925_thetae_030.txt.gz
Theta_e
315 317 319 322 325 323 322 321 320 320 320 319 318 320 319 320 319 320 323 327 329 335 340 342 342 342 340 339 337 336 336 334 333 331 329 330 332 331 336 340 336 337 337 334 331 326 323 322 321
317 318 319 322 322 320 321 320 320 320 319 318 318 318 319 319 319 323 326 326 330 335 339 343 341 341 340 341 338 336 336 335 333 331 329 328 328 332 338 338 335 337 337 333 331 326 323 321 318
318 316 323 322 321 319 320 319 319 319 317 318 319 318 319 320 321 323 326 328 331 336 339 343 340 341 340 338 336 335 336 336 334 332 330 330 331 330 333 333 336 335 333 332 330 330 326 321 315
318 320 319 319 319 318 318 318 319 320 318 317 318 319 316 317 321 323 327 331 333 336 338 341 339 340 341 339 336 336 337 337 336 334 331 332 334 330 330 332 334 332 330 329 327 328 328 322 311
315 320 321 320 319 317 317 318 318 319 317 318 317 317 318 316 321 325 328 329 332 336 337 339 337 337 340 338 341 341 339 338 336 335 332 336 335 331 329 331 332 331 329 326 322 321 324 318 305
320 319 321 320 319 317 317 317 317 316 315 317 316 316 317 314 316 323 326 328 333 335 335 338 336 337 340 339 339 340 340 338 338 337 333 337 335 331 331 330 331 331 330 328 325 318 320 314 302
320 320 320 320 319 318 318 315 316 316 316 316 315 316 316 313 312 321 322 324 325 332 336 337 339 337 338 339 337 339 339 339 338 337 337 335 336 333 332 331 330 327 328 327 323 317 318 311 300
317 319 319 319 319 319 317 315 315 316 316 313 314 316 317 311 309 315 313 313 317 324 330 333 335 337 337 338 338 338 339 339 337 336 336 334 335 335 334 333 331 329 328 326 324 324 317 310 300
312 316 318 319 318 318 316 316 314 313 315 315 313 313 308 306 309 312 312 310 310 309 314 323 330 333 334 338 337 339 338 338 337 335 335 335 337 336 333 332 331 331 329 328 327 326 324 314 303
316 316 315 317 316 317 316 316 316 315 316 315 314 309 307 307 308 309 308 308 307 307 306 307 310 319 332 335 337 336 336 337 338 338 338 336 335 335 333 331 331 332 329 327 326 325 324 323 312
316 315 313 315 315 316 317 316 315 316 317 316 316 311 307 307 306 306 306 305 305 305 307 308 309 310 317 327 334 334 334 335 338 338 337 335 333 332 332 332 329 330 329 327 326 325 324 323 320
317 315 315 316 316 315 317 316 317 316 316 310 309 307 306 306 305 304 304 304 305 306 307 309 311 312 311 315 333 332 332 332 333 334 333 333 332 332 331 331 331 329 329 328 327 325 323 323 322
318 317 315 315 314 315 314 316 316 315 309 307 306 306 306 305 304 303 302 303 304 306 308 310 313 314 314 311 331 331 331 331 331 331 330 332 331 332 332 332 331 330 329 328 327 325 323 320 317
315 315 315 314 314 313 314 314 313 312 308 308 307 306 305 303 302 303 302 303 304 306 308 310 314 317 314 317 329 331 331 331 329 329 328 330 331 331 331 330 329 329 328 327 326 325 323 322 320
313 316 316 315 312 314 313 314 314 310 308 308 306 305 303 302 301 301 300 301 301 305 307 312 315 318 323 324 328 330 330 329 327 328 328 329 329 328 328 326 325 326 325 324 324 323 321 321 319
315 314 319 315 313 312 313 320 314 309 309 310 307 306 304 301 300 300 299 300 300 303 310 315 316 319 321 323 324 325 325 325 324 324 324 325 325 325 325 324 323 322 322 322 322 320 319 317 317
315 320 318 317 312 313 314 319 313 309 310 311 309 307 304 302 300 299 298 298 300 302 309 314 315 316 320 320 320 319 319 320 320 319 319 319 320 320 320 319 318 318 318 317 316 315 316 315 314
321 318 316 318 314 313 315 316 313 310 310 312 310 306 304 302 299 297 297 297 299 302 310 314 316 315 318 319 318 315 310 307 308 310 312 313 314 314 313 312 311 311 310 310 309 309 308 305 305
316 317 318 315 312 314 316 316 317 313 310 311 309 306 304 301 297 297 296 297 299 300 303 309 311 310 309 307 305 303 301 300 300 303 303 305 306 307 306 306 304 303 303 303 304 306 305 303 303
313 316 317 314 311 312 314 314 315 313 312 311 310 306 303 300 299 297 296 296 297 298 299 301 303 306 305 304 302 298 295 294 294 296 298 300 301 301 300 299 298 298 298 298 299 301 303 302 300
314 316 316 315 312 312 313 317 317 313 308 306 306 305 302 301 300 298 296 295 295 296 297 301 303 304 303 301 299 296 294 293 292 290 291 291 292 293 293 293 292 292 292 292 293 295 298 299 299
316 313 313 313 314 320 314 323 320 315 311 307 304 303 302 300 298 296 296 295 294 293 295 298 299 300 300 299 297 296 295 291 289 288 287 287 287 287 287 287 287 287 287 287 287 288 289 291 291
317 310 312 312 315 315 316 319 320 311 313 310 305 303 301 300 299 297 294 293 291 292 292 293 297 299 298 297 294 292 290 289 288 287 286 286 286 286 286 286 286 285 285 285 285 285 286 286 287
309 311 311 312 314 320 319 320 320 317 315 311 307 303 301 299 297 295 293 291 290 290 291 291 291 291 292 293 291 290 289 288 288 287 286 285 285 285 285 285 284 284 284 284 284 284 284 284 285
311 316 321 322 320 323 311 316 319 316 310 309 307 303 300 298 297 295 293 291 290 290 289 289 289 288 288 288 288 288 288 288 287 287 286 285 284 284 283 284 284 284 283 283 283 283 283 283 283
313 317 324 328 324 322 310 317 318 308 304 303 304 303 300 298 297 296 293 292 290 289 288 288 288 287 287 287 287 287 286 286 286 285 285 284 284 284 284 284 283 283 283 283 283 282 282 282 282
312 314 314 315 308 320 319 315 313 306 305 303 303 302 300 299 297 296 293 291 290 289 288 288 287 287 286 286 286 286 286 285 285 284 284 284 284 284 284 284 283 283 283 282 282 282 282 281 281
312 312 316 315 325 326 319 318 320 312 310 305 303 303 301 299 298 297 294 292 290 289 288 288 287 287 286 286 285 285 285 285 284 284 285 285 284 284 283 283 283 283 283 282 282 282 281 281 281
312 313 313 314 317 325 324 320 314 316 311 308 306 303 302 300 299 297 295 293 291 290 288 288 287 286 286 285 285 285 285 284 285 285 285 285 285 285 284 284 283 282 282 281 281 280 280 280 280
313 315 314 320 319 315 317 320 306 308 309 308 307 304 302 301 299 298 296 294 291 290 289 288 287 286 286 285 285 285 285 285 285 285 286 286 285 285 284 283 282 282 281 280 280 279 279 278 279

GFSSGP_925_thetae_033.txt.gz
Theta_e
318 320 322 326 328 323 322 321 320 320 320 320 320 320 319 320 320 323 326 332 333 338 343 343 342 341 338 337 336 335 334 333 332 331 332 334 334 332 340 337 337 337 337 333 326 323 321 320 320
320 319 323 326 324 321 321 320 321 320 320 320 320 320 319 319 321 325 327 329 333 336 342 344 342 342 339 338 336 336 335 334 331 329 328 328 329 337 338 335 337 337 336 335 330 326 322 319 316
320 318 326 324 322 321 321 320 321 320 319 320 319 320 320 320 322 324 328 330 334 336 341 344 342 341 340 341 337 336 336 335 334 332 331 330 330 334 334 334 337 333 331 330 328 329 325 320 312
321 323 322 323 321 320 319 319 321 320 319 319 320 319 319 322 324 327 331 331 333 337 340 344 342 341 340 339 337 335 337 337 335 334 333 335 333 330 331 334 334 331 329 324 320 326 324 316 307
319 323 322 321 320 318 319 320 320 320 318 319 318 318 320 319 325 327 328 330 332 337 338 343 340 340 341 340 337 337 337 338 337 335 333 336 333 330 331 333 334 331 329 325 320 318 318 311 303
323 322 321 321 320 318 319 319 319 318 317 317 317 317 319 318 320 327 327 332 333 337 339 341 339 339 340 339 340 339 339 338 336 336 333 336 334 330 330 331 330 330 327 325 321 314 314 308 301
322 321 321 321 320 319 319 318 318 317 317 318 317 318 318 314 316 323 323 323 325 334 338 339 339 338 338 339 339 339 339 339 337 337 336 334 335 333 331 330 330 328 327 327 325 325 313 307 300
320 320 320 320 320 320 319 317 318 318 318 316 317 318 318 313 312 319 317 317 317 318 322 326 335 338 340 341 338 337 338 339 338 337 336 334 335 334 333 332 331 330 329 328 327 326 325 312 301
317 318 319 319 319 320 318 318 317 317 317 317 316 316 312 311 313 316 317 315 314 312 312 315 319 325 334 337 338 338 338 339 339 337 335 335 337 336 335 333 331 329 329 327 326 325 324 323 312
319 318 318 319 319 319 319 318 318 317 317 317 315 312 311 311 313 314 314 314 312 311 311 311 312 316 324 332 336 336 339 339 339 339 338 337 337 336 335 332 331 330 331 328 326 325 324 321 314
318 318 316 317 318 319 319 318 318 318 318 318 318 315 312 312 311 311 311 310 309 310 311 312 312 313 315 325 334 336 334 335 337 338 338 337 336 334 333 331 330 329 329 327 326 325 323 322 319
318 316 316 318 318 318 319 319 318 318 318 315 314 313 312 311 310 309 308 308 309 310 312 313 314 315 317 316 332 333 333 333 337 336 336 335 334 332 332 331 331 330 329 328 327 326 323 321 320
318 318 318 318 317 317 317 318 318 318 314 312 310 311 311 310 308 307 307 308 309 311 312 314 315 317 319 317 328 331 332 334 333 332 330 332 333 332 332 332 331 329 328 327 327 326 324 322 321
318 317 317 317 317 316 316 317 316 317 313 312 311 311 309 308 307 308 306 307 308 310 313 313 315 319 316 321 330 332 332 330 330 328 328 329 330 331 330 330 328 328 327 326 326 325 324 322 320
316 317 317 317 317 316 315 317 315 317 312 313 312 311 308 306 306 305 304 305 306 310 311 313 314 318 323 326 328 330 330 328 327 327 327 328 328 327 327 326 325 325 324 325 324 323 322 320 319
317 317 320 319 315 314 315 321 319 313 313 313 312 311 309 305 304 304 303 304 306 310 314 315 314 318 320 322 324 323 323 324 324 323 323 322 323 324 323 322 321 321 322 320 320 319 319 317 317
319 321 322 321 316 316 316 321 316 313 314 314 313 312 309 306 304 303 302 303 306 309 311 313 313 318 320 321 321 321 319 317 315 316 316 317 318 319 319 318 316 315 315 315 314 314 314 311 310
323 322 321 321 318 315 318 318 316 313 313 315 315 312 310 307 304 302 302 303 305 308 310 311 312 315 317 319 318 317 317 316 313 309 305 308 309 309 310 309 309 308 308 307 310 310 308 306 305
320 320 321 321 316 315 319 319 319 316 314 314 315 313 310 307 303 301 301 303 305 308 307 308 309 310 310 308 305 304 302 301 299 299 300 302 303 303 303 302 303 303 302 303 304 307 306 303 303
318 319 320 321 316 314 317 318 318 318 316 315 316 314 311 306 303 301 301 303 304 307 305 304 306 307 306 306 304 302 299 297 296 294 295 296 298 297 297 297 297 297 296 296 297 300 303 302 300
318 319 320 320 316 314 316 318 319 318 317 316 313 314 311 307 304 302 301 302 303 304 305 304 304 304 304 302 300 298 296 295 294 292 291 291 292 293 293 292 291 291 290 289 290 291 293 295 296
320 319 317 317 317 322 317 324 322 321 317 314 312 311 309 306 304 302 300 301 301 301 301 301 301 302 301 300 300 299 298 294 292 290 289 289 289 289 288 288 288 288 288 288 288 289 289 290 290
319 315 317 317 318 320 321 321 322 322 321 316 312 310 308 305 303 301 300 298 297 298 299 299 298 297 298 299 298 296 293 291 290 289 288 287 287 287 287 287 287 287 286 286 286 286 287 287 288
314 316 315 316 319 324 322 323 324 322 317 318 312 309 307 304 302 300 298 296 295 295 295 296 295 295 294 294 294 294 292 291 290 289 288 288 287 286 286 286 286 285 285 285 284 284 284 285 285
315 319 326 325 324 326 316 322 323 319 313 314 312 308 306 303 302 300 297 296 295 294 294 293 293 292 292 292 293 292 291 291 290 289 288 288 287 285 285 285 285 284 284 284 284 283 283 283 284
316 320 327 331 329 326 312 319 320 316 311 308 311 308 305 302 301 299 297 296 294 293 292 291 291 291 291 291 291 290 290 290 289 288 288 287 286 285 284 284 284 284 283 283 283 283 283 283 283
316 319 319 321 314 322 321 318 317 310 308 307 309 307 304 302 301 300 297 295 293 292 291 291 291 290 290 290 289 289 288 288 287 287 287 286 285 284 284 284 284 283 283 283 283 283 282 283 283
315 316 318 318 330 329 323 322 322 314 312 308 307 306 304 302 301 300 297 295 293 292 291 291 290 289 289 289 288 288 287 287 286 286 286 285 284 284 284 284 284 284 283 283 283 282 282 282 282
313 315 316 318 321 328 327 324 319 319 315 311 308 307 305 303 302 300 297 295 293 292 291 290 290 289 288 288 287 287 286 286 286 286 285 285 285 284 284 284 284 284 284 283 282 282 281 281 281
315 317 316 321 321 319 321 324 311 317 316 312 309 308 306 304 302 301 298 296 293 292 291 290 290 289 288 288 287 286 286 286 286 285 285 285 285 285 285 285 285 284 283 282 281 280 280 280 280

GFSSGP_925_thetae_036.txt.gz
Theta_e
318 320 321 325 330 326 322 321 319 320 319 318 319 317 318 318 323 330 331 332 335 344 341 341 341 338 337 335 335 334 333 332 331 333 334 334 332 339 337 336 336 335 335 334 328 323 320 318 319
316 320 323 326 326 323 320 319 320 319 318 318 319 319 317 320 323 327 329 331 334 342 343 343 341 339 337 336 336 335 334 333 331 329 329 329 336 338 334 336 336 335 333 330 330 326 321 317 312
320 320 324 327 324 321 320 320 318 318 318 319 318 317 319 323 324 329 329 332 335 339 344 344 341 341 338 338 336 336 335 334 331 330 329 329 334 333 332 336 332 331 329 322 324 327 322 314 309
320 323 321 322 322 319 319 318 317 318 318 319 319 317 320 325 325 328 330 331 336 339 343 344 341 340 340 340 337 335 336 336 334 332 332 332 330 330 333 335 332 329 328 319 315 319 316 309 305
319 322 325 322 320 318 318 319 320 319 317 317 317 319 319 323 327 327 330 331 336 337 341 342 341 340 340 338 335 334 335 336 335 333 335 334 330 330 333 334 332 330 325 322 315 312 311 304 302
323 322 323 321 319 318 318 319 319 317 316 315 316 318 318 319 326 327 331 333 337 339 340 341 340 340 340 340 339 338 338 337 335 334 333 335 332 331 330 330 329 327 327 326 326 318 308 302 301
323 323 322 321 318 318 318 318 317 316 316 316 316 318 315 315 321 323 323 324 334 338 339 340 339 338 339 340 339 340 339 338 337 336 335 333 334 332 330 330 329 329 328 327 326 325 323 304 300
319 319 320 319 319 319 318 317 317 317 316 316 315 317 315 313 316 319 318 316 317 322 327 332 337 337 337 338 338 338 339 339 338 337 336 334 335 333 332 331 331 329 328 327 325 325 323 319 303
318 318 319 319 320 319 317 317 317 317 316 315 314 313 312 312 315 318 316 315 314 312 312 315 321 327 334 336 337 337 337 338 338 338 336 334 334 335 333 332 331 329 328 327 325 324 323 321 317
318 320 319 317 317 319 317 317 316 317 316 315 313 311 312 313 315 315 314 312 311 311 311 311 313 316 323 331 334 335 336 336 337 336 337 336 335 336 335 332 330 330 329 327 325 324 323 321 321
319 318 315 316 318 317 317 317 318 317 317 317 315 311 312 312 312 312 310 310 310 311 312 313 313 313 316 324 332 334 335 336 336 336 336 336 335 335 334 331 330 329 329 327 326 324 323 322 321
318 316 316 318 317 318 318 318 318 316 315 313 311 311 311 310 309 309 309 309 310 312 313 314 315 317 316 321 331 332 333 333 336 335 335 335 333 332 332 332 331 330 329 328 327 325 324 321 319
318 317 317 318 317 317 317 318 317 316 311 310 310 311 309 308 309 307 308 308 310 312 314 314 315 317 319 317 330 331 332 334 333 332 331 332 332 331 332 331 330 329 328 328 326 325 324 323 321
317 317 317 317 317 317 316 316 316 316 310 309 310 309 307 307 308 307 307 307 309 312 313 314 315 320 317 320 330 331 330 330 330 328 327 328 329 329 327 327 328 328 327 326 325 325 324 322 321
316 316 316 315 316 316 315 315 315 314 311 310 310 308 307 306 306 305 305 306 309 312 314 314 316 320 322 325 329 328 328 327 326 326 325 326 326 326 326 327 326 325 324 323 323 323 321 320 320
316 317 318 317 316 313 315 318 316 312 311 311 310 307 306 305 305 304 304 305 309 312 314 314 316 317 321 324 325 326 326 325 325 324 323 323 323 323 323 323 321 320 321 320 319 319 317 315 314
317 318 319 318 315 314 314 319 314 312 311 311 309 308 307 304 304 303 303 305 309 312 314 315 316 317 319 320 320 319 320 321 320 320 321 319 319 319 318 316 313 312 313 312 312 310 308 308 308
321 319 320 320 315 315 315 314 314 311 311 311 310 308 307 305 304 303 303 304 309 311 314 313 314 315 316 317 316 315 313 311 312 311 310 309 309 309 309 309 310 309 308 309 308 307 306 303 304
318 318 319 319 314 316 316 316 316 312 311 311 310 309 307 306 303 302 303 305 309 310 311 312 313 312 313 310 309 309 305 305 306 306 305 306 306 306 306 304 303 304 303 303 306 304 302 296 300
318 318 317 318 314 315 315 315 315 315 312 311 311 310 308 303 301 302 302 305 308 309 308 309 310 309 308 307 303 302 300 299 298 298 299 300 301 300 300 299 296 294 294 293 296 298 296 294 294
318 318 317 319 316 314 313 314 315 315 315 312 311 311 309 303 301 300 302 304 306 307 307 307 307 306 306 305 303 300 297 294 294 293 293 292 293 294 293 292 291 290 290 289 289 290 290 291 290
318 317 317 318 317 318 314 319 319 318 317 315 311 309 306 303 301 300 301 303 305 305 305 305 304 304 304 303 301 298 296 293 291 290 290 290 290 290 289 289 289 289 288 288 288 287 288 288 288
318 315 317 318 318 319 318 319 319 318 318 316 310 308 306 303 301 299 300 302 301 302 302 302 302 301 301 301 300 298 294 291 290 289 289 288 288 288 288 288 288 288 287 287 287 286 286 286 287
314 316 316 316 318 321 320 321 320 320 319 317 311 308 305 302 300 299 300 298 298 299 299 299 299 298 299 299 298 296 293 290 289 288 288 287 287 287 287 287 287 287 286 286 285 285 285 285 285
315 318 323 322 319 322 316 320 321 317 314 315 312 308 305 302 299 298 296 296 296 296 297 296 296 296 296 296 295 294 292 291 289 289 288 287 287 286 286 286 286 285 285 284 284 284 284 284 284
314 318 323 327 326 323 311 317 318 312 309 308 309 307 304 301 299 297 296 295 295 295 295 294 294 293 293 293 293 292 291 290 289 289 288 287 287 286 285 285 285 284 284 284 284 284 283 283 283
315 317 318 319 309 315 319 315 315 309 308 308 307 305 303 301 299 297 296 295 294 294 293 293 292 292 292 292 291 291 290 290 289 288 288 287 286 285 285 285 285 284 284 284 284 283 283 282 282
315 314 317 316 318 321 322 320 319 312 310 306 307 305 303 301 299 298 296 295 293 293 292 292 291 291 291 290 290 289 289 289 288 288 287 286 285 285 285 284 284 284 284 284 284 283 283 282 282
313 314 316 317 318 322 322 321 317 315 312 308 307 305 303 301 300 298 296 295 293 292 292 291 291 290 290 289 289 288 288 288 287 287 286 286 285 285 285 284 284 285 285 285 284 284 283 282 281
314 315 315 318 319 317 317 322 313 314 312 308 307 306 303 301 300 298 296 294 293 292 291 291 290 290 289 289 288 288 287 287 287 286 286 285 285 285 284 284 285 285 285 285 284 283 282 281 281

GFSSGP_925_thetae_039.txt.gz
Theta_e
314 319 320 323 322 314 318 318 315 317 317 316 315 319 320 320 325 328 331 335 343 340 337 340 338 337 335 334 335 334 334 336 335 334 332 333 338 337 336 336 334 332 330 331 327 321 317 314 316
318 320 322 317 319 314 314 315 316 316 316 314 314 315 317 325 324 326 329 332 343 341 338 340 339 336 336 335 335 335 332 330 330 329 330 337 337 334 336 335 331 328 326 329 327 323 317 312 310
320 320 316 319 314 315 315 315 314 316 316 317 316 315 319 323 325 329 330 334 343 342 339 341 340 336 335 335 335 334 333 332 330 329 330 335 333 332 335 332 329 327 320 316 320 317 312 308 306
318 319 314 315 316 314 315 312 314 315 317 316 314 319 319 325 326 330 330 335 342 343 342 340 340 339 338 337 335 334 335 333 331 331 331 330 331 334 334 331 329 324 321 313 311 310 306 304 304
319 313 317 316 315 316 315 313 312 315 315 316 315 318 320 325 327 330 333 336 338 342 343 342 340 339 339 339 334 334 336 335 333 334 334 331 329 332 334 331 328 326 327 326 319 307 302 301 303
317 313 316 315 315 316 316 317 317 313 311 313 315 315 317 324 327 332 335 338 338 341 341 341 340 339 339 337 335 336 336 335 333 332 334 332 331 331 330 329 328 328 327 325 324 322 303 300 302
318 314 317 316 314 316 316 316 315 312 313 315 313 315 314 317 323 325 331 337 337 339 339 338 339 339 340 339 338 339 338 337 335 335 333 334 331 330 330 329 329 328 326 325 324 323 318 301 300
312 311 315 314 314 316 314 315 315 314 315 313 313 313 312 312 319 319 318 322 334 337 337 336 336 336 336 339 338 339 339 338 337 336 335 333 333 331 331 331 329 328 326 325 324 323 322 319 306
313 311 313 315 316 316 313 315 315 314 313 312 310 310 311 313 318 316 314 313 312 314 320 329 334 334 335 335 336 336 338 338 337 337 336 334 334 333 332 330 329 327 326 324 323 323 322 321 320
312 312 316 315 314 315 314 314 314 315 313 312 309 309 311 313 316 314 311 310 311 311 311 312 318 324 332 334 335 335 334 336 337 337 336 335 334 334 332 331 329 328 326 325 323 323 322 322 321
315 313 313 315 317 315 315 316 315 315 314 312 311 309 310 310 309 309 309 310 310 312 312 312 312 314 322 330 333 333 334 336 337 337 336 336 335 335 333 331 329 329 327 326 325 323 322 320 320
314 314 315 317 316 316 316 316 316 315 314 310 307 308 308 307 307 308 308 309 311 312 313 313 313 315 316 326 332 332 334 335 335 336 335 335 334 334 332 331 330 329 328 327 327 325 323 323 319
316 315 316 315 315 315 316 316 316 313 308 308 308 308 306 306 306 308 308 309 311 312 313 313 314 316 317 325 331 331 333 334 334 333 333 333 332 332 331 330 328 327 327 326 326 325 325 323 321
315 314 315 315 316 315 315 314 315 312 306 307 307 305 304 306 306 306 307 308 310 312 313 314 317 319 318 322 330 330 333 330 329 330 330 329 330 329 327 326 324 325 325 325 326 324 324 322 320
315 314 313 313 314 314 314 313 313 310 306 307 306 304 303 305 306 305 306 307 310 312 314 315 317 318 320 326 328 329 327 328 327 326 325 327 326 325 324 324 324 325 325 325 323 321 320 320 319
314 314 315 315 312 313 313 314 316 308 307 307 305 303 303 303 304 304 305 306 310 312 314 314 316 318 321 324 325 324 324 323 323 323 322 322 323 323 322 322 321 319 319 319 318 315 315 314 312
314 314 315 316 313 312 313 314 313 309 309 307 305 303 303 302 302 303 304 306 310 313 313 314 315 317 320 321 322 320 319 319 320 321 320 318 318 317 317 315 313 313 312 311 309 309 308 307 307
316 316 316 317 314 313 312 311 311 310 309 308 305 304 303 302 301 303 304 307 310 313 313 315 316 316 318 319 318 317 316 315 315 316 316 313 312 314 315 313 311 311 311 308 308 305 299 303 306
315 316 317 315 314 314 312 312 312 310 308 307 306 305 304 302 301 302 303 307 310 312 313 315 315 314 315 315 314 312 309 308 309 310 309 309 308 308 309 308 307 307 308 306 302 297 295 295 303
314 315 315 314 313 312 313 313 312 312 309 309 309 307 306 300 299 301 303 307 309 310 311 313 313 314 312 312 310 309 307 303 304 303 304 305 305 305 304 301 298 297 300 298 293 293 292 291 294
316 316 315 316 314 313 312 312 312 311 311 309 309 309 307 302 300 299 302 306 308 308 310 312 311 308 307 309 308 303 300 298 298 298 298 298 298 297 295 293 292 291 291 291 290 290 291 290 290
316 315 315 316 316 316 313 318 315 315 314 311 310 306 307 301 300 300 301 304 307 308 309 311 309 307 307 307 306 305 302 296 293 294 292 292 292 291 291 291 291 290 290 289 289 289 289 289 288
315 315 316 315 315 317 316 316 316 315 316 316 312 308 305 301 300 299 300 303 306 306 307 308 306 306 306 306 305 303 298 295 291 290 290 289 289 289 289 289 289 289 289 288 287 287 287 287 287
311 314 314 314 315 318 316 317 317 318 317 316 311 305 303 300 299 298 300 303 304 304 304 304 305 304 304 302 300 300 297 291 289 289 289 288 288 288 288 288 288 288 287 287 286 286 285 285 285
314 315 319 320 317 322 315 317 319 316 313 313 312 306 302 300 298 297 297 298 300 301 301 303 303 301 300 300 298 298 295 291 290 289 288 287 287 287 286 287 287 287 286 286 285 285 285 284 284
313 315 319 323 321 319 312 316 317 314 310 308 309 307 301 299 298 297 296 296 297 299 300 300 300 298 297 298 297 295 293 291 290 289 288 288 287 287 286 286 286 286 286 285 285 285 284 284 284
313 316 317 318 302 312 316 314 312 309 308 308 306 304 302 300 298 296 295 295 295 297 298 298 297 296 296 296 294 292 291 291 290 289 288 287 287 286 286 286 286 285 285 285 285 285 284 284 283
314 312 318 315 316 317 318 317 320 313 311 306 306 305 302 300 297 295 294 294 295 296 296 296 296 294 294 294 292 292 291 290 290 289 288 287 286 286 286 286 285 285 285 285 285 285 284 283 283
313 314 315 317 316 319 318 319 313 315 312 308 306 305 303 300 298 296 295 293 294 295 294 294 293 293 292 292 291 291 290 290 289 289 288 287 286 286 286 285 285 285 285 285 285 285 284 283 282
314 314 313 318 318 314 315 321 311 313 310 307 306 305 303 301 299 296 295 293 292 292 292 292 292 291 291 291 290 290 290 289 289 288 287 286 286 285 285 285 285 285 285 285 285 285 284 283 283

GFSSGP_925_thetae_042.txt.gz
Theta_e
316 320 321 322 318 313 315 316 315 316 315 315 318 320 319 320 323 323 331 338 339 336 337 336 335 334 335 336 338 338 337 335 333 330 336 337 336 336 335 331 326 328 331 330 326 319 314 313 319
319 320 322 313 312 313 313 314 316 316 314 313 314 315 320 327 324 327 329 341 341 337 338 337 335 334 334 334 333 331 329 328 328 333 337 337 335 336 332 327 323 323 328 327 323 316 310 308 312
320 320 315 313 310 313 314 314 314 314 311 314 314 316 320 323 326 327 331 341 341 338 339 338 336 335 334 334 333 332 331 329 329 334 336 335 333 334 330 327 322 320 318 320 319 315 308 306 312
318 317 311 311 315 314 314 313 313 315 315 313 315 318 321 324 326 329 330 340 341 339 340 339 337 335 335 334 334 333 332 330 329 331 334 334 333 333 330 326 326 326 324 315 306 302 303 305 314
317 311 314 312 315 316 313 311 311 315 314 313 315 317 324 325 330 332 338 342 341 340 340 340 339 337 337 335 333 334 334 332 331 333 331 331 333 333 329 327 327 325 324 323 315 301 301 305 313
314 310 313 314 313 315 315 312 312 312 311 314 314 315 316 324 332 335 337 341 341 339 339 340 339 338 338 336 333 334 334 333 332 333 332 329 331 331 327 329 327 326 325 323 322 315 301 302 308
313 311 314 313 313 315 316 313 310 310 312 314 312 315 314 320 330 336 337 339 341 341 341 341 339 339 338 336 336 337 336 335 334 333 333 331 330 329 329 329 327 326 324 323 322 321 318 303 301
309 309 314 312 312 314 314 314 311 312 314 311 311 312 313 314 322 328 335 335 339 339 338 339 338 339 339 339 338 338 338 337 335 335 333 333 331 330 330 329 327 326 324 323 322 322 321 320 315
308 308 311 315 313 315 313 314 314 312 311 310 308 309 310 318 318 317 319 327 331 334 335 335 336 335 335 336 337 337 338 337 337 336 335 333 332 331 330 329 328 326 324 323 322 322 321 320 318
310 309 314 314 313 313 312 313 313 313 311 310 309 308 311 316 314 313 311 311 312 315 323 331 334 334 334 334 334 334 334 337 337 336 335 334 333 332 330 330 328 327 324 323 322 321 321 320 319
312 311 312 314 316 313 313 314 313 310 312 310 309 308 308 311 313 311 309 310 311 311 312 312 317 324 333 333 333 333 333 334 336 337 336 335 334 333 331 330 329 328 325 323 322 320 319 318 316
312 313 314 315 314 315 314 314 314 312 313 311 307 307 307 306 307 308 309 309 311 312 312 312 312 313 319 330 333 333 332 333 335 336 335 335 334 334 331 330 329 327 326 326 325 323 320 318 316
314 314 314 315 314 314 315 315 314 313 309 306 306 307 305 305 306 307 308 309 311 312 312 313 313 315 316 326 331 330 331 332 335 335 335 333 335 332 330 329 327 328 325 324 324 323 322 320 317
314 314 314 314 314 314 314 314 314 312 306 306 306 305 304 304 305 306 308 309 310 311 312 313 314 315 316 323 329 329 330 331 333 333 332 333 333 331 330 328 326 324 325 323 325 323 322 320 317
313 312 311 312 313 314 312 313 312 309 305 306 305 304 303 304 305 306 307 308 309 311 312 314 316 319 318 325 327 329 329 328 329 330 330 331 330 328 327 325 324 324 323 323 323 321 320 319 317
313 312 314 313 311 312 312 313 313 306 306 306 304 302 302 302 305 305 306 307 310 311 313 314 315 319 322 325 325 326 327 327 327 325 326 326 325 325 323 322 321 321 321 321 319 317 317 313 309
311 314 313 313 311 312 311 314 312 305 306 306 304 302 302 301 302 304 305 306 310 312 313 314 316 319 322 323 323 322 322 322 322 321 321 320 320 320 321 319 316 317 316 315 314 312 309 308 308
314 313 313 315 314 312 312 310 310 308 307 307 304 302 302 301 301 303 304 306 309 313 313 314 316 317 320 320 320 319 319 320 320 320 319 318 318 317 317 315 314 313 312 309 303 302 306 307 307
313 313 316 314 314 313 311 311 311 308 307 306 304 303 303 302 301 303 303 306 309 312 313 314 315 316 317 316 314 314 314 312 314 315 317 314 313 313 313 312 311 310 309 301 295 297 305 304 303
313 314 313 312 313 311 312 311 310 310 309 308 308 305 305 301 298 300 303 307 309 311 312 313 314 315 316 316 314 313 309 307 308 308 309 309 309 308 308 308 308 306 301 295 294 294 295 298 302
314 313 314 315 313 312 311 311 311 311 309 308 307 308 306 304 301 299 301 306 308 310 311 312 313 314 312 313 311 308 305 303 302 304 305 305 306 304 301 299 299 295 293 293 293 293 293 290 290
315 313 314 315 315 315 312 317 313 312 311 310 310 307 307 303 301 300 301 304 307 310 311 312 312 311 311 311 311 311 307 299 298 300 301 301 299 295 293 292 292 292 292 291 291 291 291 291 289
315 313 314 314 313 315 314 314 313 313 313 313 314 309 305 303 301 300 301 303 306 309 310 311 310 309 308 309 310 308 304 302 298 296 294 293 291 291 291 291 291 291 290 290 289 289 289 289 288
311 313 313 312 313 317 315 315 315 315 316 314 312 309 305 302 300 300 301 302 305 308 309 309 308 306 305 305 306 306 305 299 293 291 290 289 289 289 289 289 289 289 289 288 288 288 288 287 287
313 313 316 319 316 320 314 315 317 314 313 313 314 310 303 300 299 298 299 301 303 305 306 308 306 304 304 303 304 303 303 300 296 291 289 288 288 288 288 288 288 288 288 287 287 287 286 285 286
313 313 316 319 319 317 312 317 317 312 312 309 307 306 301 298 298 298 299 301 301 302 304 304 304 303 302 302 301 301 301 297 293 290 289 288 288 288 287 287 287 287 287 286 286 286 286 285 285
312 316 314 317 299 311 316 314 313 310 309 308 306 305 300 298 297 297 298 299 300 300 302 303 303 303 301 301 299 298 297 294 291 289 288 288 288 287 287 287 287 287 286 286 286 286 286 285 284
312 311 316 313 316 316 318 316 319 314 312 310 308 305 301 298 296 296 296 297 298 299 300 301 302 301 301 300 298 297 295 292 290 289 288 287 287 287 286 286 287 286 286 285 286 286 285 285 284
313 314 315 315 314 317 315 318 311 315 312 311 309 305 302 299 297 295 295 295 296 297 299 300 300 299 297 297 296 295 293 291 289 288 288 287 287 286 286 286 286 286 286 285 285 285 285 285 285
312 314 314 317 316 313 315 321 310 311 311 309 308 305 302 300 297 296 294 293 293 295 296 296 296 296 295 295 294 293 291 290 289 288 288 287 287 286 286 286 286 286 285 285 285 286 285 285 285

GFSSGP_925_thetae_045.txt.gz
Theta_e
318 320 321 320 314 311 313 315 313 315 316 316 318 317 316 321 321 317 329 336 338 336 336 335 333 332 333 337 336 338 337 331 335 337 337 336 336 334 329 326 329 331 329 327 323 319 315 321 328
319 320 321 310 311 313 313 313 315 315 316 314 313 317 322 327 324 327 333 339 338 336 337 335 333 333 334 334 334 332 330 330 336 336 335 334 334 332 325 323 322 324 322 321 318 314 310 320 326
319 318 313 310 309 312 314 314 313 314 314 313 317 316 320 324 325 327 331 340 337 336 337 336 334 334 333 333 331 330 329 331 335 335 334 334 334 328 323 325 323 318 313 312 308 306 308 321 324
318 315 308 310 315 313 314 313 311 313 313 314 316 320 321 323 324 328 335 341 338 338 338 336 335 334 334 333 332 331 329 328 331 333 331 332 331 327 327 327 325 323 319 304 302 304 308 319 322
315 309 311 312 314 314 312 311 309 313 313 313 314 319 325 326 330 329 335 341 339 339 339 337 335 335 334 334 333 333 331 329 329 331 330 332 330 327 328 326 324 323 322 314 302 303 309 313 317
312 308 311 312 313 314 313 311 311 312 312 313 315 318 320 327 332 336 338 341 338 338 339 339 337 336 335 334 333 334 332 331 332 331 328 331 331 327 328 326 325 324 322 321 315 302 303 307 309
312 310 313 311 312 315 314 309 309 309 311 313 312 316 316 322 333 338 341 341 339 337 337 339 338 338 338 334 332 334 334 332 332 332 330 331 330 328 329 327 325 323 322 321 321 317 306 302 302
306 308 311 310 311 314 313 312 308 310 312 309 310 313 321 317 331 336 340 341 341 340 340 340 339 338 337 336 334 336 335 334 333 332 332 331 329 329 329 326 325 323 322 322 321 320 318 310 304
306 307 310 311 310 314 312 313 312 309 310 309 308 309 310 323 327 331 335 337 340 339 339 339 337 337 338 337 337 337 337 336 335 334 333 331 330 329 329 327 326 323 322 320 319 319 318 316 311
308 307 312 311 310 313 312 312 311 312 311 310 309 308 312 319 317 322 323 326 330 332 334 335 336 335 335 335 335 335 335 336 336 335 334 333 331 330 330 329 327 324 322 321 318 318 317 315 312
308 310 310 313 314 312 311 312 311 309 311 309 309 308 310 312 312 313 315 322 325 326 328 331 333 334 333 332 333 334 334 335 336 336 334 334 332 331 330 329 327 326 324 321 320 318 317 315 314
311 312 312 314 313 312 313 311 312 309 311 309 307 307 307 309 309 310 310 310 311 312 313 316 323 329 331 333 330 332 333 333 335 335 335 335 333 331 331 329 328 327 326 324 321 320 318 316 314
312 313 313 314 313 313 314 314 312 312 310 306 305 306 305 307 309 310 311 310 310 311 311 312 312 312 317 327 330 330 330 330 330 332 334 335 334 333 330 329 328 326 325 323 322 321 319 316 314
313 313 313 313 313 313 314 313 313 312 306 305 305 305 304 305 307 308 308 309 310 311 311 312 312 313 314 320 330 329 328 330 332 333 334 333 333 333 330 329 327 326 324 322 321 320 318 316 316
312 312 310 310 313 313 312 312 311 310 306 306 305 304 303 304 306 306 308 308 309 310 311 312 313 314 316 318 328 327 328 330 331 333 333 332 334 331 330 327 326 324 323 322 320 319 318 316 314
312 310 313 312 311 312 311 311 310 306 306 306 304 303 302 302 304 306 307 308 308 310 311 312 314 316 317 321 326 325 327 329 330 330 331 331 331 330 328 325 323 322 322 320 318 317 315 311 310
309 313 312 312 310 311 311 312 311 306 305 306 304 302 302 301 302 305 306 307 307 309 311 313 315 315 320 323 325 324 325 327 326 326 328 328 327 326 325 322 320 319 318 318 316 312 311 308 304
313 313 311 313 313 311 312 310 309 308 305 306 304 302 301 302 302 305 305 305 307 310 312 313 315 317 319 322 323 322 323 323 323 323 323 323 324 322 321 319 317 317 316 312 309 308 307 305 302
311 312 313 313 313 313 311 310 310 308 306 305 305 303 303 303 304 304 304 304 306 310 312 313 315 317 318 319 319 317 319 318 320 320 320 319 318 319 319 318 315 312 310 302 305 307 306 301 300
312 314 312 311 311 311 311 311 310 308 307 307 307 306 305 304 299 301 302 303 306 309 312 313 314 315 316 317 317 316 316 314 316 315 317 316 315 314 315 314 312 309 300 297 304 306 302 300 300
312 312 312 314 312 310 310 311 310 310 308 307 306 308 308 306 303 300 299 302 306 308 311 312 313 314 315 313 314 313 311 307 308 308 311 310 310 310 310 310 308 301 295 294 296 303 303 298 297
314 311 312 313 314 315 311 316 312 311 311 308 309 308 307 305 303 301 300 301 304 307 310 312 312 313 311 312 312 313 308 303 304 307 308 306 305 305 305 306 301 294 293 293 293 292 293 292 290
314 311 312 313 313 314 313 313 314 312 313 312 312 310 307 304 303 301 300 302 304 306 310 311 311 311 311 311 311 311 308 308 306 304 304 301 298 297 298 295 292 293 293 292 292 291 291 291 290
310 312 311 311 312 316 315 314 314 313 314 313 311 310 308 304 300 300 301 301 303 305 309 310 310 309 310 309 309 308 309 305 300 299 299 294 292 291 291 291 292 292 292 291 291 290 290 290 289
312 313 316 316 315 318 312 313 316 312 311 312 313 310 307 303 299 298 297 300 302 304 307 309 309 308 307 307 308 307 306 307 305 301 297 291 289 289 289 290 290 290 290 290 290 289 289 288 288
312 313 316 317 316 314 312 316 316 310 310 309 308 308 306 301 297 298 298 300 302 303 305 307 306 305 305 305 305 306 305 304 302 300 296 291 290 289 289 289 289 289 289 289 289 288 288 287 287
312 314 313 315 299 311 314 313 311 310 309 308 308 306 304 301 297 296 297 300 301 302 304 306 305 303 303 303 303 303 301 301 300 296 293 291 289 289 288 288 288 288 288 288 288 288 287 287 286
311 311 315 312 313 313 315 315 317 316 313 311 309 308 304 299 296 295 296 299 300 301 303 304 305 304 305 303 304 303 301 300 299 295 291 289 288 288 287 287 287 287 287 287 287 287 286 286 285
312 313 313 313 312 316 314 317 310 315 312 312 310 309 305 300 296 295 295 298 299 301 301 302 303 303 303 302 301 300 299 298 296 293 290 289 288 287 287 287 287 287 287 287 287 287 286 286 285
310 313 313 314 314 312 313 318 310 310 310 309 309 308 305 300 297 295 294 295 296 298 299 299 300 301 301 300 299 298 298 296 293 290 289 288 288 287 287 286 286 287 286 286 286 287 286 285 285

GFSSGP_925_thetae_048.txt.gz
Theta_e
317 319 321 316 313 310 313 314 312 313 316 316 316 313 315 321 318 314 328 338 337 335 336 336 336 331 332 333 338 336 336 337 338 337 336 334 328 320 314 317 320 323 324 323 323 327 327 332 333
318 319 319 307 311 312 312 311 313 313 318 315 314 317 322 327 323 327 334 336 337 336 336 335 332 333 335 337 337 333 329 336 336 336 335 330 323 321 318 312 309 315 319 321 323 326 328 332 330
318 317 312 308 307 311 313 312 312 314 314 312 317 317 320 325 324 326 331 337 337 337 336 334 333 334 334 333 330 329 333 335 334 336 335 333 325 326 325 324 320 316 315 315 322 324 325 329 327
317 313 305 310 314 312 313 312 311 314 313 313 317 322 320 322 322 327 339 338 337 337 336 334 333 333 333 332 330 329 330 335 335 336 336 334 327 328 325 324 322 316 312 313 318 319 321 323 323
314 307 310 311 313 313 311 310 309 313 312 314 313 319 324 325 328 328 339 338 337 338 337 335 334 334 333 332 331 330 329 331 335 335 337 334 327 327 325 324 322 319 312 314 317 317 316 317 316
311 307 310 312 313 313 312 309 310 311 311 313 317 321 321 324 330 330 339 339 338 337 338 336 335 334 334 333 333 332 330 332 333 332 334 331 327 328 326 324 322 321 319 311 309 311 309 308 307
311 309 311 310 312 314 313 307 309 309 311 312 313 317 316 320 332 335 340 339 339 338 338 337 335 335 335 333 333 333 332 332 334 332 332 331 328 328 326 324 323 322 321 318 314 307 303 302 302
305 307 309 309 311 315 311 309 308 310 311 309 310 314 320 319 333 336 340 340 339 339 339 338 337 337 337 334 333 333 334 332 332 332 331 331 328 328 326 324 322 321 320 318 316 312 310 306 303
304 307 309 310 310 312 310 312 308 308 309 309 308 310 310 324 331 335 338 338 339 339 339 339 337 338 337 336 334 335 335 334 333 332 331 330 329 329 327 325 323 322 321 319 317 314 311 309 307
305 306 310 308 307 313 310 311 309 311 310 310 309 307 311 325 326 329 331 334 337 338 339 340 336 335 335 335 335 334 335 335 335 334 332 331 330 329 328 327 324 322 321 319 317 315 313 312 311
307 307 309 312 313 311 310 311 309 309 311 308 309 308 312 316 320 324 329 333 336 336 336 336 336 333 334 333 333 333 334 335 335 335 333 332 331 330 330 328 326 324 322 320 318 315 314 313 313
311 310 310 313 312 310 311 309 311 308 310 309 306 307 310 310 312 318 323 327 329 330 331 332 332 333 333 333 332 332 332 332 334 333 335 333 331 330 330 329 327 325 324 321 317 316 314 312 311
311 311 312 313 312 312 312 312 311 310 307 307 305 308 309 310 311 313 316 318 321 321 323 325 327 330 331 332 331 329 330 331 331 331 331 333 333 331 330 329 327 326 324 323 319 317 315 313 311
312 313 312 312 313 312 314 313 313 311 306 307 305 305 307 308 310 310 310 310 310 311 311 312 312 313 317 324 330 328 328 329 329 329 330 332 333 332 331 328 327 325 324 322 320 317 316 312 311
311 312 310 309 312 313 311 311 311 309 307 308 305 303 303 304 308 310 311 310 310 310 311 311 311 312 312 314 321 329 327 327 328 328 328 332 331 333 331 328 327 325 323 321 319 315 315 313 307
311 309 312 311 311 311 310 310 308 306 306 307 304 302 302 303 305 309 311 310 310 309 310 310 311 312 313 316 318 327 326 327 327 328 332 333 330 331 330 327 326 323 322 321 318 315 312 308 304
308 312 312 311 309 311 309 311 310 306 305 306 304 303 302 301 303 306 308 308 308 309 309 310 311 313 315 318 322 325 325 327 328 329 332 331 332 331 329 327 324 322 320 318 316 312 311 304 298
312 312 311 312 312 310 311 308 308 307 306 305 304 303 302 302 303 306 307 307 307 307 309 310 312 314 314 315 321 323 323 324 326 328 330 330 330 327 325 323 321 319 317 316 312 310 305 301 297
309 311 312 311 311 312 310 309 309 308 305 305 304 303 303 303 305 305 306 306 305 306 308 310 312 313 314 315 318 319 321 322 323 323 325 326 326 325 323 321 319 316 315 313 309 306 304 298 296
312 313 312 310 310 311 310 311 310 308 306 306 308 306 305 304 301 302 304 305 304 306 308 310 312 313 313 315 317 318 319 318 320 320 320 320 321 321 320 318 316 314 310 306 307 306 300 296 298
311 311 311 313 311 309 309 310 309 309 307 306 305 307 307 306 306 301 300 302 303 305 307 309 311 313 313 315 316 315 316 313 313 314 317 317 318 318 318 317 314 308 304 305 307 306 304 299 299
313 310 311 312 313 314 310 314 310 310 310 308 309 306 306 306 304 302 300 300 302 304 306 308 311 312 313 313 315 316 315 308 310 314 315 315 314 314 313 312 309 301 299 304 305 304 303 302 298
313 310 311 312 312 312 312 313 313 311 312 311 312 309 306 306 303 302 300 301 302 303 305 307 310 311 312 313 313 314 313 313 313 310 311 312 310 308 309 308 303 294 294 297 300 299 295 296 293
309 311 310 310 311 315 312 313 312 311 312 311 311 310 308 305 302 300 301 301 301 303 304 306 309 310 311 311 311 312 312 310 307 304 305 307 306 303 304 304 297 293 293 292 292 292 291 292 291
311 313 315 313 313 317 310 312 315 311 310 309 310 309 307 305 302 299 297 298 301 302 304 305 308 308 309 310 309 309 310 310 310 306 306 303 300 298 299 293 291 292 292 292 292 292 291 291 290
311 313 314 313 313 312 310 315 314 310 308 307 306 306 305 304 301 299 297 298 300 302 303 304 306 307 308 308 307 307 308 308 306 308 306 305 304 297 293 291 291 291 291 291 291 291 290 289 289
311 314 312 313 297 310 311 310 309 309 309 308 307 306 306 303 302 299 296 298 300 301 302 304 305 306 307 307 306 306 306 305 304 304 304 301 300 294 290 290 290 290 290 290 290 290 289 288 288
311 310 314 311 314 312 312 312 314 313 312 310 308 308 307 304 301 297 295 297 299 301 302 303 305 305 306 305 305 305 303 302 302 303 302 300 295 291 289 289 289 289 289 289 289 289 288 288 287
312 313 312 312 311 313 312 314 308 311 310 310 310 308 307 305 301 298 295 297 299 301 301 302 304 305 304 304 303 302 301 300 302 302 301 299 293 289 289 288 288 288 288 288 288 288 287 287 286
309 311 311 313 312 310 311 316 309 309 310 308 308 307 307 303 301 297 295 296 297 299 300 301 302 303 303 304 303 301 300 299 300 299 298 296 291 288 288 287 287 287 287 287 287 287 287 287 286

GFSSGP_925_thetae_051.txt.gz
Theta_e
317 319 321 316 318 316 315 315 312 313 315 315 312 314 316 320 317 317 328 338 336 336 337 335 336 331 332 334 335 337 338 336 337 331 325 324 326 328 328 327 327 326 327 329 331 334 332 334 334
318 319 317 309 316 316 316 311 313 312 318 317 315 319 322 327 324 327 335 337 336 336 336 336 332 331 332 337 333 335 337 336 336 334 327 328 329 326 324 323 323 324 326 328 330 332 331 331 329
319 317 316 311 310 314 315 311 312 315 316 311 318 318 321 326 324 327 329 337 336 336 336 333 332 333 337 336 330 331 336 335 335 335 331 331 326 325 322 319 320 321 324 326 328 331 330 329 327
318 313 308 313 314 312 313 312 311 316 314 312 317 322 320 322 324 328 338 336 336 336 334 333 334 334 334 331 329 334 334 334 334 335 332 330 327 325 323 320 318 319 322 323 326 327 324 321 318
313 309 313 313 312 312 309 310 313 315 311 314 313 319 323 323 326 332 338 337 336 336 335 334 334 333 332 330 329 330 334 334 333 335 331 329 327 325 324 322 318 317 319 320 320 318 313 312 312
313 308 313 314 312 312 310 308 311 311 310 313 317 321 321 322 328 330 338 337 336 336 335 334 334 333 333 332 331 330 332 333 333 333 332 330 329 326 326 325 321 318 316 315 309 305 305 304 303
313 312 312 311 312 313 312 307 309 310 311 313 316 320 317 320 329 331 340 338 337 337 336 335 334 334 334 333 333 332 333 334 332 333 331 329 327 324 324 323 322 320 318 316 313 305 303 302 301
306 308 310 309 312 314 310 308 308 310 311 309 311 315 318 321 330 333 339 338 339 339 337 336 335 335 334 333 333 333 332 333 333 332 332 328 327 325 323 322 321 320 318 315 311 307 304 302 301
303 310 311 311 311 313 307 310 306 307 309 309 308 310 312 322 331 335 336 337 338 339 338 337 336 336 336 334 332 333 333 332 332 331 331 328 328 326 324 322 321 320 318 315 311 309 308 308 308
305 308 310 308 307 311 309 310 308 310 310 310 309 307 309 324 329 330 331 332 336 338 338 338 335 335 334 334 334 333 334 333 333 332 331 329 329 328 326 323 322 320 319 317 314 311 310 311 310
306 307 308 310 310 310 310 310 307 309 311 310 310 309 312 320 324 329 332 335 336 336 336 336 335 334 334 333 333 333 333 334 334 334 332 331 329 329 328 326 323 322 319 318 315 313 312 311 311
311 309 309 311 311 310 309 308 309 308 311 309 307 307 312 317 320 325 329 334 335 334 336 336 337 333 333 333 332 332 332 334 334 334 333 332 330 330 329 327 324 323 320 318 316 314 312 311 310
310 310 311 312 311 311 310 311 310 308 306 307 305 308 312 316 319 322 328 331 332 332 333 333 332 333 332 332 332 331 331 330 331 332 332 333 331 330 330 328 326 324 322 320 317 314 313 310 309
311 311 311 311 312 311 312 312 312 311 306 307 306 307 310 313 315 316 320 325 325 328 329 329 329 329 330 331 332 332 330 329 329 331 331 332 332 331 330 329 326 324 323 321 319 315 312 310 308
309 312 310 309 311 312 311 311 311 309 307 308 306 305 305 309 311 313 317 317 319 320 322 322 321 319 320 325 328 331 327 328 328 328 329 329 332 332 331 329 326 323 322 320 318 314 311 309 304
310 308 312 310 310 310 310 311 309 306 307 309 307 304 303 304 307 311 314 314 313 311 311 311 311 311 311 312 313 320 328 327 326 327 327 326 330 331 331 329 325 322 321 319 317 314 309 305 302
308 310 311 311 309 310 309 311 309 307 306 307 305 305 303 303 303 307 311 312 312 311 310 310 311 311 311 311 313 315 327 326 325 326 326 328 332 331 331 328 326 322 320 318 317 313 310 302 295
310 312 311 311 311 310 310 309 308 306 307 307 306 305 304 304 305 306 308 309 311 310 310 309 310 310 312 312 317 316 325 324 325 326 328 329 332 331 330 327 324 322 319 317 314 312 303 299 292
308 310 311 309 310 311 310 309 309 309 306 306 307 306 306 305 306 306 307 308 308 307 308 308 309 310 312 311 316 318 321 322 324 326 328 329 330 330 329 325 323 320 319 317 313 309 302 292 292
310 312 311 309 309 310 310 311 310 308 310 309 310 309 307 307 304 304 305 306 306 307 307 307 309 310 313 313 314 316 318 319 322 324 326 326 327 326 326 324 320 318 317 314 311 307 295 291 293
310 310 311 312 310 308 308 310 310 309 307 306 306 308 308 308 308 305 301 303 304 305 306 307 308 310 312 312 313 315 316 316 317 320 322 323 324 323 323 320 319 318 316 313 309 306 302 293 296
312 308 310 312 313 313 309 313 310 310 309 308 309 307 307 308 305 304 301 302 303 305 305 306 307 309 312 312 313 315 314 312 314 318 319 320 320 320 320 318 318 316 314 312 309 306 305 301 300
311 308 309 311 311 312 311 313 312 310 311 310 310 310 309 305 304 304 302 303 306 304 304 305 306 308 310 311 312 313 314 315 316 316 315 316 317 317 317 316 316 313 310 308 307 305 303 302 301
308 310 309 308 310 315 311 312 309 310 311 311 310 309 307 305 303 302 303 303 302 302 302 304 305 307 309 309 311 312 313 313 313 312 312 311 312 314 314 311 310 307 303 304 306 304 303 302 301
310 312 313 311 313 316 309 312 313 310 309 308 310 309 306 305 304 303 301 299 300 301 302 303 304 305 308 310 309 311 312 314 313 312 311 310 308 310 310 309 305 299 299 303 303 302 300 298 293
310 311 312 311 310 309 309 314 313 309 308 306 305 305 304 305 303 302 301 300 299 300 301 303 303 304 306 309 309 309 310 312 311 312 312 311 312 314 311 308 305 296 294 297 296 294 291 291 291
311 313 310 310 296 309 310 308 307 307 307 307 309 306 306 305 303 302 300 299 299 300 301 302 303 303 305 307 306 307 308 309 309 309 309 308 310 313 309 306 301 293 291 291 290 290 290 290 290
310 309 314 310 312 311 311 310 313 312 312 310 308 308 306 305 304 302 299 298 299 300 301 302 303 303 304 305 305 306 307 307 307 307 307 307 307 307 304 301 292 290 290 289 290 290 290 289 288
312 312 311 311 311 312 310 312 306 310 309 309 308 307 307 306 304 302 299 298 299 300 301 302 302 303 303 304 305 305 307 307 306 305 305 305 305 304 299 294 290 289 289 288 289 289 289 288 287
308 311 310 313 311 309 310 315 308 309 310 309 308 307 306 305 304 301 298 297 298 298 300 301 302 303 303 304 304 304 306 305 303 302 303 303 303 301 296 291 289 288 288 288 288 288 288 287 287

GFSSGP_925_thetae_054.txt.gz
Theta_e
316 318 320 321 324 322 322 321 318 319 319 318 317 320 321 322 319 327 333 339 338 339 339 338 336 332 333 335 338 337 336 337 335 332 330 329 329 328 328 328 328 331 332 335 334 333 332 331 330
317 318 319 321 323 321 321 319 319 320 321 320 321 324 325 329 330 335 339 339 339 339 339 339 334 331 333 335 337 337 336 336 333 331 331 330 327 325 325 325 328 329 331 334 332 330 329 328 325
318 316 325 324 322 320 319 319 319 321 320 319 322 323 324 329 330 336 336 339 339 340 339 339 331 331 335 333 336 336 335 333 333 327 329 331 329 324 323 323 326 328 329 331 329 327 326 325 321
319 320 318 322 321 319 318 319 317 322 317 315 321 323 324 326 330 330 338 339 339 339 339 334 331 332 336 331 331 335 334 334 334 332 332 330 326 323 321 322 324 326 328 327 326 324 319 316 317
317 320 322 322 321 318 316 316 320 320 318 319 320 322 326 326 327 335 339 339 338 339 338 337 334 335 333 330 334 333 333 333 333 332 332 327 325 322 320 320 322 323 324 323 320 317 316 316 314
322 320 322 322 320 318 316 316 320 319 316 319 319 322 324 325 329 337 339 339 338 339 338 339 334 333 331 330 331 333 333 334 333 330 331 328 326 324 323 321 319 319 319 318 314 310 310 307 310
323 322 322 320 319 318 317 316 319 318 317 318 320 321 322 325 330 337 340 339 339 339 338 339 338 335 332 331 330 331 333 333 333 331 331 328 325 323 322 321 321 319 318 314 306 304 303 306 309
318 321 319 318 319 319 316 316 315 317 317 315 320 319 321 325 330 336 339 340 340 339 339 339 339 338 337 335 332 332 333 333 333 331 329 326 324 323 321 320 319 318 315 312 306 304 302 304 308
312 320 320 319 318 319 314 316 311 312 316 317 317 316 318 327 330 333 334 337 339 339 339 339 339 338 338 338 334 333 333 334 332 332 328 327 328 326 325 322 319 318 315 312 308 307 306 305 307
317 319 319 316 316 317 315 315 315 315 315 317 315 313 313 326 331 333 333 334 335 337 337 337 336 335 337 336 335 336 335 335 334 334 330 332 331 328 325 321 318 317 317 313 311 310 311 312 313
313 316 313 314 314 314 315 314 314 315 316 317 317 316 314 326 330 333 335 336 336 335 335 337 337 337 336 334 335 336 336 336 336 336 334 333 330 327 326 321 318 316 315 315 311 310 310 311 311
315 312 314 315 315 314 315 314 314 315 317 314 315 315 315 324 328 331 333 334 335 335 334 334 334 333 332 333 333 335 337 335 336 335 334 333 329 328 326 323 320 318 316 313 315 311 310 309 308
314 314 313 314 313 313 312 314 315 314 316 312 311 312 316 320 326 328 331 334 334 332 332 334 334 332 332 333 332 332 332 334 333 335 333 334 330 329 327 324 322 319 316 316 314 312 309 308 307
314 314 314 314 314 314 315 315 314 317 315 313 312 314 315 317 323 327 329 331 332 331 330 329 333 334 330 331 330 331 331 331 331 332 332 332 332 330 329 326 323 321 317 315 315 315 312 310 303
312 315 315 314 314 315 314 316 315 316 312 314 314 315 314 315 318 323 324 327 329 328 328 325 327 329 330 330 328 330 332 332 330 329 331 333 332 331 330 328 325 322 317 314 312 314 313 308 300
315 316 317 314 313 314 314 317 316 312 313 315 316 316 315 314 314 317 320 323 324 324 323 324 328 327 326 325 325 326 330 331 330 329 328 330 331 332 331 329 326 322 318 314 314 314 312 305 298
316 316 317 316 313 314 315 318 316 312 312 315 315 315 314 314 313 312 315 317 317 317 317 317 321 320 318 316 317 320 325 328 328 328 328 328 328 329 331 330 328 323 317 314 313 312 311 302 295
317 316 315 316 314 313 316 316 316 316 312 315 316 316 315 314 313 313 311 313 314 313 312 312 312 312 313 315 315 316 319 321 326 326 325 326 327 327 330 330 328 322 318 313 311 312 306 300 294
314 315 315 314 313 315 317 317 317 317 316 315 316 317 317 316 315 313 311 310 310 311 311 311 311 312 314 315 314 314 316 315 325 325 325 325 326 328 330 329 327 322 318 313 311 310 304 292 292
314 316 316 315 312 314 316 317 316 316 316 317 317 317 317 317 317 314 311 309 308 309 310 310 311 312 313 314 314 315 316 315 322 323 324 324 327 329 329 329 326 321 316 310 311 310 297 293 292
315 316 316 315 313 313 314 316 317 316 314 315 315 316 316 317 317 316 312 309 309 308 309 309 310 311 312 313 313 310 311 316 318 321 323 325 326 328 328 328 325 321 319 314 312 310 304 295 293
316 314 313 314 316 316 313 314 316 316 316 315 316 317 317 316 315 314 314 310 309 309 309 309 309 310 311 312 312 310 313 314 317 317 321 323 325 324 323 325 324 321 316 315 313 311 306 299 295
315 312 313 314 317 317 316 316 316 313 315 316 317 317 317 317 316 314 313 311 310 308 308 308 309 309 311 312 311 312 313 315 314 315 316 319 320 321 323 323 320 318 314 314 314 308 302 299 298
312 314 315 315 317 319 316 316 315 315 315 315 315 316 316 315 313 312 310 308 307 307 306 307 308 309 310 311 310 311 313 312 311 312 312 314 317 318 318 320 319 318 313 313 311 308 302 301 299
314 317 316 318 321 318 313 316 315 315 315 314 315 316 315 312 313 313 312 310 306 305 305 306 307 308 308 310 310 311 312 310 310 311 311 308 308 313 314 316 316 315 310 310 308 305 303 300 299
315 316 316 320 317 315 312 317 317 315 314 313 313 314 313 312 312 312 312 310 307 304 305 305 306 307 307 308 309 310 310 310 309 311 310 308 308 312 315 315 316 313 309 306 306 304 302 301 300
314 316 315 315 309 316 313 314 314 313 312 312 313 313 314 314 313 313 312 309 307 305 305 305 306 306 307 306 307 308 308 307 307 309 310 310 311 310 314 314 314 311 305 301 301 301 302 301 298
313 313 316 315 325 320 314 315 316 317 317 316 314 314 314 313 311 312 311 307 305 304 304 304 305 306 306 305 306 307 306 305 307 308 309 308 310 309 311 309 312 309 302 298 301 301 301 296 290
313 314 314 315 316 321 318 315 315 316 316 315 315 313 313 313 312 311 309 305 303 302 303 304 304 305 305 304 304 305 305 304 305 306 309 308 308 308 308 307 308 308 302 293 295 295 293 289 289
311 314 315 317 318 315 316 318 311 314 315 314 314 313 312 311 310 309 307 305 303 303 303 303 304 304 305 303 303 303 303 303 302 304 307 308 307 306 306 305 303 302 296 292 289 289 289 288 288

GFSSGP_925_thetae_057.txt.gz
Theta_e
319 321 322 325 327 323 323 322 321 321 322 321 322 322 323 324 323 335 338 340 340 339 339 335 335 334 335 336 335 337 335 334 332 331 330 330 329 329 329 331 331 336 335 334 333 331 328 328 327
320 319 323 325 324 323 321 321 321 321 323 321 322 323 325 331 331 336 339 339 340 340 340 339 335 332 334 337 336 337 333 332 333 331 329 327 326 327 329 330 331 334 332 332 331 328 328 325 322
319 317 326 326 324 322 321 320 321 322 322 322 323 324 325 330 332 337 339 339 340 339 339 340 333 333 334 336 336 336 333 330 334 333 331 327 325 325 328 329 330 333 332 330 328 327 325 323 323
321 322 322 323 322 321 319 320 321 323 319 319 322 324 325 329 334 334 339 339 339 339 339 338 332 333 334 336 336 335 334 331 334 333 332 328 325 324 326 328 329 330 328 327 325 324 324 324 323
320 323 325 323 323 321 319 319 320 321 320 320 321 323 326 329 330 336 338 338 339 339 339 335 332 334 334 331 334 334 334 331 333 332 330 327 324 323 324 325 327 326 324 323 322 322 322 323 319
323 323 323 324 322 321 319 318 321 320 319 321 320 321 325 328 330 337 338 338 338 338 338 337 332 334 333 330 334 333 333 332 330 329 327 326 324 323 322 322 323 322 319 318 319 320 320 316 317
324 323 323 323 320 321 320 319 320 320 318 319 321 321 325 327 329 336 336 337 337 339 338 338 338 336 331 331 333 333 333 333 330 330 327 325 323 321 320 320 320 319 316 316 317 315 311 313 317
321 322 322 321 320 320 319 319 319 319 318 318 321 321 322 325 330 336 336 335 336 338 338 338 337 337 336 334 331 333 333 333 332 330 327 324 322 321 320 319 318 316 312 307 305 306 309 312 315
317 320 320 321 320 319 318 319 317 317 318 318 320 319 324 325 330 338 337 336 336 337 337 338 337 338 336 336 334 332 334 333 332 330 327 325 325 324 324 321 317 316 313 309 306 305 307 310 312
319 320 320 320 319 320 318 318 318 316 317 318 318 317 323 329 331 335 337 338 338 338 338 338 338 338 337 336 336 335 335 334 334 332 328 330 328 328 323 318 316 314 313 312 310 309 312 315 316
319 320 318 317 317 317 318 317 317 317 318 318 319 319 319 328 329 331 335 335 337 336 337 338 338 339 338 337 336 336 335 335 334 333 331 331 330 327 323 318 315 313 312 312 312 313 314 315 315
316 315 316 317 317 316 317 318 317 317 319 317 318 318 318 326 328 329 332 334 334 336 336 337 337 338 337 338 336 336 336 335 335 334 333 332 331 327 326 320 316 313 312 312 313 313 313 312 311
315 315 315 316 316 316 315 317 317 318 318 316 315 315 318 321 325 327 329 332 333 334 335 333 334 337 337 335 333 335 336 336 335 335 334 333 331 329 327 322 319 317 314 313 313 312 311 309 308
316 316 316 316 316 316 316 317 316 318 318 318 316 316 317 318 321 325 328 330 332 333 334 333 334 334 333 333 333 332 332 335 336 335 334 334 332 329 327 323 319 318 315 313 312 312 310 307 303
316 315 316 316 316 316 316 316 316 316 316 317 317 316 317 317 318 322 326 328 331 333 333 334 331 333 332 332 332 333 331 330 331 334 335 334 333 331 329 325 321 317 315 314 311 310 308 311 304
316 317 317 317 316 316 316 315 317 317 316 316 317 317 317 317 317 318 323 326 329 331 332 333 331 331 331 331 331 331 331 331 331 332 333 334 333 332 330 327 324 323 317 317 313 311 304 310 301
317 315 316 318 316 317 317 318 318 316 315 316 316 317 317 317 317 316 319 322 325 328 330 331 329 326 327 327 328 329 330 331 331 331 331 333 332 332 331 329 326 324 318 316 316 310 305 308 299
316 317 317 317 317 315 317 318 317 317 317 317 318 318 319 318 317 316 316 318 321 325 327 327 326 324 324 324 323 323 325 328 330 330 330 330 330 330 329 329 328 324 316 316 312 308 303 304 303
315 316 316 316 316 316 317 317 317 317 317 317 318 318 318 318 319 317 316 315 317 319 320 322 322 320 320 319 318 318 318 321 324 328 328 328 328 328 328 327 328 322 319 319 315 305 300 297 296
316 316 316 316 316 315 316 317 317 317 317 318 318 318 318 318 318 319 318 315 314 316 318 317 316 316 316 317 317 317 317 318 319 320 325 326 325 326 326 326 326 324 318 315 309 306 297 295 295
316 316 316 316 316 316 317 317 316 317 318 317 317 318 318 318 318 318 319 316 314 313 315 315 315 315 315 316 317 316 316 317 316 316 319 324 324 325 325 326 326 324 319 315 312 307 303 295 294
315 316 316 316 316 315 316 316 315 315 316 318 318 318 318 318 318 317 318 318 315 314 313 314 314 314 314 315 316 316 315 314 313 313 316 321 323 324 324 326 326 322 321 316 314 310 305 301 296
316 315 316 316 318 318 317 317 316 316 317 317 317 319 319 319 319 319 317 316 316 314 313 313 312 313 313 314 315 315 314 313 315 316 315 319 321 322 324 323 323 319 317 317 316 309 303 302 302
315 317 317 318 318 318 316 317 316 315 316 317 317 318 318 318 317 316 314 314 314 313 312 312 312 312 312 313 314 315 314 314 316 314 313 318 320 320 319 321 320 321 318 314 313 310 304 302 302
316 316 315 318 322 319 316 318 316 315 316 316 316 317 317 316 315 316 316 314 311 311 310 311 311 311 311 312 313 314 313 314 315 314 313 313 315 316 318 320 316 318 316 313 312 308 303 302 301
316 316 316 319 319 317 315 317 316 316 317 317 316 316 317 317 316 315 316 315 313 310 309 309 309 310 310 311 312 313 312 313 314 312 314 313 312 315 317 318 317 316 315 315 311 310 306 303 302
316 318 316 319 318 316 314 315 315 316 315 315 315 315 315 316 317 317 316 314 313 310 309 309 309 309 310 310 310 312 311 312 313 312 313 314 313 312 313 315 315 314 314 313 311 307 305 302 301
314 314 316 316 327 320 314 315 316 317 316 316 317 317 317 316 315 314 315 313 310 309 309 308 309 309 309 309 309 310 310 311 311 311 311 311 311 310 309 310 312 313 314 312 309 305 302 300 299
313 314 315 315 317 319 319 316 315 316 317 317 318 317 317 316 315 314 312 310 308 307 307 308 308 308 308 308 308 308 308 309 310 309 309 308 308 309 309 310 309 310 310 308 306 301 298 297 296
314 314 314 317 318 316 317 318 314 315 316 317 317 315 316 315 314 313 312 311 309 308 308 307 307 307 307 308 307 306 307 308 308 307 307 307 306 307 308 307 306 305 306 302 301 298 297 295 295

GFSSGP_925_thetae_063.txt.gz
Theta_e
314 319 320 322 321 317 319 319 316 319 318 318 319 319 328 328 337 335 335 334 332 332 333 332 333 334 335 337 333 327 331 333 333 332 332 332 333 335 336 335 333 332 330 329 328 326 327 327 326
314 319 321 317 320 316 316 316 318 319 317 317 320 321 325 334 333 336 333 335 334 333 333 332 332 333 335 336 333 327 330 331 330 330 330 331 332 335 335 334 331 330 329 328 327 326 327 328 327
319 320 315 321 316 316 316 317 318 318 317 319 321 321 325 333 336 338 338 336 335 333 333 333 331 334 335 335 333 327 328 330 330 328 329 330 332 333 334 333 330 329 327 327 326 326 328 326 325
319 319 313 316 319 316 315 317 317 316 317 317 319 323 325 327 339 339 338 337 338 338 335 334 331 333 334 334 334 327 329 331 330 328 328 330 330 332 332 331 329 327 326 326 325 327 326 324 324
318 314 318 320 319 316 314 317 317 317 315 317 319 322 327 335 338 339 339 339 339 339 338 335 331 333 335 334 334 328 331 332 330 328 328 328 329 330 330 328 326 325 325 325 324 324 323 325 325
316 313 317 319 319 317 315 315 316 315 315 317 316 323 325 335 338 339 339 338 337 338 339 334 331 333 335 335 335 331 331 331 329 327 327 327 328 328 327 325 324 324 324 323 316 322 323 324 325
319 318 320 320 316 317 316 315 315 313 315 317 317 323 326 330 338 338 339 338 336 337 338 332 332 333 334 334 334 333 331 329 327 326 325 325 325 325 323 321 322 322 322 321 315 322 321 319 320
313 314 318 317 316 318 315 317 316 314 316 316 317 319 326 327 336 338 337 337 336 336 336 331 332 334 332 333 333 333 331 329 327 325 322 322 320 319 317 318 320 321 321 312 313 318 319 319 320
314 312 314 317 317 316 314 316 315 314 315 316 317 319 321 329 335 337 337 336 335 335 335 332 332 334 331 333 332 332 333 330 328 325 322 320 319 319 318 316 315 315 311 307 311 317 318 319 320
312 310 315 315 314 315 315 315 314 314 314 316 315 319 325 331 335 335 334 335 337 335 335 335 333 333 331 332 333 333 333 332 329 326 322 320 319 320 318 316 312 310 308 308 312 318 319 318 319
315 314 315 315 315 314 315 315 312 313 313 312 314 320 326 331 333 333 334 334 337 335 335 335 335 334 333 332 331 333 333 333 331 328 323 322 323 323 318 317 314 312 309 310 312 315 317 318 318
315 314 314 315 315 315 315 312 315 312 313 313 312 321 325 326 333 333 334 334 334 336 335 334 334 335 334 333 333 331 332 333 332 330 326 325 325 326 319 317 315 313 310 313 315 315 315 316 316
312 313 313 314 314 314 314 314 314 314 311 311 312 318 324 325 329 334 333 335 334 336 335 335 335 335 334 333 333 333 331 333 332 331 329 328 327 326 321 317 316 314 313 314 314 315 315 314 314
314 314 313 314 314 314 314 313 314 313 311 311 310 313 319 323 325 328 333 331 334 334 335 336 337 337 335 334 334 333 333 333 332 332 331 329 328 327 325 319 316 314 314 314 314 315 314 314 313
314 313 313 313 313 314 313 309 312 310 312 311 309 308 310 316 324 325 328 331 331 334 335 333 336 337 337 336 334 334 334 333 333 334 333 330 331 329 328 323 317 316 315 314 314 314 312 312 311
314 312 312 313 312 314 311 307 309 309 309 311 309 307 307 308 315 323 326 328 330 331 332 334 334 333 334 336 335 332 334 335 334 334 334 334 332 332 329 327 324 316 314 314 314 313 310 310 310
312 310 311 315 312 314 313 310 313 311 310 309 308 308 307 306 309 315 321 325 327 330 331 333 334 335 334 333 333 334 335 334 335 334 335 335 334 333 331 329 327 321 314 314 315 312 310 306 305
313 313 312 312 313 314 314 311 310 310 311 310 309 308 307 307 307 313 315 318 323 326 330 332 333 334 334 333 334 333 333 332 331 331 331 331 333 333 332 330 329 325 317 313 313 313 307 305 301
313 313 312 313 314 314 312 311 310 310 309 308 308 308 308 308 310 313 314 316 319 324 327 331 333 334 334 332 332 332 331 332 332 332 331 330 330 331 333 331 329 327 319 316 313 310 306 300 297
314 314 312 313 313 313 311 311 309 309 311 309 309 307 307 307 308 310 313 314 316 319 326 329 332 333 333 332 331 330 330 330 331 331 331 331 329 329 332 331 329 328 320 314 312 311 302 297 297
314 313 313 313 313 311 312 309 310 311 310 309 308 308 308 308 308 308 309 312 315 318 322 326 329 332 332 331 330 329 329 328 329 329 330 330 329 328 327 328 328 327 322 317 315 311 307 300 296
314 312 312 314 311 310 311 310 310 311 309 308 308 308 308 307 308 307 309 311 312 316 318 322 325 329 331 331 329 328 325 323 323 324 327 328 329 329 328 326 327 326 323 320 316 313 310 304 298
312 313 313 314 314 315 313 310 309 309 310 309 309 309 308 308 308 308 308 313 314 314 316 318 322 326 328 329 327 325 323 321 320 320 320 321 324 327 327 325 324 325 323 320 319 311 307 307 304
312 314 313 313 312 311 312 309 307 307 309 311 311 312 313 312 311 311 312 313 314 314 314 316 318 321 322 323 324 322 321 319 317 317 316 316 317 318 318 323 322 323 322 319 318 316 313 310 305
313 309 309 312 314 311 309 310 309 309 310 312 312 310 313 312 311 311 312 311 312 314 313 313 314 316 317 316 317 318 317 317 316 316 315 315 315 314 313 314 318 320 320 318 317 316 313 310 306
313 309 309 312 316 312 309 312 312 309 308 313 312 311 309 309 308 308 308 310 311 311 312 313 313 313 313 314 315 315 315 315 316 316 315 315 314 314 313 311 313 315 317 316 317 315 314 311 307
312 314 311 312 300 309 309 309 308 310 310 309 308 310 310 311 310 309 309 310 311 311 311 311 311 312 312 312 313 313 314 314 315 315 315 315 314 314 314 314 311 313 313 315 315 313 313 311 307
311 311 313 311 309 310 309 308 310 310 310 309 312 312 311 310 308 306 307 309 310 310 310 310 310 310 310 311 311 311 312 312 313 313 314 314 313 313 314 314 312 310 311 313 313 311 312 309 308
311 312 312 311 311 312 311 309 306 308 311 311 312 312 312 310 309 308 307 309 310 310 310 310 310 310 310 310 310 310 311 311 311 312 312 313 313 313 313 313 312 312 310 310 310 310 310 310 308
309 310 311 312 312 309 311 312 310 311 312 311 311 312 311 310 308 307 308 309 308 309 310 310 310 310 310 310 310 310 310 310 310 310 311 312 311 312 312 312 312 312 311 309 309 308 308 308 306

GFSSGP_925_thetae_069.txt.gz
Theta_e
313 316 319 320 319 313 315 316 316 317 317 316 317 320 320 326 321 317 331 332 331 332 333 334 335 337 328 331 333 331 332 334 333 333 336 336 336 335 333 332 330 329 329 330 329 330 331 330 329
314 319 320 312 315 315 314 313 316 316 315 321 321 322 327 334 334 328 330 332 330 332 333 334 334 337 329 322 328 328 333 332 330 334 336 335 335 334 332 330 329 328 329 330 329 330 331 329 329
317 319 314 314 309 314 314 315 315 316 314 317 320 321 327 334 330 329 332 332 329 332 334 335 334 336 330 324 325 328 328 330 332 334 335 335 334 333 331 329 328 327 328 329 329 330 330 328 327
318 315 310 311 315 313 314 314 314 315 316 317 320 326 326 331 331 331 332 332 329 332 332 333 334 336 332 324 325 328 330 331 332 332 334 334 333 331 330 328 327 327 328 328 328 329 328 328 327
316 310 314 316 316 314 315 314 312 316 316 317 319 324 331 333 336 335 332 331 331 332 331 332 334 335 333 326 326 327 329 330 332 331 332 332 331 331 329 327 327 327 328 327 328 329 328 326 327
314 310 314 317 315 314 316 313 313 314 313 314 323 330 333 334 337 334 332 331 332 332 332 332 334 334 334 329 324 326 326 327 330 330 331 330 330 328 327 326 326 325 327 327 327 328 327 324 325
315 313 315 316 314 314 314 311 312 313 314 316 320 326 324 332 336 334 333 333 332 333 333 331 333 334 334 331 326 326 326 325 326 327 329 329 327 325 326 325 325 324 325 326 327 326 325 324 325
310 312 316 315 313 316 312 312 310 314 315 311 319 324 331 331 336 335 335 335 335 335 334 331 332 334 333 333 329 327 327 325 324 324 325 325 321 320 320 322 323 324 325 325 325 324 323 324 324
308 311 313 314 312 315 311 314 311 311 313 314 314 319 320 336 336 336 337 337 337 337 336 332 331 333 333 334 332 330 328 326 324 323 322 322 319 316 317 318 320 322 323 322 322 322 321 321 322
309 310 312 312 311 313 312 313 311 314 314 315 314 320 322 335 335 334 336 336 337 337 337 334 331 333 334 334 333 331 329 327 325 322 321 320 318 316 316 317 315 313 317 319 320 319 319 319 319
310 310 309 313 312 312 313 313 310 310 313 311 313 319 325 331 332 333 333 335 336 337 337 334 332 331 333 334 333 333 331 328 326 323 321 319 318 316 316 315 314 311 314 315 317 318 318 318 319
314 312 310 313 313 312 311 311 312 309 310 310 310 319 326 328 331 331 332 335 335 336 334 334 333 331 332 332 333 333 332 330 328 325 322 320 319 318 317 315 314 310 313 314 315 315 316 318 319
312 311 313 312 312 312 312 312 311 310 308 309 308 321 326 330 332 333 333 334 335 334 334 333 333 331 332 332 332 333 332 332 330 327 324 321 320 320 318 316 315 312 312 314 315 315 317 317 318
309 311 312 312 312 311 312 311 312 310 308 309 314 320 322 326 329 330 332 333 333 335 334 333 333 332 331 331 331 331 332 332 331 330 327 323 321 322 321 318 316 313 313 313 314 315 315 316 316
310 311 311 311 312 312 310 308 310 308 306 308 308 316 319 323 327 329 332 332 333 334 334 334 333 332 332 332 331 330 330 330 330 331 330 326 324 324 325 322 317 316 313 312 314 315 315 315 315
309 306 307 307 310 311 307 305 306 308 307 307 305 305 312 317 322 327 329 331 332 333 334 334 334 333 333 333 332 331 331 330 329 329 329 329 326 326 326 325 322 318 314 313 314 315 314 314 314
307 305 308 308 309 312 310 309 307 309 307 307 306 304 303 305 310 321 325 328 330 331 332 333 334 334 334 333 333 332 332 331 330 329 330 330 330 328 327 327 326 322 315 313 313 313 313 312 312
309 308 309 309 311 311 311 310 308 307 308 306 305 304 303 303 304 310 317 322 324 328 330 332 334 334 334 333 333 333 333 333 331 330 329 331 330 330 329 328 327 326 319 314 313 313 312 311 310
306 309 310 311 311 312 310 309 308 307 307 305 304 304 303 304 306 308 309 312 318 323 326 328 331 334 334 334 334 334 334 334 333 331 331 330 330 331 331 329 328 327 323 322 314 312 311 309 307
310 311 311 310 311 311 310 309 307 307 307 306 306 304 303 303 303 306 308 309 309 313 319 324 326 328 330 333 334 334 334 333 334 333 331 329 330 332 332 331 330 329 327 320 317 313 311 307 305
310 309 310 310 310 308 306 305 304 305 307 307 305 304 303 303 303 303 305 307 309 309 312 317 321 324 327 330 331 331 332 331 332 332 332 331 329 333 333 331 329 329 327 325 323 318 313 306 306
311 309 309 311 308 307 306 305 305 306 305 305 303 301 301 301 303 303 304 306 308 310 310 312 317 322 325 328 331 331 330 329 329 329 331 331 330 332 331 331 330 329 327 325 323 322 315 310 302
311 310 309 310 309 311 310 308 305 304 308 305 304 306 308 306 307 306 306 307 308 310 309 310 314 320 325 327 329 330 330 330 330 329 329 329 330 330 330 329 329 329 328 326 323 318 315 312 308
308 308 307 308 306 307 308 306 303 304 306 309 308 309 307 305 303 303 307 308 310 311 310 310 313 320 324 326 328 329 329 329 329 328 328 328 327 327 328 328 328 327 327 326 324 322 318 316 312
307 306 306 306 309 307 306 307 305 305 306 306 305 306 304 304 304 304 304 306 308 310 311 311 314 318 322 325 326 328 329 329 328 328 327 327 326 324 324 325 325 325 326 325 323 320 319 317 311
308 307 307 306 307 306 307 310 308 307 306 306 306 308 307 305 304 304 305 307 308 310 311 312 312 313 315 318 321 323 324 325 325 325 325 324 323 322 320 320 320 320 321 322 320 319 318 316 314
311 308 305 306 294 306 306 305 305 305 305 308 309 308 307 306 305 306 307 309 310 310 310 311 311 312 312 312 312 313 314 315 316 316 317 318 317 316 315 315 314 315 315 317 318 315 315 313 313
309 308 311 306 304 304 304 306 306 308 309 310 309 309 308 307 305 305 305 307 308 309 310 310 310 311 311 311 311 311 311 311 312 312 312 313 313 313 313 313 313 313 313 313 313 313 313 312 310
310 310 308 308 306 307 305 305 302 306 309 308 308 308 309 308 306 305 305 307 308 309 309 310 310 310 311 310 310 310 310 310 310 310 310 310 310 310 311 311 312 312 312 312 312 311 310 310 310
309 309 308 309 309 307 308 308 305 308 307 307 308 307 307 309 306 304 305 306 308 308 308 308 308 309 309 308 308 309 310 310 310 310 310 309 309 309 309 309 310 310 311 311 309 308 308 309 309

GFSSGP_925_thetae_072.txt.gz
Theta_e
314 317 318 319 317 311 314 317 315 316 317 315 316 318 324 325 325 315 331 332 330 334 334 334 337 328 330 333 331 332 332 335 334 337 337 336 335 334 332 330 329 330 330 329 330 330 329 327 328
314 318 319 310 316 315 313 312 316 315 317 322 319 322 326 331 332 327 331 331 331 333 334 334 334 328 328 331 330 330 332 334 335 337 336 336 335 333 331 329 329 330 330 329 331 330 329 328 327
317 318 314 312 309 315 313 312 313 314 317 316 321 321 326 331 329 329 330 331 332 332 333 334 336 329 328 328 323 328 332 333 336 335 335 335 333 331 330 329 328 329 329 328 331 330 328 327 327
317 314 309 311 314 313 313 313 313 314 314 315 321 325 325 330 330 328 331 330 332 332 333 334 336 331 322 324 327 330 332 333 334 334 334 333 332 330 328 328 328 328 327 328 328 328 328 327 326
315 309 314 314 316 313 312 313 311 315 315 318 318 324 331 331 333 332 331 329 331 333 333 334 335 333 324 324 326 327 330 331 332 332 333 332 330 328 327 327 328 327 326 327 329 329 328 327 325
313 309 314 316 314 313 315 313 312 313 313 315 323 329 332 331 334 332 331 329 330 332 332 332 334 334 327 325 327 327 327 328 328 331 330 329 329 328 327 327 326 326 326 327 328 327 325 325 325
314 311 314 314 313 316 316 311 313 312 314 315 321 327 324 330 334 332 331 329 330 332 331 332 334 334 331 327 327 326 326 325 325 328 329 328 327 327 326 326 326 326 326 327 326 326 323 324 325
309 311 315 313 312 314 311 312 311 313 314 313 318 321 329 331 334 331 331 331 332 332 332 332 333 334 333 328 326 326 325 324 325 326 327 325 323 324 322 323 324 326 325 326 326 324 324 324 324
307 310 313 312 312 314 309 313 309 310 312 313 314 317 320 333 334 332 332 332 332 333 333 332 333 334 333 331 328 327 326 324 324 324 325 321 318 318 318 319 323 324 325 327 323 323 323 324 323
309 310 312 310 309 312 309 312 310 313 313 314 314 317 321 334 334 333 334 333 334 335 334 332 331 333 333 333 331 329 327 325 324 323 322 320 317 316 317 318 319 322 323 322 321 321 321 321 321
309 310 309 312 311 311 311 312 310 310 313 311 312 316 325 331 332 333 334 335 335 337 336 334 331 332 333 334 332 331 329 326 325 323 321 320 317 316 317 317 317 318 318 318 319 319 318 318 318
313 311 309 312 312 312 312 309 311 309 312 308 308 316 325 329 331 332 332 335 335 336 336 335 332 332 333 333 333 332 331 329 326 324 322 320 318 317 317 316 314 312 313 314 316 317 317 317 318
311 310 312 311 310 310 311 312 311 309 307 307 307 320 325 329 331 332 333 333 334 335 336 336 334 332 332 333 333 334 332 330 329 326 323 321 319 318 317 316 315 312 313 314 314 315 316 317 319
309 309 311 311 311 311 311 310 311 309 306 308 313 317 322 327 329 330 332 333 333 334 335 335 334 333 332 332 332 334 335 330 330 329 326 323 320 319 319 317 316 314 312 314 314 314 316 317 317
308 310 310 310 311 311 310 308 309 308 306 309 307 311 317 321 327 329 333 333 334 334 334 334 333 333 332 331 331 332 335 334 334 330 329 326 323 321 321 321 318 317 314 314 315 315 315 316 316
308 304 307 306 310 310 306 304 305 306 307 306 305 303 307 315 321 328 330 331 333 333 334 334 333 333 332 332 331 331 331 332 333 331 330 329 327 324 323 323 323 319 316 313 313 313 314 314 315
304 305 306 307 309 311 308 308 307 307 307 308 306 303 303 304 310 321 326 329 330 331 332 333 333 333 332 332 332 331 331 330 330 330 329 327 327 327 325 325 325 324 319 316 313 313 314 314 313
307 307 307 307 309 310 310 308 307 306 307 306 304 303 302 302 303 309 316 322 326 328 330 331 332 333 333 332 332 332 332 331 331 331 330 329 327 328 327 326 326 326 324 318 315 313 314 313 313
304 306 308 309 310 311 309 308 307 307 306 305 304 303 302 302 304 307 308 309 316 323 325 329 330 331 332 332 332 332 331 332 332 332 331 330 329 329 328 329 328 327 326 326 320 314 312 313 311
308 309 310 310 310 311 309 308 307 306 306 306 305 303 302 301 301 303 306 307 307 311 317 323 327 329 331 332 332 332 331 332 331 332 332 332 330 329 329 328 328 329 326 325 323 319 314 312 310
308 308 308 309 308 306 304 303 303 304 304 305 304 302 301 301 300 300 303 305 307 307 309 315 321 325 328 331 332 332 332 331 332 331 332 333 332 330 330 329 329 329 328 326 324 321 314 311 310
308 307 307 309 307 308 305 304 304 305 304 304 302 301 303 303 303 303 304 305 305 307 307 309 313 320 324 328 331 332 331 330 330 330 331 333 333 332 331 330 328 330 330 327 325 325 320 313 307
309 308 308 308 308 310 309 306 305 302 306 307 307 305 303 302 302 302 303 307 309 309 308 308 309 314 320 325 327 329 329 329 329 329 329 329 329 330 330 330 329 329 329 327 326 324 320 317 311
307 306 305 306 304 306 307 305 304 304 306 307 305 302 303 303 303 303 306 307 309 310 311 310 311 314 319 322 325 327 328 329 329 329 329 329 329 328 328 328 328 328 328 327 326 326 324 321 315
306 305 306 306 308 306 305 306 305 305 304 305 305 305 305 303 303 303 303 305 307 310 310 312 315 318 321 323 325 326 327 328 328 327 327 327 327 326 326 326 326 326 326 326 325 324 323 320 316
306 306 307 306 305 305 307 308 306 306 302 305 307 307 304 304 304 304 304 306 307 308 309 310 311 313 317 320 322 324 325 325 326 325 325 324 323 323 322 322 322 321 321 321 323 322 320 319 317
309 307 304 305 292 304 304 304 304 303 308 307 307 306 305 304 304 303 304 305 307 307 308 308 309 309 309 310 310 311 312 314 315 315 316 315 315 314 315 315 314 315 315 315 317 317 317 316 315
308 306 309 305 302 304 303 305 303 308 310 308 308 307 306 304 303 302 303 305 307 307 308 308 308 308 308 308 308 308 308 309 309 310 310 310 310 310 310 310 311 311 312 312 313 314 314 313 313
309 309 307 306 305 305 303 304 300 309 308 307 306 307 307 305 304 303 304 306 307 307 308 307 308 308 308 308 308 308 308 308 308 308 308 308 308 308 308 308 308 308 309 310 311 311 311 312 311
308 308 306 307 307 304 305 305 305 305 306 307 307 306 305 304 302 301 303 305 305 306 306 306 306 307 306 306 307 308 308 308 308 308 307 307 307 307 307 307 307 307 307 308 309 309 309 308 308

GFSSGP_925_thetae_075.txt.gz
Theta_e
314 316 318 318 321 316 317 318 315 316 316 314 319 326 329 326 328 320 330 332 333 333 334 336 330 325 331 331 331 331 333 336 337 337 337 335 334 332 331 330 329 330 330 331 329 328 329 328 328
315 317 319 312 320 317 316 312 317 315 317 321 319 323 326 330 331 328 331 331 333 333 334 337 326 327 330 330 330 331 334 335 337 337 336 334 332 331 329 330 329 329 330 331 329 328 327 327 326
316 317 316 314 313 319 316 311 315 314 321 315 323 322 326 332 329 330 330 331 334 333 334 335 330 330 330 330 330 332 331 334 336 336 335 333 331 330 329 330 328 328 329 330 329 328 327 326 326
317 315 310 315 315 312 313 312 313 317 315 314 321 326 326 329 329 330 330 331 333 333 334 335 330 324 325 323 323 324 330 333 335 334 333 332 329 329 328 329 328 326 327 328 327 327 327 325 326
314 311 316 314 315 312 310 312 312 315 314 318 317 324 332 330 330 329 330 332 332 333 334 335 333 323 322 323 324 329 326 330 333 333 332 330 329 328 328 329 327 326 327 327 328 327 326 325 325
314 310 316 317 314 313 314 311 312 313 313 316 322 329 333 330 330 331 330 331 332 332 334 335 334 327 323 325 326 326 328 327 331 331 330 329 328 328 327 328 327 325 327 329 327 325 325 325 324
314 313 315 313 314 316 316 310 312 312 313 315 321 327 325 330 332 330 330 331 332 333 334 334 335 331 324 325 325 326 326 326 329 331 329 327 326 326 326 326 326 326 326 329 326 325 324 324 323
310 313 314 312 314 315 311 312 310 313 314 315 319 321 330 330 333 331 329 329 332 332 332 333 334 333 328 327 326 326 325 325 326 328 326 323 322 323 323 323 325 325 326 325 326 323 323 325 323
307 313 314 314 312 314 309 313 309 309 312 313 317 317 320 333 332 331 330 330 331 332 332 332 333 334 331 327 326 326 325 325 324 325 324 320 319 319 320 322 324 323 325 325 324 323 323 324 323
310 312 314 309 309 311 309 312 310 313 313 313 313 315 322 332 331 331 331 331 332 333 333 332 333 334 333 330 328 327 325 324 323 323 322 319 317 318 318 319 323 322 324 325 322 322 322 322 322
308 312 310 310 310 309 310 311 309 311 313 312 313 314 326 330 331 331 331 331 331 332 334 333 333 333 333 332 330 328 326 325 324 323 322 320 317 317 317 317 319 320 321 320 319 320 320 319 319
312 309 309 312 310 310 311 308 310 309 312 308 308 314 326 330 331 331 331 332 332 332 335 333 332 333 334 333 332 330 329 327 325 323 322 320 318 317 317 316 315 314 315 315 317 317 317 317 316
311 310 311 309 308 309 309 311 311 309 307 306 308 319 327 330 331 331 332 332 333 334 337 335 333 332 333 336 333 331 330 329 327 325 323 321 319 318 317 317 315 313 313 313 314 315 315 316 318
308 309 310 309 310 309 311 309 311 309 305 306 310 315 322 328 329 330 331 333 334 335 335 335 335 333 333 335 336 334 331 330 329 327 325 323 321 319 318 318 317 315 313 314 314 314 314 316 317
306 309 309 309 310 310 309 308 309 307 305 308 307 310 315 322 327 330 332 332 334 334 334 334 335 334 333 334 336 333 333 332 329 329 328 326 323 321 320 319 319 318 316 314 315 315 315 316 316
306 305 309 306 309 309 306 307 304 305 306 306 305 305 304 312 322 328 330 332 333 333 333 333 334 334 333 333 335 335 333 333 331 331 329 328 326 324 322 322 323 321 318 315 314 315 315 315 315
305 307 306 305 308 310 307 306 307 307 306 307 305 304 303 303 305 317 326 329 330 332 333 333 333 333 333 333 332 332 333 333 332 331 332 330 329 327 325 325 325 324 322 318 316 314 314 314 314
307 305 306 305 308 309 309 308 306 306 306 306 305 304 303 303 304 307 312 321 326 329 331 332 333 333 333 332 332 332 332 333 333 332 332 329 329 327 326 326 326 325 323 321 319 316 314 313 314
303 304 306 307 309 310 309 307 307 306 306 306 306 304 303 303 304 306 307 307 312 321 326 329 330 331 332 332 331 331 330 332 332 331 333 332 329 328 326 326 327 326 325 326 324 319 316 313 313
305 307 309 309 309 309 308 308 307 305 306 306 305 304 303 302 301 302 303 305 306 309 318 324 327 328 330 331 331 330 330 330 331 331 333 332 331 330 329 328 327 326 325 325 325 323 317 314 313
307 306 307 309 307 305 303 304 303 303 303 302 302 301 301 300 301 302 303 303 304 305 308 314 321 325 327 329 330 331 330 330 329 329 329 333 331 331 331 330 329 329 328 326 327 325 320 315 316
309 306 306 308 307 306 304 305 304 304 303 304 304 304 303 302 302 302 303 306 306 305 306 307 312 319 324 327 329 329 330 329 329 329 329 329 330 330 331 332 331 329 328 327 325 326 324 318 312
307 306 307 306 307 308 308 306 305 302 306 308 304 303 303 302 302 303 303 306 307 309 306 305 306 312 318 323 327 329 329 330 330 330 329 329 329 329 330 330 330 330 329 329 326 324 324 321 317
305 305 304 305 304 306 306 304 304 303 305 306 304 304 305 303 303 303 305 307 308 310 312 311 309 311 316 320 323 326 327 328 329 329 328 328 328 328 328 328 327 327 327 327 326 326 326 324 320
305 305 307 308 308 306 303 305 305 304 304 304 305 306 304 303 304 303 303 304 306 308 310 314 317 319 321 323 324 326 326 326 327 327 327 326 326 326 326 326 325 325 325 325 324 323 323 322 320
305 305 307 306 306 305 306 307 306 304 303 303 306 304 304 304 303 302 303 304 305 307 307 308 309 310 314 318 320 322 323 323 323 323 323 322 321 320 319 319 320 320 320 320 321 320 319 319 318
308 306 303 305 292 304 305 304 303 306 307 306 306 305 304 303 302 301 302 303 304 304 305 306 307 307 307 307 308 308 309 309 309 310 310 311 311 311 311 311 312 312 312 313 314 315 316 316 316
306 304 308 304 303 304 301 303 304 309 309 307 306 305 304 303 303 302 302 303 304 305 306 307 307 306 306 307 307 307 307 307 307 307 307 307 307 307 308 308 308 308 309 309 310 311 312 312 313
308 307 305 305 305 306 303 303 299 306 307 307 305 305 304 303 302 302 302 303 304 305 305 305 305 306 306 306 306 306 306 306 306 306 306 306 306 306 306 306 306 306 306 307 307 308 309 309 310
307 307 306 307 306 302 304 304 304 305 304 304 304 304 302 301 301 301 302 303 303 303 304 304 304 304 304 304 305 305 305 305 305 305 305 305 305 306 305 306 305 305 305 305 305 306 306 307 306

GFSSGP_925_thetae_078.txt.gz
Theta_e
314 316 319 323 324 323 323 324 325 324 323 320 331 330 330 329 327 328 333 334 336 337 337 338 331 333 332 332 333 333 337 338 338 336 335 333 332 332 331 330 329 332 330 329 329 329 329 328 328
315 317 321 324 325 321 321 322 327 323 321 324 325 327 327 330 334 334 334 333 336 337 338 336 328 332 331 331 331 333 336 338 337 336 333 332 331 331 331 329 329 330 333 330 328 328 326 326 327
316 317 321 325 325 321 320 321 325 322 322 322 326 327 328 331 333 334 333 334 336 337 338 335 331 331 329 329 330 331 336 337 336 334 334 331 330 330 331 328 328 331 329 328 328 326 327 326 326
318 320 318 323 323 319 319 319 321 326 320 319 326 328 331 332 332 333 333 335 336 338 338 331 331 331 324 322 325 330 334 336 335 334 332 330 329 330 330 327 327 328 328 327 327 328 326 325 325
317 321 322 322 320 317 316 319 322 325 321 322 323 325 332 333 331 331 333 335 336 338 339 336 328 327 323 321 320 328 333 334 334 332 330 330 329 329 329 327 326 327 327 327 327 327 326 325 324
319 320 323 323 320 319 319 318 321 320 320 322 324 326 331 334 331 332 333 335 336 337 339 337 326 322 322 323 323 323 332 332 333 331 329 329 329 328 329 327 326 327 328 326 324 325 325 325 323
320 322 323 322 320 320 320 317 319 319 320 322 325 324 330 335 333 332 332 335 335 336 338 338 333 325 324 325 326 327 328 331 330 329 327 325 326 326 327 326 326 326 329 326 326 326 324 323 322
320 321 320 318 319 320 319 317 316 318 319 319 325 323 327 334 333 332 333 334 335 337 338 339 337 332 331 329 326 326 325 328 331 329 325 322 323 322 324 325 325 326 325 327 324 324 324 323 322
315 321 323 319 318 318 316 318 314 314 318 322 323 322 328 335 332 332 332 334 335 336 337 337 338 335 333 332 329 326 327 327 327 327 323 321 325 324 323 325 324 325 324 326 325 323 324 323 323
319 321 322 318 317 318 317 318 317 317 318 319 320 321 332 335 333 333 332 332 334 335 335 336 338 337 335 332 331 330 330 330 330 329 326 325 324 323 323 324 323 323 324 324 324 323 323 323 324
315 320 316 313 314 315 317 316 315 317 318 318 319 320 333 335 333 333 332 332 332 334 334 335 335 336 336 333 332 331 330 330 329 328 325 322 323 321 323 324 324 323 323 324 323 321 321 321 322
316 312 314 315 313 314 317 315 316 316 317 313 316 319 331 335 334 332 333 333 332 334 334 333 334 336 336 335 333 332 330 329 328 327 323 322 322 323 323 323 324 323 323 323 321 320 318 317 317
316 313 313 312 312 313 312 315 315 315 314 311 312 319 329 334 334 333 332 333 333 334 334 333 334 334 337 334 333 333 332 329 328 327 324 322 322 322 322 323 322 322 320 320 319 319 318 317 317
313 314 313 312 312 312 314 313 313 313 311 311 313 318 324 331 333 334 334 334 334 334 334 332 335 334 334 333 334 332 331 331 329 327 325 323 322 321 321 322 321 321 319 318 318 318 317 318 318
312 314 313 313 313 313 312 312 313 312 309 312 313 315 320 328 332 333 334 334 334 334 335 333 336 334 332 333 334 332 333 331 330 328 326 325 323 321 320 321 321 320 318 317 316 316 316 318 318
312 313 315 310 312 312 310 314 308 310 310 312 312 313 313 318 327 331 333 333 334 334 335 335 334 334 333 333 333 332 330 331 330 330 328 326 326 324 322 321 322 322 319 318 316 315 315 316 316
311 314 313 308 311 312 311 314 310 310 311 312 312 312 311 312 312 321 329 332 333 333 334 334 334 333 334 335 334 333 331 330 331 329 329 327 327 326 325 324 324 324 322 321 318 316 315 315 315
313 311 309 310 312 311 313 312 312 311 311 314 314 314 313 312 312 311 312 323 329 331 332 333 333 334 333 335 335 332 330 329 329 329 330 329 330 326 326 324 324 324 323 323 322 320 317 315 314
312 310 311 309 310 312 313 313 313 313 312 314 315 314 313 312 310 307 307 308 317 326 329 331 332 333 334 333 330 329 329 329 330 329 330 330 331 329 327 327 325 324 325 324 322 321 318 317 314
310 310 312 312 310 312 312 314 314 313 312 312 312 312 311 310 309 307 307 305 306 313 323 328 330 331 333 333 332 331 329 329 329 329 330 329 329 330 329 328 327 326 325 325 324 321 317 316 317
310 311 311 313 310 309 309 311 310 306 307 307 309 308 308 309 310 310 308 307 306 306 313 321 326 329 330 331 332 329 330 329 329 329 328 328 328 329 329 330 329 327 326 325 325 323 320 319 315
311 309 311 312 313 312 309 311 312 309 309 311 311 311 310 310 310 309 310 310 309 308 304 311 319 324 327 329 330 329 328 329 329 329 328 328 327 327 328 328 328 328 329 328 327 326 324 320 317
310 309 311 311 314 313 312 311 312 307 311 312 310 310 311 310 310 310 309 309 309 311 307 305 312 318 323 326 328 329 327 328 330 330 330 329 328 328 328 328 329 328 328 327 326 326 324 323 319
308 311 311 311 313 312 312 312 311 310 309 310 309 311 310 310 310 309 308 309 311 314 315 311 312 316 320 323 325 328 327 326 327 328 328 328 327 325 326 327 327 327 327 327 327 326 325 323 320
310 312 313 313 315 312 307 310 311 307 306 308 309 311 311 310 311 310 310 309 309 310 313 318 318 320 320 322 322 322 324 324 324 325 324 324 324 323 323 322 323 323 324 324 324 324 324 322 321
313 311 314 315 312 311 307 312 312 307 306 305 310 310 310 310 309 309 308 307 307 307 307 308 308 308 312 316 318 320 320 321 321 321 320 319 319 318 315 315 315 316 317 317 319 321 320 319 319
310 310 308 309 303 314 311 310 309 309 309 310 311 311 311 310 309 308 306 306 306 306 305 306 306 306 306 306 306 307 307 307 307 307 308 308 308 308 308 308 309 309 310 310 312 314 315 316 317
310 308 311 310 319 315 308 308 312 312 312 311 311 311 309 308 308 307 307 306 305 305 304 304 304 304 304 305 306 306 306 306 306 306 306 306 306 306 306 306 307 307 307 307 307 308 310 312 313
308 309 308 310 311 318 313 310 308 312 313 313 312 311 310 309 309 308 306 305 304 304 304 303 303 304 304 305 305 305 304 304 304 304 304 304 304 304 304 304 305 305 305 305 305 305 306 307 308
307 310 310 312 311 307 310 312 306 310 312 312 311 309 309 309 307 306 306 305 304 303 302 301 300 301 301 301 301 301 301 300 300 300 300 300 301 301 301 301 301 302 302 302 302 303 303 304 305

GFSSGP_925_thetae_081.txt.gz
Theta_e
317 319 321 324 327 324 325 327 329 328 327 327 332 330 327 327 328 339 337 337 337 338 337 337 333 333 332 333 333 336 337 338 336 334 332 333 333 332 330 330 330 330 330 330 331 329 328 329 330
319 319 322 324 326 322 321 324 327 324 324 329 328 326 326 333 334 336 337 338 338 336 335 333 332 330 331 332 332 337 338 338 336 334 332 332 332 332 330 330 332 331 330 329 327 328 327 328 328
318 318 323 325 325 321 320 322 325 326 325 327 327 327 327 332 334 335 336 337 336 335 334 332 332 330 329 331 333 336 337 337 335 334 332 332 332 332 328 330 331 330 330 327 329 328 326 326 327
320 323 321 325 323 322 320 321 324 326 323 322 325 327 330 332 335 335 336 336 336 336 335 330 332 330 328 327 332 336 337 336 335 331 331 331 332 331 327 328 330 327 327 327 329 327 326 325 326
319 323 324 325 323 320 319 321 324 325 323 323 323 325 332 333 333 334 336 336 337 338 336 336 331 328 327 326 331 335 336 335 333 332 331 330 330 330 327 326 327 327 325 328 328 327 325 324 324
323 323 324 324 322 320 320 322 324 323 320 322 322 324 332 333 332 334 335 336 338 338 337 335 330 327 323 321 328 333 334 333 332 330 330 329 329 330 328 327 327 328 324 326 326 326 324 323 323
323 322 324 323 321 321 321 322 322 320 320 321 323 323 331 332 333 334 334 336 337 338 337 335 332 329 326 324 325 331 332 332 331 328 327 326 325 328 327 325 327 328 327 326 326 325 323 323 322
322 322 324 323 321 321 321 320 320 320 320 323 324 322 328 334 334 333 334 335 336 337 338 336 332 331 331 329 327 327 330 331 330 327 323 322 322 324 324 324 326 326 327 325 324 323 323 323 322
320 322 324 322 320 321 320 320 318 318 321 323 323 324 328 335 334 333 335 335 336 336 337 336 335 332 332 332 328 328 330 331 330 326 321 325 325 325 327 326 324 323 324 324 323 323 323 322 322
320 323 323 321 320 320 320 320 319 319 320 320 322 327 332 334 334 333 334 335 336 336 336 336 336 335 334 331 330 331 331 331 331 329 326 327 326 325 325 324 323 323 323 324 322 322 324 324 324
320 323 321 318 318 319 320 319 319 319 319 319 321 326 333 333 334 333 333 334 335 336 336 336 336 336 334 333 331 332 331 331 331 330 328 326 325 323 324 325 323 323 322 324 322 321 323 323 323
318 315 317 316 316 318 319 319 318 318 318 318 319 323 331 333 332 333 333 333 334 336 336 336 336 337 335 334 333 333 331 331 331 330 328 326 325 325 325 326 326 325 324 324 323 322 322 322 321
319 315 316 315 315 317 317 318 318 318 317 315 315 321 329 331 331 331 332 332 333 334 336 336 335 336 335 335 334 334 332 331 330 330 328 326 325 325 325 325 325 324 324 323 322 321 321 321 320
317 317 316 315 315 315 317 317 316 316 316 315 316 320 325 329 330 331 330 331 332 333 335 336 335 335 335 334 334 334 334 333 331 330 329 327 325 325 325 325 324 324 323 321 321 321 321 321 321
316 317 316 315 315 315 315 315 316 314 313 315 315 318 321 326 329 331 331 331 332 333 334 335 335 335 335 334 333 333 332 333 332 331 329 328 326 325 324 325 324 324 323 321 320 320 320 320 321
316 317 317 315 315 315 313 318 317 312 312 313 315 316 319 323 327 329 331 332 332 333 335 335 333 335 334 333 332 332 331 331 331 332 330 328 327 325 324 324 324 324 322 321 321 320 319 318 319
315 317 317 313 314 315 313 316 312 313 313 313 314 315 316 317 321 326 329 331 332 333 334 335 336 335 334 334 332 332 331 330 330 330 330 330 328 326 325 324 323 323 322 321 321 321 319 318 318
316 316 315 316 313 313 315 314 313 313 314 314 314 314 315 315 315 315 322 328 331 332 333 334 335 335 335 333 332 331 331 330 330 330 329 329 329 328 327 325 324 323 323 323 323 321 319 318 317
316 315 314 313 312 314 315 315 314 314 313 315 315 316 316 316 315 312 312 314 325 330 332 332 334 335 335 332 331 331 330 330 330 330 329 329 329 328 328 327 326 325 324 324 324 323 321 319 318
314 314 313 313 312 313 315 314 314 314 314 315 315 316 315 314 313 311 310 310 311 319 328 330 332 333 334 335 332 331 330 330 330 330 329 329 329 329 329 328 327 325 324 323 323 323 321 319 319
313 313 314 313 313 313 313 313 314 312 310 310 310 312 311 312 313 313 312 310 310 310 315 325 329 331 333 334 333 330 331 330 330 329 329 329 329 329 329 329 329 328 326 325 325 323 322 320 320
312 312 313 315 314 312 313 312 314 313 311 311 313 313 313 313 313 313 313 313 313 311 309 314 323 328 330 332 333 330 329 329 329 328 328 328 328 327 328 328 328 328 327 327 326 326 324 321 318
313 312 314 315 315 314 313 312 314 311 311 314 314 314 314 314 313 313 313 313 315 314 309 309 317 322 327 329 330 329 328 328 328 328 329 328 327 327 326 326 326 327 327 327 327 326 325 324 321
311 313 314 315 315 312 314 312 313 312 312 313 313 314 313 313 312 312 312 314 317 318 312 310 315 319 322 325 328 328 326 326 326 327 327 326 327 326 325 326 326 326 325 325 325 324 323 324 323
313 313 313 312 315 313 310 312 312 310 312 312 314 314 313 313 313 313 313 313 314 318 320 319 318 320 321 323 324 324 324 324 324 324 323 323 323 323 322 322 321 322 322 322 322 322 321 321 322
313 312 314 315 315 313 309 313 313 311 309 309 313 314 313 312 312 312 311 310 310 310 311 313 316 319 319 320 319 320 320 321 320 319 318 318 317 316 314 311 312 313 315 316 316 317 316 316 316
312 312 312 312 309 316 312 312 312 310 310 311 313 313 313 312 311 310 310 310 309 309 309 309 308 308 309 309 309 309 309 309 309 309 309 309 308 307 307 307 307 308 308 309 309 310 311 313 314
311 310 310 313 321 320 312 311 313 312 311 312 314 314 313 311 310 310 309 309 308 307 307 307 307 306 306 306 306 306 305 305 305 305 305 305 304 304 304 304 304 305 305 305 306 306 307 308 309
309 310 310 311 314 323 316 311 310 314 312 313 314 313 311 311 311 310 309 308 307 307 306 306 305 305 304 304 303 302 302 302 301 301 300 300 300 300 300 300 301 301 301 301 302 302 303 304 305
310 311 311 313 313 310 316 315 307 311 313 314 314 313 312 311 311 309 308 308 307 305 304 303 302 301 301 301 300 299 299 299 298 298 298 298 298 299 299 299 299 299 299 299 299 300 300 301 302

GFSSGP_925_thetae_084.txt.gz
Theta_e
317 319 320 324 329 326 327 329 327 328 326 329 327 327 329 332 337 348 337 337 337 338 336 334 332 333 332 334 333 337 337 336 335 332 332 333 332 332 332 331 328 330 330 329 329 329 330 329 328
319 319 321 324 327 325 321 325 326 324 327 326 325 326 327 334 336 337 337 337 338 336 337 334 332 331 332 333 337 337 337 336 335 332 332 333 331 332 334 332 330 330 328 328 327 329 330 328 328
316 319 322 326 326 323 321 323 324 324 325 326 325 326 328 333 335 336 338 337 336 334 333 332 329 330 332 333 337 337 336 335 334 332 332 331 330 331 332 331 328 329 328 329 328 327 327 326 327
320 321 320 322 326 320 319 322 324 323 322 322 324 328 330 333 335 337 338 335 334 334 329 330 328 328 331 333 335 336 336 335 334 332 331 332 331 327 330 330 325 327 328 328 328 327 326 325 324
318 322 324 324 322 319 319 321 322 321 321 322 322 327 332 333 336 337 336 335 336 334 329 330 328 327 330 333 336 336 335 332 329 331 330 331 330 327 327 327 326 325 328 329 327 325 324 325 323
322 323 323 324 321 319 319 321 322 322 319 320 321 328 334 333 336 336 336 337 336 335 336 331 328 326 327 331 335 335 333 331 330 330 330 330 330 327 325 327 328 324 326 327 326 324 322 322 322
322 324 323 324 320 320 320 321 322 318 318 320 322 326 332 332 335 336 336 338 338 336 335 329 326 324 324 328 333 332 332 331 328 327 327 327 328 324 325 326 328 327 325 326 326 323 322 322 321
320 323 322 323 320 321 319 320 319 318 321 323 323 324 331 333 334 335 336 337 338 336 334 332 327 326 325 324 330 331 331 330 327 323 321 320 323 321 324 326 328 328 325 324 323 323 322 321 321
319 321 323 324 321 320 319 319 319 318 320 322 322 326 331 334 334 334 336 336 338 336 335 333 331 332 331 326 325 329 330 330 326 321 322 324 323 326 327 324 324 324 325 324 322 322 322 322 322
319 321 323 321 320 319 318 318 317 317 320 321 324 332 334 334 333 334 335 336 336 336 335 334 333 332 332 331 326 326 327 327 328 322 327 326 325 325 325 320 319 319 323 322 321 321 323 324 324
318 321 321 317 317 318 318 318 317 317 318 318 322 331 333 333 333 334 335 335 336 336 336 335 335 334 332 331 329 331 328 330 331 329 327 326 325 324 324 319 319 317 321 320 319 320 322 323 323
319 316 317 317 316 319 319 317 318 317 317 317 319 329 332 332 333 333 334 335 335 336 336 335 335 334 333 333 331 331 331 331 331 330 328 325 324 324 325 326 325 325 323 325 323 322 322 319 317
317 316 316 315 315 316 317 317 317 315 313 313 319 328 329 330 332 333 333 334 335 336 336 336 335 336 334 333 333 332 331 331 331 330 328 326 325 325 325 325 325 324 324 324 322 321 320 318 319
317 316 315 315 315 314 317 316 315 315 312 313 316 321 327 328 330 331 332 333 334 335 336 336 336 334 335 334 334 334 333 332 331 330 329 326 325 325 325 325 325 324 323 322 321 321 321 321 321
316 315 315 315 315 314 314 315 314 313 313 312 313 316 321 326 330 330 330 331 332 333 334 336 335 334 334 333 332 333 334 333 331 330 329 328 326 325 325 324 324 324 323 322 320 320 320 320 320
316 316 316 315 314 313 314 317 314 310 310 311 311 312 317 322 327 329 330 330 331 332 333 335 335 334 334 333 332 332 331 332 332 331 330 329 328 325 324 324 324 324 323 323 322 321 320 319 319
314 316 317 314 314 314 312 316 311 312 310 310 310 311 315 318 323 327 330 331 331 332 333 334 335 334 333 333 333 332 331 331 331 330 330 330 329 327 325 325 324 324 324 323 322 321 321 320 319
315 315 315 313 313 314 312 313 310 311 312 310 309 309 311 312 315 323 327 329 331 332 333 334 335 335 332 333 332 331 331 330 330 330 329 329 329 328 327 326 325 324 324 324 323 322 321 320 319
314 314 314 313 312 314 313 314 312 311 311 312 312 309 310 310 312 314 320 327 329 331 332 334 335 336 335 332 331 331 330 330 330 329 329 329 329 329 328 327 327 326 325 324 323 322 322 322 322
313 314 314 312 312 313 313 312 312 312 311 311 312 312 311 311 309 310 311 312 317 328 331 332 333 335 335 334 331 330 330 329 329 329 329 329 329 329 329 328 328 328 327 325 324 323 322 321 321
313 314 313 314 312 313 312 310 312 311 312 310 310 310 309 310 310 310 312 310 310 312 321 330 331 333 334 336 334 331 330 329 329 329 329 328 328 329 329 328 329 329 328 328 328 326 324 321 322
312 312 313 313 311 310 310 306 311 308 308 308 309 310 309 310 311 311 312 313 313 311 310 314 327 330 332 334 334 332 329 329 328 328 327 327 326 327 327 326 326 326 326 326 326 327 325 323 321
313 312 314 314 314 312 312 309 311 308 308 309 311 311 311 311 310 311 313 314 315 314 310 310 317 325 329 332 333 332 328 328 327 328 327 326 326 326 326 326 326 326 325 326 326 326 326 325 323
312 313 313 314 314 310 312 308 309 308 308 310 311 311 311 310 309 311 314 317 318 313 308 309 316 322 326 329 330 329 326 326 326 326 327 326 327 327 325 324 323 323 323 323 323 324 323 323 323
312 310 312 312 312 313 307 310 309 309 311 309 310 311 310 310 309 310 311 314 319 319 317 317 319 321 323 325 326 327 324 324 323 323 323 322 322 322 321 319 318 318 317 318 317 317 317 317 317
311 309 313 313 315 311 307 308 309 308 307 308 311 310 310 309 309 308 310 310 311 315 319 317 317 318 320 321 322 321 321 320 320 319 318 316 314 315 311 308 308 309 309 309 310 310 311 313 314
311 311 312 309 303 312 308 309 308 307 307 310 311 310 310 309 308 307 309 309 309 309 309 309 310 311 311 311 311 311 312 310 309 309 308 307 306 305 305 305 305 305 305 305 305 305 306 306 307
310 308 309 310 307 314 309 310 309 309 307 309 311 310 309 308 307 307 308 308 307 307 307 307 307 307 307 306 306 306 306 305 305 304 303 302 301 301 300 300 300 300 300 300 300 300 300 301 301
308 308 309 310 314 316 311 307 306 310 308 310 311 310 308 307 307 306 307 307 307 306 306 305 305 305 304 303 303 302 301 300 299 299 299 298 298 298 298 298 298 298 297 297 297 297 298 298 298
309 309 309 311 310 308 314 311 308 307 308 310 311 310 308 308 307 306 307 307 305 304 303 302 302 301 300 300 299 298 298 298 298 297 297 297 297 296 296 296 296 295 295 295 295 295 295 295 296

GFSSGP_925_thetae_087.txt.gz
Theta_e
317 319 320 320 322 319 325 327 325 325 325 324 323 327 334 333 340 341 338 338 336 334 333 330 332 331 332 333 336 336 336 334 333 333 333 332 332 332 331 330 330 329 330 330 331 332 331 329 331
316 318 319 317 321 323 318 322 324 326 324 322 322 324 329 339 335 336 337 338 336 335 332 332 331 331 333 335 337 337 335 333 332 333 332 332 335 334 332 330 328 329 329 329 330 331 329 327 328
315 318 315 319 320 320 321 321 323 324 323 323 323 324 329 338 335 336 337 337 336 336 333 332 330 332 334 336 337 336 334 332 332 332 329 332 334 334 332 330 329 329 329 328 330 328 327 326 325
318 317 313 316 321 317 318 320 319 320 320 320 323 329 328 332 336 337 337 335 335 333 329 328 329 331 334 336 336 335 334 333 332 333 331 331 331 331 328 327 328 328 329 329 327 326 326 324 323
318 315 319 320 318 317 318 320 319 319 319 321 321 331 333 336 337 337 334 333 333 327 325 326 327 331 333 335 335 334 332 330 331 332 330 329 329 329 327 326 329 330 328 328 325 324 324 323 322
316 316 319 320 318 317 318 318 318 317 317 318 327 332 332 337 337 335 335 334 329 328 327 326 326 329 334 336 335 332 328 324 325 328 328 329 326 327 328 327 327 327 328 326 323 322 322 322 320
318 318 319 320 316 317 319 316 316 315 317 318 322 332 330 335 336 336 336 335 332 329 327 325 323 325 332 334 333 331 329 324 324 327 328 326 322 325 327 328 325 325 326 327 323 322 321 320 320
316 317 321 319 316 318 317 318 314 316 321 320 322 331 331 332 336 336 337 335 335 333 326 324 323 321 325 332 331 331 329 324 321 320 321 323 320 325 327 330 327 325 324 324 323 322 321 320 320
316 317 318 319 317 318 316 317 316 316 319 320 324 324 328 335 336 336 337 336 335 333 329 323 324 323 321 327 330 330 328 325 320 318 318 319 323 324 324 323 326 325 323 322 321 321 321 321 321
314 317 319 317 314 316 315 316 315 318 319 320 331 330 332 334 335 333 337 337 335 334 333 330 330 330 325 323 325 327 327 325 321 325 326 325 323 325 322 318 318 321 321 321 320 320 322 324 323
316 317 317 316 316 315 315 315 315 316 318 319 334 332 331 331 332 333 334 337 335 334 334 332 331 332 331 326 324 325 325 328 327 325 326 325 325 324 321 317 317 317 320 318 318 319 322 322 323
316 316 316 316 315 316 316 314 314 314 315 315 331 331 331 330 331 332 333 336 335 334 334 334 333 332 331 330 329 330 329 330 330 328 326 325 323 322 325 325 324 323 324 324 321 320 320 319 317
316 315 315 314 313 315 314 315 315 313 312 316 329 331 330 330 330 333 334 335 335 335 335 334 334 333 332 332 331 331 330 331 330 330 327 324 324 324 325 325 325 324 323 323 321 320 320 318 319
314 314 313 314 313 313 314 314 314 312 310 320 328 328 329 329 331 332 334 334 335 336 335 335 334 334 333 332 332 332 331 331 330 330 329 325 324 324 324 325 325 324 323 322 321 321 320 320 320
312 313 313 313 313 314 312 314 314 311 310 312 319 323 325 328 331 331 333 333 335 335 336 335 334 335 334 332 333 333 332 331 330 330 329 328 325 325 324 324 324 323 323 322 321 320 320 320 320
314 312 314 313 313 313 312 314 312 309 309 309 310 312 320 323 327 330 332 332 334 335 335 335 335 335 333 332 332 333 333 332 331 330 329 329 328 325 324 324 324 324 323 323 322 321 321 321 320
313 312 313 314 312 312 311 312 310 308 308 308 306 307 311 318 323 328 329 330 331 333 334 335 335 334 333 332 332 331 331 332 332 330 330 329 328 328 325 324 324 324 324 323 323 322 321 321 321
312 313 312 312 311 311 310 312 308 309 307 306 305 306 311 314 318 325 329 329 330 331 332 334 335 335 334 332 331 331 331 330 330 329 329 329 328 327 327 326 325 325 324 324 323 323 321 321 321
311 312 313 311 310 312 309 309 309 308 309 308 305 304 307 310 316 322 327 330 330 331 332 333 334 334 334 331 331 331 330 330 330 329 329 329 328 328 328 327 326 327 326 325 324 323 323 323 323
312 312 311 311 311 311 310 311 310 308 308 308 308 305 307 307 307 311 319 326 329 331 332 333 333 334 334 331 331 330 329 329 329 328 328 328 328 329 329 329 328 328 327 327 326 325 324 325 324
310 311 309 310 311 311 310 308 311 310 308 307 309 307 307 306 306 306 309 310 315 324 330 332 334 335 335 334 331 330 329 329 329 329 328 328 328 328 328 328 329 328 328 328 327 325 325 324 324
310 310 311 311 308 309 306 307 306 308 308 307 306 306 306 308 307 308 309 310 309 309 312 322 330 334 335 334 333 331 329 328 327 326 326 326 326 326 326 326 326 326 325 326 325 325 326 325 323
311 311 311 310 311 308 310 305 304 306 308 306 305 306 306 306 308 309 311 313 313 312 310 311 321 329 333 334 333 332 329 328 326 326 326 326 326 326 325 326 326 326 327 326 326 325 325 323 323
309 311 311 310 309 308 308 304 304 306 308 306 307 308 308 308 308 310 314 317 316 311 310 309 315 324 329 333 331 331 329 327 327 327 326 326 327 327 325 323 322 321 320 319 319 319 318 318 318
311 308 309 309 310 308 306 306 305 307 306 307 310 308 307 307 308 309 312 316 316 314 312 315 320 325 327 329 330 328 326 324 324 325 323 322 321 320 319 319 317 315 315 315 315 314 315 314 314
309 307 308 310 312 308 305 310 309 307 305 308 309 308 307 307 307 307 308 311 317 317 319 320 321 322 324 326 326 325 322 321 321 320 320 319 317 314 309 307 307 307 306 306 305 305 305 306 306
310 310 308 307 298 308 305 306 307 306 308 309 309 308 307 306 306 306 307 308 311 316 316 318 319 319 321 322 323 322 319 318 316 314 311 307 305 304 303 301 301 300 300 299 299 299 299 299 299
308 307 309 306 307 309 307 307 306 306 305 310 309 308 307 306 305 304 305 306 307 308 310 313 313 313 314 314 314 313 309 307 306 305 302 300 299 299 298 298 298 297 297 296 296 296 296 295 295
307 306 307 309 307 309 307 306 303 307 305 309 309 308 307 306 305 304 305 306 306 306 307 306 306 306 306 306 305 304 302 300 299 298 298 298 297 297 296 296 295 294 294 294 293 293 293 293 293
308 307 307 308 308 308 308 307 307 305 304 307 309 308 306 305 305 303 304 305 304 304 304 304 303 303 302 301 300 298 298 297 297 296 296 295 295 294 294 293 293 293 292 292 292 291 291 291 291

GFSSGP_925_thetae_090.txt.gz
Theta_e
318 316 319 319 319 317 322 327 324 324 327 322 324 331 334 334 338 336 336 337 335 334 333 334 335 331 332 335 335 335 333 333 333 332 333 333 332 331 331 330 329 330 331 331 332 333 330 328 328
317 316 319 313 320 322 317 321 326 325 322 323 325 328 334 339 335 336 337 336 334 332 331 331 330 331 332 336 336 334 331 332 333 332 333 335 333 331 330 329 329 330 330 332 333 331 328 328 327
316 317 314 316 317 320 321 322 324 323 321 321 324 326 332 338 334 336 337 336 334 331 331 330 331 333 335 337 336 332 328 331 330 332 334 336 332 331 329 330 328 328 330 331 330 327 325 325 325
317 315 310 314 319 317 319 321 320 319 319 321 324 330 331 333 335 337 337 335 334 332 331 330 331 336 336 336 334 331 329 331 332 331 332 331 330 328 329 328 327 328 330 328 328 325 323 324 324
316 312 316 317 317 317 319 319 317 319 318 321 326 333 334 335 337 337 336 334 331 331 328 330 331 335 336 335 334 330 330 332 332 330 330 331 329 326 328 328 328 328 329 326 325 323 322 322 322
314 312 316 318 318 319 320 317 316 317 318 326 330 331 333 335 335 334 335 333 326 326 327 328 331 334 335 335 331 326 324 325 330 328 328 329 328 328 326 329 327 329 327 325 322 322 321 319 319
316 315 317 318 314 316 318 315 315 316 316 322 327 332 332 334 333 333 333 329 325 326 325 327 331 335 335 334 329 326 322 320 325 327 324 324 325 328 326 327 326 328 326 322 321 320 319 318 318
314 315 318 318 315 317 316 315 312 314 317 318 326 332 337 334 334 334 332 326 326 325 323 324 327 332 334 331 329 326 320 317 320 323 322 320 324 327 329 326 325 324 324 323 321 320 320 319 318
314 315 317 318 315 317 315 315 314 315 318 323 326 327 331 334 335 334 334 333 330 327 324 320 321 327 331 330 330 327 322 318 316 317 319 318 323 324 327 327 325 323 322 321 320 320 320 322 321
314 316 318 316 314 315 314 315 315 319 320 330 329 327 334 333 336 335 334 333 332 328 325 323 320 321 327 329 329 327 324 319 320 321 321 322 324 322 318 318 320 322 321 320 319 320 323 322 322
314 317 316 316 314 314 314 313 313 316 319 328 331 332 332 331 335 335 334 334 332 329 325 324 324 322 321 325 327 327 325 321 324 325 324 323 323 323 318 316 316 317 317 317 318 319 320 320 322
315 315 314 315 314 314 314 312 314 314 314 320 329 331 332 331 330 334 335 334 333 332 331 329 330 330 326 322 323 324 325 327 324 326 325 324 324 322 323 323 322 322 323 321 319 318 319 318 317
314 314 314 313 314 314 312 313 312 313 312 327 329 330 331 331 329 332 335 335 334 333 333 331 331 331 331 329 326 327 328 329 329 327 325 324 322 323 324 324 324 323 322 322 321 319 319 318 319
314 313 313 313 313 313 313 313 313 312 316 329 330 329 329 330 330 331 333 335 334 334 333 333 332 332 331 331 329 330 330 330 330 329 328 325 324 324 324 324 324 323 323 322 321 320 320 320 320
313 313 313 312 312 314 311 314 313 310 321 330 329 327 328 329 330 331 331 333 334 334 333 334 333 332 331 331 331 331 330 330 330 330 329 327 324 324 324 324 324 323 323 323 321 321 320 320 320
313 312 313 312 312 312 312 314 312 308 319 324 325 323 326 326 329 331 333 333 334 334 334 334 334 333 332 332 331 331 330 330 329 329 329 328 327 325 324 324 324 324 323 323 323 322 321 321 321
312 312 312 313 311 310 312 312 311 307 311 316 315 317 321 323 325 330 332 333 333 334 335 335 334 334 333 333 331 331 332 331 331 329 328 328 327 327 325 324 324 323 323 324 323 323 322 322 321
314 312 312 312 311 310 310 311 308 306 307 307 307 307 310 317 323 328 330 332 332 333 334 335 335 334 334 333 331 331 331 331 331 330 329 328 327 327 326 326 325 324 324 325 323 323 322 322 322
311 312 312 311 310 310 309 310 307 307 306 304 303 304 305 310 318 324 328 329 331 332 333 335 335 335 334 332 331 331 331 330 330 329 329 329 328 328 328 327 327 326 326 326 325 324 324 324 325
310 312 312 310 310 310 308 309 308 306 306 305 305 303 304 309 308 316 323 327 328 330 332 334 334 334 334 333 331 329 329 329 329 329 328 328 328 328 328 328 328 328 327 327 327 326 326 325 324
311 310 309 310 310 310 308 309 310 308 306 307 305 304 303 307 306 307 313 325 327 329 330 332 333 334 334 333 331 329 329 328 328 328 328 328 328 327 328 328 328 328 328 327 327 326 325 325 324
312 309 309 310 308 310 307 309 305 308 307 306 306 305 304 303 304 304 307 309 319 325 329 330 332 333 333 333 331 329 329 327 327 326 327 327 327 327 326 326 326 326 326 325 325 325 325 323 322
311 309 310 309 308 308 308 305 304 305 307 306 306 304 304 304 304 305 307 309 310 310 313 320 329 332 333 333 333 331 330 327 326 325 326 326 325 325 325 325 325 325 325 324 323 320 319 319 319
309 310 308 310 308 308 307 305 304 305 306 307 305 304 304 305 307 308 312 313 313 312 311 310 315 329 333 334 334 331 330 328 326 325 325 326 327 327 326 325 322 320 319 318 317 316 316 314 314
310 310 310 311 311 311 306 304 306 306 305 305 306 305 306 307 307 309 312 314 313 311 310 310 312 324 330 333 331 331 329 328 326 326 325 325 323 321 319 319 318 315 314 312 311 310 308 307 306
310 309 309 311 311 306 305 308 307 305 305 304 305 306 306 307 307 309 312 314 314 313 312 312 321 325 329 332 330 329 327 325 324 324 322 319 317 317 314 309 307 306 304 302 301 300 300 299 299
309 309 306 307 298 307 305 305 305 306 309 308 307 308 307 306 307 307 308 312 315 316 318 319 322 324 327 329 326 323 323 322 320 317 317 316 310 306 304 301 300 299 298 297 296 296 295 294 294
308 307 310 307 310 309 305 305 306 306 307 308 308 309 307 306 305 304 305 308 312 315 317 318 320 321 321 322 321 322 320 317 316 313 309 305 301 299 298 297 296 295 294 294 293 293 292 292 291
307 307 306 308 308 309 307 306 302 306 306 309 309 307 306 305 304 303 303 305 307 310 311 312 314 315 316 318 317 318 314 309 305 302 299 298 297 296 295 294 294 293 292 292 292 291 290 290 290
307 306 307 310 308 306 307 305 303 302 303 307 307 307 305 304 303 302 303 303 304 305 306 307 307 309 310 310 309 305 303 300 299 297 296 295 294 294 293 292 292 291 290 290 290 289 289 288 288

GFSSGP_925_thetae_093.txt.gz
Theta_e
316 316 317 319 317 316 321 325 323 325 325 323 328 329 331 334 334 331 335 336 335 331 332 333 331 330 336 335 333 332 330 333 334 334 333 332 333 331 330 329 330 331 331 334 334 329 328 327 327
316 316 318 312 319 322 318 318 323 324 325 329 325 329 333 339 334 335 336 336 333 331 334 335 332 333 335 335 333 330 332 331 334 335 334 332 331 330 329 329 329 330 334 332 332 328 326 325 326
316 317 313 315 315 319 319 321 323 321 323 320 328 327 333 337 334 335 336 336 333 331 331 331 331 333 335 335 330 330 331 332 334 337 332 332 330 330 328 328 329 329 332 330 329 327 326 324 325
317 314 310 314 319 317 318 320 320 318 318 323 328 333 331 333 335 336 337 334 331 332 329 329 331 335 336 334 329 327 329 330 333 333 332 330 329 330 327 328 328 329 328 328 327 325 324 323 323
314 310 315 315 316 316 316 319 316 319 318 322 326 334 335 334 336 337 335 333 331 331 329 330 335 336 336 334 329 327 330 331 332 332 331 329 328 328 327 328 326 327 327 327 323 322 322 322 321
313 311 315 317 316 319 320 317 316 317 321 327 330 331 333 334 337 337 335 333 330 328 329 331 336 336 335 334 327 325 330 330 328 329 330 327 326 329 326 328 326 327 327 324 321 320 319 319 320
315 314 316 316 314 320 319 314 315 317 323 324 327 333 333 331 335 336 334 331 328 326 328 331 334 335 334 330 324 323 326 328 325 323 326 326 328 325 326 327 328 326 324 320 320 318 318 318 320
312 313 316 315 314 319 315 315 314 316 315 323 326 332 337 331 334 334 332 327 326 327 328 331 334 335 334 328 325 321 318 324 326 320 320 324 327 326 325 325 326 325 322 320 319 319 319 318 318
311 314 316 317 313 315 313 314 313 315 317 322 324 327 331 332 333 332 330 330 327 327 329 332 334 335 332 329 326 321 318 319 319 318 318 323 326 328 327 325 323 322 321 319 319 319 320 321 320
313 315 316 315 312 314 313 313 314 319 325 329 327 326 332 332 332 332 331 330 330 327 326 329 333 333 331 329 326 322 318 316 315 317 318 321 321 320 321 321 324 322 321 319 319 320 322 321 321
313 316 315 315 313 313 313 313 313 317 321 325 327 331 331 333 332 332 331 329 327 326 324 324 327 330 328 327 326 323 319 318 320 320 321 323 322 320 317 316 317 316 318 318 318 319 320 318 319
314 313 313 315 314 313 313 311 316 315 316 318 325 332 332 333 333 333 332 331 329 326 324 323 322 325 328 326 326 324 322 319 324 324 323 323 322 322 318 320 320 322 323 320 318 318 318 317 317
314 313 313 313 312 312 311 313 315 314 313 324 328 332 331 333 333 333 333 333 331 326 324 324 324 323 324 325 325 324 324 323 323 324 324 323 322 322 323 324 323 322 322 322 321 319 319 319 319
312 312 312 312 313 312 313 313 313 312 322 327 330 332 331 330 330 333 334 333 332 330 328 326 329 329 327 324 323 324 325 328 328 327 325 324 323 322 323 324 324 323 323 322 321 320 320 320 320
312 312 312 312 312 313 311 313 312 310 326 328 328 329 330 330 329 331 334 333 333 332 331 330 330 331 331 330 327 328 328 329 329 329 328 326 324 324 324 324 324 323 323 322 322 321 321 321 321
314 311 313 312 311 311 312 314 312 312 327 328 327 325 326 326 328 330 333 334 334 333 333 332 331 331 331 331 331 330 330 330 330 329 329 328 326 324 324 324 324 324 323 323 323 323 323 322 321
316 314 311 313 310 311 311 313 311 308 326 328 327 326 326 326 326 329 331 334 334 334 333 333 332 332 331 330 330 330 330 329 329 328 328 327 327 327 326 324 324 323 323 323 323 323 322 322 322
323 312 311 313 311 310 311 310 309 306 318 324 325 322 323 325 327 328 330 332 333 334 334 333 333 333 332 331 331 330 331 330 330 329 328 327 326 325 325 326 326 325 324 324 324 323 323 324 324
311 312 312 311 310 310 310 311 308 306 306 310 310 312 317 322 325 327 330 330 331 332 334 333 333 333 333 332 332 330 331 331 331 331 329 328 327 326 326 326 326 326 326 326 326 326 325 325 324
315 312 312 310 310 310 309 311 308 305 306 306 309 306 309 311 311 319 325 328 329 330 331 333 334 334 334 333 333 331 329 329 330 330 330 329 328 328 328 328 328 328 328 328 327 326 325 324 324
318 313 312 313 310 309 308 310 309 308 305 306 303 303 303 305 310 309 316 323 327 327 329 331 333 334 334 334 333 331 329 327 329 329 329 328 327 327 327 327 328 328 328 328 326 325 325 324 323
320 314 310 310 312 315 308 312 306 307 307 305 304 303 302 301 305 306 311 317 323 325 327 330 332 333 334 334 333 331 329 328 327 326 326 326 327 327 327 327 326 326 326 326 326 325 323 321 320
318 309 311 311 310 308 307 306 306 304 309 307 305 303 302 300 302 304 306 314 321 324 326 329 331 332 333 333 333 332 329 328 326 325 326 326 326 326 326 326 326 325 324 323 321 318 317 316 315
310 312 311 310 309 310 310 307 307 303 306 309 307 306 303 302 301 303 306 308 310 313 319 325 329 331 332 332 333 332 329 328 326 325 325 326 326 326 325 325 324 320 318 318 316 315 314 312 310
312 315 317 318 315 313 304 305 313 304 303 305 308 306 302 303 304 305 309 312 312 311 311 312 316 327 331 332 332 332 331 329 327 325 325 326 325 324 322 319 318 318 315 312 309 307 304 302 300
314 315 314 317 316 313 304 306 307 303 303 303 303 302 302 304 305 307 310 312 313 312 311 310 309 314 329 331 330 331 330 329 327 325 325 325 322 317 315 316 311 307 304 301 299 298 297 295 294
315 316 312 308 299 307 306 305 304 304 304 307 305 304 305 305 306 308 310 313 313 313 311 309 309 312 323 328 329 330 330 328 326 325 323 320 316 316 313 306 302 299 297 296 295 294 293 292 291
312 312 310 308 311 306 303 303 309 306 305 306 306 305 305 306 306 306 307 311 313 314 314 314 316 320 323 327 329 328 327 325 322 319 317 315 313 307 301 298 297 295 294 293 293 292 291 290 290
313 311 308 309 309 310 306 306 301 305 305 305 307 306 306 306 305 304 305 309 312 313 315 316 318 320 322 324 325 322 321 317 318 316 313 308 302 298 297 295 294 293 292 291 291 290 290 289 289
309 311 309 313 308 305 308 307 303 301 302 305 306 306 304 305 304 302 303 304 306 309 311 313 313 316 318 318 316 315 317 317 315 307 301 298 297 294 294 293 292 291 290 290 289 289 289 289 289

GFSSGP_925_thetae_096.txt.gz
Theta_e
317 316 316 318 316 315 321 325 322 325 324 326 328 327 332 333 334 332 334 336 332 333 335 333 335 336 334 331 330 330 331 334 333 332 333 331 330 330 331 330 330 332 335 334 331 330 328 326 326
316 315 317 311 317 319 318 317 324 322 326 327 326 330 333 338 334 334 335 336 330 329 332 333 331 335 334 331 329 332 330 334 334 333 331 330 330 329 329 330 332 331 333 332 329 327 326 326 324
316 317 313 314 314 319 319 319 321 324 327 320 329 328 332 336 333 334 336 335 331 335 335 333 333 334 335 330 330 329 331 335 334 333 331 330 328 328 329 328 329 329 330 330 329 327 324 324 324
316 314 309 314 319 317 316 319 319 322 319 326 328 333 331 331 334 336 336 333 331 334 333 331 333 334 335 328 330 330 332 336 334 332 330 330 328 327 327 328 328 327 328 328 328 326 322 323 323
314 310 314 314 316 314 312 318 316 317 318 323 326 334 334 334 334 337 336 333 328 329 329 331 334 336 334 327 328 329 330 333 332 330 328 330 327 328 328 325 327 327 328 327 326 325 321 321 322
314 311 314 316 316 316 318 316 316 316 321 328 330 331 333 335 337 336 334 331 329 328 331 334 335 336 333 326 328 331 329 329 330 330 329 326 327 327 328 325 322 324 325 322 321 319 318 320 320
315 314 316 314 315 320 321 313 315 317 324 326 327 333 332 332 335 335 334 332 330 329 332 336 335 335 333 326 325 330 329 324 323 325 328 325 324 326 327 327 325 323 320 319 318 318 318 319 320
310 312 315 315 314 321 315 314 313 319 318 324 325 330 334 332 335 335 333 331 329 330 332 335 335 335 331 325 322 325 328 322 317 320 327 327 324 325 325 326 326 323 320 319 318 318 318 318 319
309 314 315 316 313 317 312 315 312 314 325 323 324 325 328 333 334 333 332 332 331 330 332 335 335 334 329 324 320 318 321 318 316 318 323 326 326 326 324 323 323 322 320 318 319 319 321 321 320
312 314 316 314 311 313 312 313 312 319 325 327 326 328 330 332 332 330 329 328 330 330 332 336 335 334 328 324 319 317 317 316 316 316 320 321 324 325 324 324 323 321 320 319 319 320 320 320 320
312 316 315 315 313 312 312 313 314 318 324 323 325 329 330 331 331 329 328 326 324 326 330 333 335 333 328 326 322 319 316 316 316 317 320 320 319 317 316 317 318 316 318 317 318 318 319 317 317
314 312 313 315 313 312 311 311 315 317 317 316 322 329 330 331 330 329 327 326 324 324 324 330 333 333 329 327 324 320 317 318 319 320 321 321 321 319 317 318 318 321 322 320 318 319 319 318 318
314 313 311 310 312 312 310 312 314 314 313 321 327 330 331 330 331 330 328 326 325 324 322 324 327 329 329 328 326 324 320 320 323 323 323 322 321 322 322 322 322 322 322 322 321 320 319 320 320
313 315 311 310 310 311 312 312 314 313 324 327 330 330 331 331 331 331 331 329 327 325 323 322 322 323 325 326 326 324 323 321 322 324 324 323 323 321 323 323 323 323 323 322 321 321 320 320 320
316 319 315 312 311 312 311 313 312 311 324 328 329 329 329 331 331 331 332 331 331 327 323 323 322 322 323 323 323 323 323 326 327 327 327 325 324 323 323 323 323 323 323 322 322 322 322 322 322
324 320 322 315 311 312 312 315 312 314 325 327 326 327 328 327 328 331 333 333 333 331 326 323 324 327 328 326 325 324 326 328 329 329 328 328 327 324 324 323 323 323 323 323 323 323 323 322 322
321 330 322 322 310 310 311 314 311 314 324 325 325 323 326 327 326 329 332 334 334 333 331 329 328 330 330 330 329 329 329 329 329 328 328 328 327 326 325 324 324 323 323 323 323 322 322 322 323
326 326 314 323 313 309 311 309 309 307 323 325 325 323 324 326 327 327 330 333 334 334 333 332 331 330 330 330 330 329 329 329 328 328 328 327 326 325 324 324 324 325 325 324 324 326 325 324 325
324 325 324 311 310 311 310 311 311 306 309 321 323 324 324 325 326 327 328 330 333 334 333 332 332 332 331 330 329 329 329 329 329 329 329 328 327 326 325 325 325 326 326 326 326 326 325 323 323
318 321 322 311 309 309 310 310 309 305 306 313 320 320 322 320 318 323 326 328 330 332 333 333 332 332 332 331 330 330 329 328 328 330 331 329 328 328 327 327 327 328 328 328 327 327 325 323 323
318 320 320 313 310 308 309 311 309 307 304 305 304 310 313 318 318 316 320 324 328 329 330 332 333 332 332 332 332 331 331 329 327 329 330 330 330 328 327 327 327 327 328 327 326 325 324 323 320
322 316 314 312 312 320 308 316 311 307 307 304 305 302 304 303 305 310 314 319 323 327 329 330 331 332 333 333 332 332 331 329 328 326 326 327 327 326 327 327 327 326 327 325 325 324 323 320 316
321 313 313 313 312 310 314 308 312 304 307 307 305 303 303 302 301 303 307 315 322 325 327 328 329 330 332 332 332 332 332 331 329 327 325 326 326 327 327 326 326 325 325 323 320 318 317 316 314
313 315 315 315 316 318 317 310 313 309 305 308 307 305 304 301 299 299 305 309 314 320 322 324 326 329 330 332 332 332 332 331 329 326 325 326 326 326 325 325 325 324 319 318 317 316 314 310 306
314 319 320 321 320 321 309 308 314 308 303 307 309 308 304 302 299 299 302 306 309 314 318 322 325 328 330 331 331 332 332 332 331 326 324 325 325 325 324 323 321 317 317 315 312 308 303 299 297
316 319 320 322 319 315 303 309 313 305 302 301 302 302 302 300 300 301 303 306 309 311 314 317 320 326 328 329 330 331 331 332 331 327 325 324 324 323 321 318 315 316 310 305 301 298 295 293 292
315 319 311 309 302 310 308 306 305 303 302 303 303 302 301 300 302 304 305 309 310 311 311 311 311 314 322 328 329 328 330 330 330 327 325 324 323 320 315 314 312 305 300 297 295 294 292 291 290
316 314 318 312 311 310 306 305 313 307 305 303 304 304 304 301 303 304 306 309 311 311 311 311 310 309 310 321 327 327 327 329 328 327 325 322 318 314 313 311 301 297 295 294 293 292 291 290 289
315 317 313 313 308 310 307 306 302 307 306 305 305 305 305 302 304 304 305 310 312 312 312 312 311 310 311 318 323 325 326 327 326 325 323 317 313 311 308 300 296 294 293 292 291 290 290 289 289
312 314 314 319 312 305 308 307 303 301 300 302 303 304 304 303 303 303 304 307 309 310 312 313 313 312 314 317 320 323 324 324 323 320 315 312 310 303 298 295 293 292 291 290 290 289 289 289 288

GFSSGP_925_thetae_099.txt.gz
Theta_e
316 315 317 318 320 320 322 324 321 325 324 325 325 330 334 333 336 336 334 335 334 336 336 336 336 331 329 330 330 332 331 332 333 332 332 332 332 331 330 331 332 334 333 331 331 331 329 327 325
315 316 317 314 319 321 321 317 324 323 331 327 327 330 333 339 333 334 335 335 336 336 335 335 335 332 330 329 329 333 334 332 332 330 330 329 329 330 332 330 329 333 333 331 330 330 328 324 321
315 316 317 317 317 320 321 317 322 324 327 321 330 329 333 337 332 334 336 332 332 334 332 331 334 333 329 331 330 333 335 333 332 330 329 329 330 329 329 330 328 328 329 329 328 326 324 323 322
316 314 311 317 318 317 316 318 320 328 321 324 329 336 331 331 333 335 335 331 333 335 333 331 333 334 328 329 329 335 335 333 332 330 330 328 328 329 328 328 327 327 329 328 327 324 324 326 322
313 312 316 315 316 314 311 317 322 321 320 325 326 334 335 334 334 337 334 332 334 334 332 333 334 334 327 329 328 333 334 332 329 330 329 327 328 325 327 327 327 327 328 327 326 323 321 321 320
315 311 316 316 315 315 317 316 317 317 320 327 331 333 334 333 334 336 334 332 331 331 331 332 335 333 327 328 329 330 332 331 327 325 328 327 328 328 323 323 326 327 326 325 323 319 319 319 319
315 316 316 314 315 319 320 313 316 319 324 327 328 335 332 334 334 335 334 331 329 330 333 334 336 333 327 328 330 327 325 327 325 324 325 326 327 328 327 323 323 325 324 320 318 317 317 319 320
312 314 315 314 315 319 316 314 313 320 322 323 326 331 336 333 333 335 333 331 330 331 335 336 336 333 326 326 329 327 319 319 324 327 323 324 326 327 327 324 323 320 319 318 318 318 317 318 320
310 316 317 317 315 318 312 314 311 315 326 323 324 326 327 332 333 333 331 331 332 332 335 335 335 333 326 322 324 324 321 318 321 326 326 324 324 324 324 323 322 320 319 318 318 320 321 320 320
313 316 318 315 311 314 313 314 313 321 325 325 325 327 330 332 333 331 328 327 328 332 331 333 334 332 325 321 322 324 321 317 318 321 325 325 326 325 323 322 321 320 319 318 318 319 319 319 318
312 317 315 315 313 312 313 312 313 320 325 323 326 328 330 332 332 329 327 327 327 331 330 331 333 332 326 322 320 321 320 317 316 319 319 320 319 318 317 319 317 318 317 317 317 318 318 317 317
315 311 311 311 310 312 312 310 315 317 318 315 322 328 330 331 330 328 327 326 325 330 332 331 332 332 328 324 320 318 317 317 316 319 321 320 319 317 317 317 320 321 322 320 319 319 319 319 319
314 314 312 310 310 311 310 312 314 315 313 318 326 329 330 330 330 329 328 325 324 326 328 333 331 332 328 326 322 319 317 317 319 320 321 321 321 321 320 322 321 321 321 321 321 320 320 320 320
314 317 314 313 310 311 312 311 312 313 321 325 329 330 330 331 330 329 328 325 324 324 326 327 331 332 328 326 324 322 319 320 322 323 323 322 321 321 323 323 323 323 322 322 322 321 321 321 321
318 321 321 321 311 312 310 313 312 311 323 327 328 330 329 330 329 330 329 327 323 323 322 323 326 328 326 325 325 324 323 321 321 323 324 323 323 322 322 323 323 323 323 323 323 323 322 322 321
323 321 326 323 313 311 311 316 313 313 324 327 327 328 331 329 330 330 330 330 327 323 322 321 320 321 325 325 324 324 324 323 326 327 327 327 326 324 323 323 323 323 323 323 323 321 321 322 321
321 328 323 323 315 312 311 314 311 313 322 324 326 327 329 329 327 330 331 331 331 328 325 322 322 321 321 322 323 323 323 324 327 328 328 328 327 325 325 324 324 323 323 323 322 321 322 323 323
327 326 322 326 319 309 311 310 309 308 321 321 324 325 327 328 328 328 331 332 332 332 331 324 322 322 324 327 327 326 326 328 329 327 326 326 326 325 324 323 323 323 324 323 322 323 324 322 322
324 326 324 315 312 318 313 311 312 308 315 320 321 324 326 327 328 328 330 331 332 332 332 330 327 325 327 329 329 328 328 329 329 327 326 327 327 326 325 324 323 323 324 326 326 325 325 322 321
324 327 328 320 312 313 318 320 311 306 306 312 320 322 323 323 322 325 327 329 330 332 333 332 331 330 329 329 330 329 329 329 327 327 327 329 328 327 326 326 326 327 327 327 327 326 325 322 320
323 327 325 323 312 309 308 312 314 307 304 304 309 317 319 322 323 322 323 326 328 329 331 333 333 332 331 331 330 329 329 329 328 328 329 330 329 328 328 328 326 326 326 326 325 325 323 322 319
324 317 315 316 319 326 310 315 317 312 308 304 306 304 311 316 317 319 319 322 325 328 330 331 333 333 332 331 330 330 330 329 329 328 326 326 328 329 328 326 327 326 327 327 325 323 322 320 316
323 316 315 315 316 318 312 314 316 309 309 308 306 304 305 307 311 313 315 319 324 326 328 330 330 331 332 332 331 331 330 330 330 329 327 325 327 327 326 326 327 327 325 325 322 319 318 316 314
315 316 316 315 318 321 319 317 318 313 310 309 308 307 306 305 303 305 309 313 317 321 325 327 328 329 330 331 331 331 330 331 331 329 327 325 325 326 327 327 326 325 324 320 318 317 316 311 306
317 321 322 321 320 323 309 315 321 315 306 308 309 307 307 305 303 301 300 302 306 313 319 323 325 326 328 329 330 330 331 331 331 332 329 324 325 325 326 325 324 323 319 317 316 314 309 301 297
318 320 322 325 320 317 306 318 317 312 316 314 304 303 304 303 301 302 302 302 304 306 311 318 322 324 326 327 328 330 330 331 331 332 330 324 324 324 324 323 321 318 316 315 310 303 297 294 292
316 321 311 313 299 308 308 308 307 304 303 302 301 302 303 302 301 302 302 302 304 305 308 313 318 322 324 325 327 328 328 330 330 330 329 325 324 324 322 321 317 313 312 305 299 296 293 292 290
315 313 319 316 322 316 311 307 315 308 306 304 303 304 304 302 301 301 302 303 305 306 308 312 316 319 323 325 326 327 326 328 330 329 328 325 324 322 320 315 312 311 302 297 294 292 291 290 289
317 318 316 315 310 314 310 311 302 310 308 305 305 304 304 304 302 302 304 306 307 308 309 310 311 312 313 319 325 325 326 326 328 328 327 325 323 320 315 311 312 304 296 294 292 291 290 289 289
313 317 314 317 315 306 308 308 304 300 303 302 302 302 303 303 302 302 304 306 308 309 310 310 310 310 309 309 314 322 325 326 326 326 325 323 321 315 312 309 305 296 293 292 290 290 289 289 288

GFSSGP_925_thetae_102.txt.gz
Theta_e
316 316 317 322 325 325 327 328 326 328 329 326 330 334 335 337 337 338 337 336 337 339 339 339 335 334 330 330 328 331 333 333 334 333 334 333 331 332 332 333 331 332 332 332 331 330 329 326 325
315 317 320 323 326 328 327 326 328 328 332 330 332 335 336 340 335 336 337 336 337 338 340 339 331 329 328 330 332 331 331 332 331 331 332 332 331 330 330 331 332 332 331 331 330 329 327 326 324
315 316 322 324 323 329 325 325 328 332 328 330 333 333 336 339 334 336 337 336 338 339 339 337 332 327 328 330 334 333 330 330 331 331 331 330 330 331 328 327 329 330 330 329 329 328 327 326 323
317 319 318 324 324 322 322 324 327 332 325 327 331 336 335 334 334 335 336 337 337 336 336 335 333 328 330 330 335 333 331 330 330 329 331 330 329 328 328 328 327 329 329 328 328 328 326 323 321
316 320 322 323 321 320 318 320 327 330 326 331 331 336 338 335 336 336 336 334 335 335 335 337 333 328 328 330 336 334 332 330 331 329 328 328 328 327 328 327 328 328 328 327 326 324 322 321 320
321 320 323 324 322 319 322 322 328 325 327 330 331 335 338 336 335 336 335 335 336 335 335 337 334 329 329 330 335 334 329 325 329 327 329 329 324 325 326 328 327 327 326 325 322 319 319 319 319
322 323 324 322 322 321 323 323 327 325 327 329 331 333 335 335 336 337 335 336 335 334 334 337 337 331 328 328 331 332 330 324 327 328 327 328 328 325 322 325 326 326 323 319 318 317 318 320 319
320 322 323 321 321 321 323 321 320 325 325 328 331 330 337 333 334 335 335 334 333 334 335 338 337 334 331 332 328 328 328 326 323 326 327 327 328 326 323 323 322 321 319 318 318 319 319 319 319
315 323 324 323 320 321 321 321 317 321 328 329 329 327 332 335 334 334 333 332 332 335 335 337 336 334 331 331 329 326 326 326 327 324 325 327 328 328 327 323 320 319 319 319 320 320 320 319 318
320 325 323 319 318 319 321 321 319 324 328 329 329 330 334 334 333 333 332 331 330 331 334 335 335 333 330 329 330 328 324 325 328 328 327 327 327 326 324 321 320 319 318 318 319 318 317 319 320
319 325 319 315 317 315 318 319 320 322 326 325 328 331 334 334 334 333 332 330 330 330 333 335 334 333 329 327 328 327 324 324 325 327 326 326 325 324 324 322 321 321 318 320 320 320 320 319 320
321 315 316 315 313 315 317 316 319 321 321 320 325 330 332 333 333 332 330 330 328 330 332 333 333 333 329 326 325 325 324 322 323 324 320 322 321 321 320 321 322 324 323 323 322 322 319 320 320
320 315 315 313 314 314 313 316 318 319 318 319 326 331 333 333 333 332 331 328 326 328 331 333 332 333 329 325 324 323 323 322 322 323 322 323 323 322 322 322 323 323 323 323 323 322 322 322 321
320 318 318 316 315 313 315 315 315 318 320 323 330 332 333 333 333 331 331 328 325 327 328 332 333 333 330 327 325 323 322 322 322 324 323 322 323 324 324 324 325 325 324 323 323 322 322 323 322
319 321 321 321 318 314 313 318 316 316 322 325 329 331 333 332 333 331 332 330 325 325 328 329 331 332 329 328 326 325 322 322 324 325 323 322 323 323 324 325 325 325 323 323 323 323 323 323 323
322 322 325 323 319 318 318 324 320 316 322 324 327 330 333 332 332 333 333 331 325 323 325 328 330 330 332 329 328 327 325 323 324 325 325 324 324 323 324 324 325 324 323 324 323 321 323 323 324
325 328 326 326 321 324 319 323 319 313 321 322 326 330 332 332 332 332 333 331 329 324 324 325 327 328 329 329 328 328 327 326 326 327 328 327 327 326 325 324 324 324 323 323 322 321 322 322 323
329 327 326 327 322 320 326 325 316 318 316 319 322 328 331 332 332 332 332 332 331 329 326 325 325 325 326 327 328 327 327 327 327 329 328 327 326 325 324 323 323 324 323 323 321 321 321 322 323
327 327 328 326 318 323 325 326 322 320 316 316 320 324 329 330 330 331 332 332 332 332 330 328 325 325 325 326 326 327 327 327 328 330 328 326 326 325 325 324 323 322 322 323 325 325 324 323 322
326 328 329 321 316 322 327 327 326 326 324 318 317 319 324 328 330 330 331 332 332 333 332 331 329 326 325 326 328 329 329 330 330 329 327 326 326 327 326 325 324 324 324 324 324 325 324 322 320
327 329 329 327 319 316 312 323 325 323 324 324 315 315 320 325 328 329 329 331 332 333 333 333 332 330 327 327 329 330 331 331 331 329 327 327 327 327 328 326 326 326 326 324 324 324 324 322 319
327 322 323 319 323 330 318 331 329 324 324 323 315 313 317 321 325 326 328 329 330 331 333 332 333 332 331 330 330 330 331 331 330 329 327 327 327 327 328 328 328 326 325 324 324 325 322 321 320
323 318 320 319 321 320 321 322 328 324 322 322 323 317 314 316 321 325 326 327 329 329 330 332 333 333 332 331 331 331 331 332 331 330 328 327 325 327 328 328 327 325 325 325 325 323 320 318 317
316 317 317 317 320 324 327 324 329 328 323 322 321 316 314 313 314 319 323 324 326 327 328 329 331 332 332 332 332 331 331 332 332 330 329 327 326 325 327 326 325 326 326 325 323 319 317 316 313
319 323 325 325 326 330 314 326 327 325 324 321 320 318 315 314 313 313 316 319 321 323 325 327 328 330 331 332 332 332 332 332 332 331 329 328 326 325 325 325 326 326 325 323 318 317 316 311 303
320 324 325 327 326 325 313 323 323 319 320 320 313 313 314 313 312 312 311 312 315 318 321 323 325 328 329 331 331 331 331 332 332 331 330 327 327 325 324 324 325 324 323 318 315 315 310 301 295
318 324 316 317 306 317 319 317 314 313 313 308 313 317 314 311 310 309 309 308 309 310 314 319 322 325 327 329 330 330 330 331 331 331 331 327 328 325 324 324 324 322 318 315 314 308 299 294 292
319 316 321 322 329 327 323 317 320 318 317 314 310 310 313 314 308 307 307 306 306 307 308 311 317 322 325 327 328 329 329 329 329 329 328 326 328 324 323 323 321 318 315 311 307 298 294 292 290
318 319 319 319 322 325 325 322 315 313 313 313 311 308 308 309 309 308 306 305 306 306 307 308 310 315 321 325 327 327 327 327 327 326 326 328 328 324 323 321 318 313 311 307 298 294 292 290 290
318 319 319 323 321 317 317 321 308 306 305 306 308 307 307 306 308 307 307 307 308 308 308 308 309 310 314 321 324 325 325 325 325 325 327 328 326 323 322 319 314 309 307 302 294 292 290 290 289

GFSSGP_925_thetae_105.txt.gz
Theta_e
318 319 320 324 329 328 333 330 327 328 330 328 332 333 335 338 340 347 337 337 340 339 339 337 335 334 328 328 332 336 336 336 334 334 333 334 335 335 334 332 331 334 333 331 329 327 326 326 325
316 318 321 325 329 334 333 329 328 328 331 331 333 334 335 342 338 338 337 338 339 339 339 338 334 329 330 329 331 332 332 333 333 333 332 334 333 333 334 333 330 332 331 329 328 328 326 326 325
316 317 324 326 329 333 332 327 329 331 330 331 334 335 337 341 337 338 336 337 338 339 339 336 330 327 331 332 331 330 331 331 333 332 334 333 330 329 329 330 331 330 329 329 328 327 326 325 324
317 320 321 325 330 329 327 327 329 331 328 330 331 336 336 336 336 337 336 336 337 338 339 333 328 327 330 334 333 330 330 331 332 330 330 331 330 329 328 328 329 329 329 328 328 327 325 323 320
317 323 324 326 328 324 322 323 329 331 328 330 331 335 339 336 337 336 336 337 337 336 337 336 329 329 330 335 333 331 329 330 330 331 330 328 328 328 327 327 329 328 328 327 326 324 321 320 319
322 323 326 328 328 323 322 323 327 330 328 331 331 334 338 337 336 336 336 335 334 335 335 336 330 328 330 336 334 331 329 330 327 327 327 328 327 327 328 328 328 327 326 325 322 320 320 319 319
324 325 327 328 328 323 323 324 328 328 329 330 329 329 338 336 336 336 335 335 335 334 334 337 335 332 330 334 334 329 326 328 328 329 329 325 323 323 326 326 326 326 322 318 317 319 319 319 318
323 324 327 326 327 326 325 326 327 328 328 329 329 327 334 337 335 336 335 335 334 333 334 336 335 332 332 332 332 330 325 327 328 327 328 327 325 322 322 323 323 320 318 318 320 319 319 318 318
319 325 327 326 326 325 324 325 322 324 328 328 330 327 332 336 336 336 335 334 334 333 334 336 335 333 331 331 329 329 327 325 327 327 327 328 328 328 327 321 319 318 318 320 319 319 319 320 319
322 326 326 323 322 322 323 324 323 324 327 328 330 330 335 335 336 336 334 333 331 332 335 335 336 333 330 329 328 327 325 328 328 327 328 328 328 327 325 320 319 318 318 318 318 317 320 321 322
323 327 325 320 320 318 321 323 322 324 326 325 327 331 335 334 335 334 333 333 331 331 335 335 336 333 330 328 328 326 325 326 328 328 328 328 327 325 326 322 323 321 321 322 323 323 322 323 323
324 324 323 317 316 318 319 320 322 323 324 321 324 329 334 334 335 334 334 333 331 331 334 337 335 334 329 327 327 326 324 325 326 327 327 325 324 323 323 323 325 326 325 325 324 324 323 323 323
324 322 317 316 317 316 316 318 319 321 322 320 325 330 334 334 334 335 334 332 332 330 332 334 335 333 329 326 325 325 324 323 324 325 325 324 324 323 324 324 325 325 325 325 325 324 324 324 323
322 323 318 316 320 315 319 319 317 320 320 322 327 331 333 334 334 334 333 333 329 329 330 332 333 333 330 326 325 324 324 323 324 325 326 326 325 325 326 326 326 326 326 325 325 325 325 324 324
321 323 320 320 323 324 318 324 318 319 321 322 326 330 332 334 334 335 334 333 326 327 328 331 332 332 332 327 326 324 323 323 324 325 326 326 325 326 326 327 327 327 326 325 325 324 324 324 324
322 322 326 324 322 321 322 330 324 320 320 322 324 326 331 333 334 333 333 334 327 324 328 329 330 331 330 329 327 326 324 324 326 326 327 326 326 325 326 326 326 326 326 326 325 324 323 323 323
324 329 326 326 323 323 324 328 327 318 318 320 322 325 328 331 332 332 333 334 330 323 325 329 330 330 329 330 329 328 327 325 325 326 327 327 326 326 326 326 326 326 326 326 324 323 323 323 322
330 328 326 327 325 323 325 326 326 322 320 320 319 322 326 329 331 331 333 334 331 324 323 326 329 330 330 330 329 328 328 327 327 327 329 329 328 327 325 324 323 323 324 323 322 320 321 321 321
328 327 327 326 322 326 326 326 327 326 326 324 320 320 321 327 328 330 332 333 333 328 324 325 326 327 329 329 329 328 328 328 327 328 329 330 328 326 325 324 324 322 322 322 322 322 321 324 322
328 330 329 326 321 324 326 328 326 326 327 327 324 323 320 321 326 328 331 333 333 332 329 325 325 325 326 327 327 327 327 327 327 328 330 330 328 326 325 325 325 323 322 322 323 322 322 321 320
329 331 330 329 322 321 324 328 327 326 326 326 327 326 322 319 323 327 329 332 333 334 333 330 328 327 326 326 326 327 329 330 330 330 331 330 329 327 326 326 325 324 324 324 324 324 323 322 320
329 327 328 324 328 333 324 335 330 328 328 327 328 327 326 321 319 324 327 330 333 333 334 334 333 330 328 326 327 329 331 331 331 331 331 330 327 327 326 326 327 326 326 326 325 324 323 321 322
327 325 327 326 325 324 325 326 329 326 327 328 325 326 327 323 320 321 325 328 330 333 333 334 334 333 331 329 328 330 331 331 332 332 331 330 326 327 327 327 327 327 328 326 325 324 324 320 320
319 320 320 318 323 329 330 327 329 327 327 327 325 324 326 323 319 320 322 326 329 331 333 334 334 334 334 332 331 331 332 333 333 333 331 331 329 326 327 326 327 328 326 325 325 325 322 318 318
322 326 329 329 330 332 321 329 326 325 326 325 326 324 323 324 322 319 321 324 327 329 332 333 334 334 334 334 333 332 332 333 333 333 333 331 329 328 326 324 325 326 325 325 325 324 318 316 316
324 326 325 326 326 324 319 327 325 322 322 320 322 321 318 321 318 318 318 321 325 327 329 331 331 332 333 334 334 333 333 333 333 333 333 332 329 328 327 325 325 324 324 325 324 321 315 315 313
320 326 322 320 312 323 322 321 319 319 318 317 316 317 321 317 315 316 316 315 320 324 326 328 329 330 331 332 333 334 334 334 334 333 334 332 330 328 327 326 325 325 325 324 322 316 314 311 302
322 319 323 325 330 328 322 323 323 321 321 319 318 317 316 316 318 315 312 312 313 314 318 322 325 327 328 330 331 332 333 333 333 333 333 333 331 327 327 326 324 324 324 322 318 314 309 303 295
321 322 323 323 325 327 326 322 320 318 310 312 313 311 310 310 310 312 312 310 309 309 310 312 317 321 324 326 329 330 331 332 332 332 332 331 330 328 326 325 324 324 322 317 312 311 304 296 292
320 321 322 324 324 322 323 323 310 311 311 310 310 310 310 309 309 310 310 309 309 309 309 309 310 312 317 322 326 328 330 330 330 329 329 329 326 326 325 323 323 322 319 315 308 306 299 293 291

GFSSGP_925_thetae_108.txt.gz
Theta_e
318 319 319 322 330 329 334 330 327 328 329 329 330 334 337 339 343 345 336 340 339 340 336 334 335 330 327 335 337 337 336 335 334 333 336 334 333 333 334 333 332 332 329 328 327 327 326 325 325
317 318 320 326 328 336 333 327 327 329 329 330 332 333 335 341 338 336 337 340 340 339 338 336 332 327 327 331 334 334 334 333 332 334 334 334 332 333 333 332 330 329 329 327 327 327 326 324 322
317 318 322 326 329 332 332 327 330 330 329 330 334 335 338 340 337 336 337 339 338 338 338 334 328 330 330 329 330 330 331 332 331 333 332 331 330 330 331 330 330 328 328 327 327 326 325 322 316
316 321 320 323 331 330 327 327 330 329 328 330 331 338 336 337 337 336 337 338 338 339 337 329 326 330 333 331 330 330 330 330 329 330 331 330 328 328 328 330 329 328 328 327 326 326 323 318 317
318 321 324 325 327 325 322 322 329 329 327 329 330 335 338 336 336 336 336 336 336 338 333 327 326 330 334 332 329 329 329 329 328 329 330 329 328 327 328 329 328 327 326 326 326 322 319 318 317
322 322 326 327 327 324 321 322 326 328 327 330 330 335 338 336 336 336 336 337 338 337 334 329 327 329 336 333 330 328 328 328 328 328 328 328 327 326 328 328 327 326 325 324 320 319 318 318 318
322 326 326 327 327 323 323 323 325 327 328 330 328 333 337 335 335 336 336 335 335 336 335 331 328 331 335 334 330 325 328 326 329 327 326 326 325 324 324 325 325 322 319 317 318 318 318 318 318
320 324 326 326 327 327 324 325 323 326 328 327 328 328 337 335 335 335 334 334 334 335 335 334 331 329 333 333 331 324 327 326 327 329 326 322 320 322 322 322 320 318 318 319 319 318 318 318 318
318 324 327 327 326 325 323 324 323 323 327 327 328 330 335 335 335 335 335 334 333 334 335 334 332 331 329 331 330 325 326 327 326 327 326 326 326 326 326 318 317 317 319 318 318 318 320 321 322
322 326 327 323 320 320 323 324 323 325 326 328 328 332 336 336 336 336 335 334 334 334 336 335 333 332 331 328 327 325 324 326 326 326 328 328 328 326 320 318 317 317 317 318 318 321 322 322 322
322 323 326 320 319 318 321 323 322 324 325 325 327 333 335 336 336 335 334 333 333 333 336 335 334 331 330 326 328 325 326 328 327 326 328 328 327 324 323 319 321 320 322 322 323 323 322 322 322
321 322 325 320 317 318 319 318 322 322 322 320 323 332 333 332 335 335 333 333 332 331 335 335 335 332 329 327 327 324 326 327 328 328 328 327 325 325 324 323 323 325 325 324 324 323 323 323 322
323 322 320 316 316 316 317 318 317 317 319 319 326 331 332 332 334 334 333 333 331 330 334 334 335 332 329 328 327 325 324 325 326 327 327 324 323 322 323 324 325 325 325 325 325 324 324 324 323
326 324 320 316 317 317 320 320 316 318 318 319 327 328 332 332 332 334 333 333 332 331 332 334 335 334 329 327 326 325 324 323 325 325 324 324 324 323 324 325 326 326 326 325 324 324 324 324 324
325 326 322 316 317 322 322 327 326 318 320 321 324 327 329 332 332 333 333 333 333 331 331 332 333 333 330 326 325 325 324 323 323 325 325 325 325 325 326 326 326 327 326 325 325 324 323 324 323
321 321 324 320 319 321 324 328 327 322 319 319 320 323 328 331 333 333 333 333 333 329 329 332 331 332 332 327 325 324 323 323 323 325 326 325 325 325 326 327 326 326 325 326 325 323 322 322 321
324 328 324 324 320 321 323 325 324 324 317 318 318 319 325 328 332 333 334 334 333 327 327 329 330 331 331 329 327 326 324 323 325 326 326 326 325 325 325 326 326 326 325 325 325 323 322 321 321
328 328 327 324 323 322 321 322 322 323 317 316 317 316 320 326 330 332 333 333 334 326 326 327 330 330 330 330 329 328 327 326 324 325 326 327 326 325 326 326 325 324 325 325 322 321 320 320 320
325 326 328 325 323 324 323 323 322 322 322 321 319 316 316 320 327 331 332 332 334 329 324 328 329 330 330 330 329 328 328 327 326 326 326 328 328 327 326 325 323 323 323 322 321 321 321 321 320
328 329 327 325 320 324 324 325 324 323 323 323 324 322 316 316 321 328 331 332 334 331 324 324 329 329 330 329 329 329 328 328 327 327 327 329 329 328 326 325 324 323 322 322 322 322 321 320 320
328 329 329 327 320 320 322 325 324 324 323 323 323 323 321 317 316 322 329 331 333 333 326 324 326 328 329 329 330 329 328 328 328 327 327 328 329 328 326 325 324 324 323 322 322 323 323 323 321
331 327 328 325 326 331 322 331 326 326 325 324 324 323 324 322 316 317 326 330 332 333 332 326 325 325 326 327 328 327 326 327 327 327 328 328 329 329 327 326 325 325 324 324 324 324 324 323 320
326 326 327 326 327 325 326 328 326 324 326 326 325 324 323 323 319 315 320 328 331 332 333 332 328 326 326 325 326 326 326 328 329 330 330 330 330 329 327 326 326 326 326 326 326 325 324 323 320
320 321 320 320 324 330 328 327 328 326 325 323 323 322 321 323 323 317 318 325 329 331 333 333 333 330 329 327 326 326 326 328 330 331 331 331 331 330 328 326 326 326 326 326 327 325 324 324 321
323 326 328 330 329 331 325 327 327 323 322 322 321 320 319 319 322 319 314 319 326 329 332 333 334 334 333 330 328 326 327 329 331 331 331 331 331 330 328 327 326 326 325 326 327 325 324 324 319
324 325 324 327 326 322 319 323 324 323 321 319 319 317 318 315 316 316 313 317 323 327 329 332 333 334 334 333 332 330 328 330 331 332 332 331 331 330 329 327 327 326 324 326 325 324 324 322 318
324 327 321 319 307 319 320 319 318 317 316 315 314 313 316 316 313 315 314 315 320 325 328 330 332 333 333 333 333 332 331 331 332 332 332 333 331 331 330 329 327 326 326 326 324 324 324 320 315
321 319 324 321 322 323 320 320 320 317 315 315 315 315 312 312 314 311 309 312 314 320 325 327 330 331 331 332 333 333 333 332 332 332 332 333 333 332 331 330 328 326 326 325 324 324 321 318 314
321 323 321 321 322 324 323 319 317 314 309 310 309 308 308 308 307 306 307 310 310 311 314 321 325 328 329 329 331 332 333 333 333 333 333 333 333 332 331 330 328 326 325 325 324 322 317 313 310
319 322 321 322 322 320 319 319 310 306 307 307 307 308 309 309 307 307 307 308 309 308 308 309 313 319 323 326 327 329 330 331 332 333 333 333 333 332 331 330 328 325 324 324 323 320 314 311 305

GFSSGP_925_thetae_111.txt.gz
Theta_e
319 319 319 321 324 322 328 327 323 326 328 328 330 334 339 339 343 345 339 340 337 337 334 333 331 327 334 336 337 335 335 334 333 335 333 332 330 333 333 330 327 328 328 327 327 326 325 324 323
318 318 320 318 322 332 330 324 327 328 327 329 330 333 338 341 336 336 339 338 338 335 334 334 324 323 333 335 335 334 333 332 332 334 335 330 330 333 330 328 328 327 328 327 326 325 323 323 322
317 318 318 320 322 328 327 326 328 328 327 329 332 334 337 339 335 335 340 339 337 337 334 329 325 325 328 331 331 331 331 329 332 334 333 330 330 330 331 329 328 326 328 327 326 325 323 319 319
317 318 315 321 326 327 324 328 326 327 326 327 332 337 334 336 336 338 339 338 338 338 332 325 328 329 329 330 329 330 330 331 332 332 328 328 329 327 329 328 328 327 327 327 326 325 318 319 320
317 316 320 321 322 324 319 327 326 326 326 328 329 337 337 336 336 338 338 337 337 336 327 324 331 332 330 330 329 329 328 328 329 330 328 327 327 327 328 328 327 326 326 326 325 319 317 319 320
318 317 321 323 324 324 319 320 325 324 325 328 333 335 335 335 336 336 337 336 337 333 326 326 332 334 331 328 328 328 328 327 328 328 328 327 325 328 327 327 326 326 325 322 318 317 317 318 321
320 323 323 324 324 321 321 321 322 324 328 329 326 338 335 334 335 335 335 337 337 333 328 327 330 335 332 328 328 327 327 327 327 327 327 326 324 324 325 323 322 318 318 318 317 317 318 318 320
317 320 325 324 325 324 322 323 321 323 327 325 325 336 337 333 335 335 336 337 336 333 331 326 333 334 333 329 325 327 326 328 327 325 324 323 321 322 319 318 317 318 318 318 317 317 318 320 321
320 320 326 327 323 323 322 322 321 322 326 326 327 330 332 334 335 335 334 335 335 334 333 328 331 334 332 329 324 326 326 326 327 325 322 319 320 322 319 317 317 318 318 317 318 321 321 321 322
326 326 326 326 317 317 322 321 322 323 325 327 334 333 334 334 335 334 333 333 335 335 333 332 328 329 331 329 325 324 326 325 326 325 326 327 327 323 317 316 316 317 317 318 321 321 321 322 322
324 328 323 318 317 316 320 321 321 321 324 325 332 334 333 334 335 334 334 333 333 335 334 333 331 331 328 327 326 322 326 325 325 327 326 326 327 324 318 317 317 320 321 322 322 321 321 321 321
321 325 326 323 316 317 317 316 320 320 321 319 331 333 333 333 334 333 334 333 332 335 335 334 332 332 331 325 322 322 323 325 325 326 327 327 326 324 322 322 321 323 323 323 323 323 322 322 322
325 325 321 319 316 316 316 316 316 315 316 320 332 333 331 332 332 334 333 333 332 332 335 335 332 331 329 324 326 322 327 328 327 327 327 326 322 324 323 322 325 324 325 324 324 323 323 323 322
328 326 324 317 315 316 318 319 318 317 314 326 333 331 329 330 332 333 333 333 332 332 332 334 334 331 329 327 327 324 325 326 327 327 326 323 322 322 322 324 325 325 325 325 324 324 323 323 323
324 326 324 317 315 317 319 321 324 317 317 323 326 330 329 329 331 331 333 333 332 331 331 333 334 333 329 327 327 326 324 323 324 325 323 323 323 322 323 323 325 325 325 325 324 323 323 323 322
325 324 327 325 315 315 320 323 323 322 318 317 321 323 330 330 330 331 333 332 332 331 330 333 333 334 329 328 325 325 324 323 323 324 323 323 325 324 325 326 326 326 325 324 325 323 322 321 320
319 322 321 322 315 318 321 324 322 321 316 314 314 318 326 329 330 331 332 333 332 332 331 331 333 333 332 327 325 324 324 323 323 323 325 324 325 325 325 326 326 326 325 325 325 322 321 321 320
324 325 322 322 320 318 321 322 320 320 316 314 313 313 320 328 330 331 332 333 333 331 331 330 331 331 332 330 326 325 324 323 322 323 324 325 323 324 324 325 326 326 325 325 325 321 321 320 319
323 324 326 323 320 320 319 319 318 318 316 313 312 313 312 324 329 331 332 333 333 331 328 328 331 330 330 331 329 325 325 324 323 323 325 325 325 323 324 325 326 325 324 324 323 321 320 321 320
325 326 324 323 320 321 322 322 321 318 319 318 318 317 314 313 320 329 330 332 332 333 327 326 326 328 330 330 329 328 326 326 325 324 325 325 326 326 325 325 325 323 323 323 322 321 321 321 319
326 326 327 325 320 320 322 323 322 320 319 319 319 319 319 316 313 326 328 330 331 331 325 325 325 325 328 330 329 328 328 327 327 326 325 325 326 328 327 326 325 323 322 322 321 321 321 321 320
327 323 326 324 324 327 322 330 325 322 322 321 321 320 321 319 313 315 327 329 330 331 331 324 325 326 327 328 329 328 328 327 327 327 326 326 327 328 328 327 325 324 323 322 322 322 322 323 321
325 324 325 324 324 326 326 327 324 322 323 322 322 321 321 319 318 314 323 328 329 331 331 327 323 326 327 328 328 328 327 327 326 327 327 327 327 329 328 328 326 325 324 324 323 323 323 324 323
319 321 321 321 325 330 328 327 327 325 323 322 321 321 320 320 319 317 316 326 328 330 331 329 323 323 326 327 327 327 327 326 326 326 327 327 327 327 328 329 328 326 325 325 324 324 324 325 323
322 325 329 331 330 328 324 326 327 322 320 320 320 318 316 315 317 319 314 318 326 329 331 331 328 324 324 324 325 326 326 325 325 326 327 328 329 329 329 329 329 327 326 325 325 325 325 326 324
323 325 324 327 327 324 318 325 325 321 321 320 317 316 315 314 311 316 316 314 324 327 330 331 331 330 327 325 324 324 324 324 325 326 328 329 329 329 330 330 329 328 326 325 325 325 325 325 323
321 326 320 317 302 316 318 316 316 316 319 317 314 313 311 311 313 311 312 313 318 325 328 330 331 331 331 330 328 326 325 325 325 326 328 329 329 329 330 330 330 328 326 326 326 326 325 325 323
320 320 324 321 318 319 317 318 318 317 317 315 314 311 310 309 309 309 308 310 314 319 325 328 330 331 331 332 332 331 328 327 326 327 329 330 330 330 330 330 330 329 327 326 326 326 326 324 323
320 323 321 320 318 319 318 317 313 315 313 310 307 306 306 306 304 304 304 307 308 310 319 325 328 329 330 331 332 332 332 330 329 328 329 330 331 331 331 331 330 330 329 328 327 325 325 324 322
319 322 321 323 321 318 317 316 310 306 306 306 305 307 306 306 306 305 305 307 308 308 308 309 317 325 328 329 331 331 332 332 332 331 330 330 331 331 332 331 331 331 330 329 327 325 324 323 320

GFSSGP_925_thetae_114.txt.gz
Theta_e
320 319 319 321 324 321 326 326 322 326 327 328 330 336 339 338 340 340 338 339 336 335 336 330 330 335 336 337 336 335 334 332 335 332 331 330 334 332 329 328 327 328 327 327 326 326 327 327 327
319 318 320 316 323 330 329 324 325 326 325 328 333 335 337 340 335 338 339 335 335 336 332 330 329 334 336 336 334 333 333 331 335 334 331 328 332 330 329 327 327 327 327 327 324 325 326 324 325
318 318 317 319 320 327 326 327 327 328 327 329 334 334 336 339 334 337 338 338 336 333 333 324 325 333 335 334 332 331 330 331 334 332 329 329 330 330 329 327 327 327 327 326 325 324 322 320 322
317 318 313 320 325 325 324 327 326 326 327 328 332 337 334 334 334 339 338 337 334 333 328 324 326 329 330 329 329 327 328 332 333 332 330 330 327 329 328 327 327 327 327 326 325 322 320 321 322
317 314 317 319 322 322 326 326 324 326 327 328 332 338 336 335 336 339 338 337 336 333 326 327 328 328 329 328 329 329 331 332 331 328 327 329 328 328 328 327 327 327 327 325 319 319 320 321 321
317 315 320 322 322 322 321 325 323 324 325 329 334 335 334 334 339 338 338 337 336 330 325 331 331 330 328 328 328 328 329 329 329 327 328 326 326 328 327 326 326 326 325 322 317 318 320 321 322
318 320 321 323 323 323 319 319 323 326 327 328 331 337 334 333 338 338 337 336 335 329 323 332 333 330 328 328 329 327 327 328 328 328 326 325 323 326 326 324 324 323 320 317 317 318 320 321 322
315 319 324 324 325 324 321 321 321 326 327 323 330 335 335 333 336 336 336 336 334 328 325 328 333 333 328 328 327 328 327 327 327 327 326 323 321 321 320 318 319 317 317 317 317 318 320 321 321
320 321 327 328 319 320 320 321 321 321 325 328 330 330 330 333 334 334 336 336 332 330 326 326 334 333 329 328 326 326 326 326 326 325 323 319 319 318 317 317 318 317 317 317 320 321 321 321 322
323 323 326 327 318 315 320 321 321 325 325 328 333 332 332 333 334 333 336 335 334 331 328 325 333 333 331 326 326 325 327 327 325 322 319 319 321 317 316 316 317 317 317 319 320 321 321 322 322
324 326 324 320 318 316 318 321 320 322 326 326 332 332 331 333 334 332 334 336 335 332 330 328 328 332 331 327 325 325 326 326 325 325 326 326 324 319 316 316 317 318 320 321 321 320 320 321 321
325 326 328 328 319 315 317 315 319 320 321 319 327 331 332 332 332 332 332 333 334 333 333 331 328 328 328 328 325 325 326 324 325 326 326 326 326 319 317 317 319 321 321 322 322 321 321 321 321
322 323 328 328 320 314 314 316 316 315 314 321 331 331 331 332 332 333 332 333 333 333 334 332 331 331 331 328 326 323 326 324 325 326 326 326 326 323 321 321 321 323 323 323 323 323 322 321 322
325 326 326 323 316 314 316 319 319 316 316 329 332 331 330 330 331 332 332 332 332 332 333 334 332 331 331 329 323 322 323 324 325 325 327 327 324 323 322 322 324 324 324 324 323 323 323 323 322
325 328 326 326 317 315 317 318 321 316 323 331 330 328 328 329 331 332 332 332 332 332 332 334 334 332 331 329 326 324 323 327 327 327 327 326 324 322 322 322 324 324 324 324 324 323 323 323 321
325 324 324 321 316 315 317 321 319 318 315 326 327 327 328 328 329 331 332 332 332 332 332 332 334 333 330 329 328 326 324 324 325 325 326 325 322 322 321 322 324 325 325 325 323 323 322 322 320
320 324 323 324 316 316 319 321 319 318 319 315 319 324 328 328 328 329 331 332 332 332 332 331 332 334 332 329 328 327 326 324 322 321 323 321 322 323 322 324 324 325 326 324 324 323 321 321 320
321 322 321 323 320 316 320 319 318 319 318 316 311 314 323 328 329 329 330 331 332 332 332 331 331 333 334 331 328 326 325 325 323 321 322 322 322 324 324 325 325 326 326 325 325 324 321 320 319
319 321 322 321 319 317 318 320 318 318 316 315 311 310 312 324 328 330 330 330 331 331 331 331 330 332 333 331 327 325 324 324 323 322 322 322 324 323 324 325 325 326 325 325 324 324 321 320 320
322 325 323 322 320 318 319 319 318 316 315 315 313 311 310 311 322 328 330 330 330 331 331 331 331 331 332 332 329 326 324 324 324 323 322 322 323 324 323 324 324 325 325 325 324 324 321 320 321
323 323 325 324 320 319 321 322 321 318 317 316 315 315 314 313 312 322 328 329 330 330 330 331 330 330 331 331 331 329 326 324 323 323 323 323 324 324 325 323 323 324 325 324 323 323 321 320 320
322 321 324 325 323 325 320 327 322 321 320 318 319 318 318 317 317 313 325 328 329 330 331 330 329 328 329 330 329 329 328 326 325 324 324 324 323 324 325 325 325 324 325 324 322 322 321 321 321
321 320 323 324 324 325 325 326 323 321 322 321 320 320 319 318 317 316 317 326 328 330 330 330 328 327 327 327 328 328 328 327 326 326 326 325 325 324 325 326 327 326 326 324 323 322 321 322 321
318 321 320 320 324 330 325 326 323 323 322 321 319 318 318 317 316 317 315 322 327 329 329 328 326 327 326 326 326 327 328 328 326 326 326 326 326 325 325 326 327 328 327 325 324 323 322 322 322
322 323 326 328 327 323 319 323 323 320 319 321 321 319 315 314 315 316 315 316 325 327 328 327 324 324 326 326 326 326 327 327 327 325 325 325 325 326 326 326 328 328 328 327 325 324 324 323 323
321 322 321 325 324 321 320 327 324 319 320 320 318 316 314 313 312 312 315 314 321 326 327 328 324 323 324 326 326 326 326 326 325 325 324 325 325 325 325 326 326 327 327 328 327 325 324 324 324
320 323 318 316 301 315 318 317 314 314 316 318 318 315 314 311 309 310 309 315 314 323 326 328 328 325 323 324 324 325 325 325 325 325 324 324 325 325 326 326 326 327 327 328 328 327 325 325 324
320 318 323 322 320 318 316 316 320 316 317 317 315 313 311 309 307 306 306 309 312 318 325 327 329 329 328 327 325 323 323 324 324 324 324 324 325 326 326 327 327 328 328 328 328 327 326 324 324
321 322 322 320 316 320 317 316 311 316 316 317 313 309 307 304 303 303 304 306 306 310 320 326 327 328 329 329 329 327 326 324 324 324 324 324 325 326 327 328 328 328 328 328 327 326 324 324 323
319 320 321 323 322 317 316 317 311 306 308 309 307 305 304 303 303 303 304 305 306 306 308 317 324 326 328 329 330 330 330 330 328 326 325 325 326 327 327 328 328 328 328 328 327 326 323 323 322

GFSSGP_925_thetae_117.txt.gz
Theta_e
321 319 318 320 325 321 326 327 322 326 329 329 332 334 334 336 334 333 337 338 336 333 335 331 336 337 337 335 335 333 331 333 336 334 334 333 331 329 328 328 328 328 327 326 327 328 327 327 327
319 319 319 314 325 330 328 323 324 325 329 332 332 335 335 339 334 338 338 336 334 335 332 330 335 336 336 335 334 334 332 332 333 331 327 333 332 328 328 327 328 327 326 326 327 327 327 327 326
318 318 317 318 320 329 327 323 323 327 328 329 336 333 335 337 336 337 338 335 336 334 330 328 333 335 335 334 333 332 329 334 334 331 328 332 330 328 327 326 327 327 326 326 326 326 327 327 326
318 317 312 320 325 324 323 325 325 325 326 330 333 337 333 333 336 337 337 336 335 333 329 325 332 334 334 332 330 329 331 334 332 334 330 330 330 328 326 327 326 326 326 326 326 325 323 324 326
317 314 317 319 321 321 324 325 323 326 326 331 332 337 336 334 335 338 336 336 333 331 325 326 330 332 331 329 328 328 333 333 331 331 331 330 326 328 327 327 326 327 326 325 324 320 321 323 322
318 314 319 321 321 320 325 324 323 324 325 331 334 335 335 334 338 338 337 334 333 327 327 327 327 328 328 329 328 331 332 331 328 327 328 328 326 327 327 327 326 326 324 320 320 320 321 321 321
319 318 321 322 322 322 321 321 323 324 326 329 331 335 333 333 338 337 336 336 333 326 327 330 329 328 327 329 329 329 330 330 328 327 326 325 325 326 326 325 326 323 318 317 319 320 321 321 321
314 318 323 323 324 324 319 320 321 325 326 327 330 333 335 332 338 337 337 336 332 326 327 332 330 328 328 328 327 326 327 328 327 327 325 321 323 322 319 319 319 317 317 317 318 320 321 321 321
318 319 324 326 319 317 319 322 321 321 324 330 331 329 329 335 337 337 336 333 330 327 326 333 333 329 327 327 328 327 327 328 326 327 325 319 319 317 316 317 317 317 317 317 319 320 321 321 321
320 320 323 326 316 316 315 320 322 326 326 330 332 331 331 334 333 335 333 331 331 329 327 329 332 331 327 327 326 327 327 327 326 326 324 317 318 317 316 317 317 317 317 319 320 320 321 321 321
323 323 323 321 317 314 315 320 318 323 326 325 328 330 329 330 331 334 334 333 331 330 327 327 332 332 329 327 326 325 327 327 324 323 318 318 320 318 316 317 317 316 318 320 320 320 321 321 321
327 324 326 326 325 323 316 313 319 321 321 319 323 329 330 330 330 331 334 334 333 331 329 327 331 332 331 328 325 325 326 327 324 322 323 324 323 318 316 316 317 318 320 321 321 320 320 320 321
321 320 325 327 326 316 314 314 316 314 313 323 328 329 330 331 331 331 333 335 334 332 330 329 328 330 330 329 326 324 325 325 325 324 325 326 325 321 317 316 317 320 321 322 322 321 321 321 321
322 322 325 324 321 315 316 316 319 315 315 329 329 329 328 330 331 331 332 333 334 333 332 331 330 328 328 328 327 324 324 325 324 326 326 325 325 325 321 320 320 322 323 323 322 322 322 322 322
325 327 325 326 324 319 315 317 318 315 324 329 329 327 327 329 330 331 331 332 332 333 331 332 332 331 330 330 329 325 322 324 323 324 325 326 326 325 322 322 321 323 323 324 323 323 322 323 322
325 324 326 323 323 319 316 323 317 315 324 327 328 326 326 327 328 331 332 331 331 332 332 331 333 332 331 331 329 326 321 321 322 324 324 325 325 325 322 322 322 323 324 324 324 323 322 322 321
321 323 324 324 319 320 318 319 318 315 314 319 324 325 327 327 327 329 331 331 331 331 331 332 332 333 332 331 330 327 325 321 323 325 326 326 326 324 321 320 321 323 324 324 324 323 322 321 320
321 322 321 322 320 316 318 317 315 316 317 317 314 322 325 327 327 329 329 330 331 331 331 331 332 333 333 332 330 328 327 325 323 323 323 323 323 323 321 321 321 323 325 325 324 323 323 321 320
318 320 321 320 319 318 318 320 321 318 315 315 314 311 316 324 327 327 328 329 330 331 331 331 331 331 332 332 328 327 327 326 325 324 323 321 322 321 321 323 323 324 325 325 325 324 324 321 319
322 323 323 320 319 317 318 318 316 315 315 315 315 313 311 309 317 323 328 328 328 330 331 331 331 331 331 332 331 327 326 326 326 325 324 322 321 321 322 323 324 324 325 325 325 324 324 322 320
322 323 323 323 319 317 319 320 320 317 314 314 313 314 313 312 311 312 325 328 329 328 329 330 331 330 330 331 331 329 325 324 324 324 324 323 322 321 322 323 323 323 324 325 325 324 324 323 320
323 319 321 322 324 324 319 324 319 319 319 317 317 316 314 312 311 311 317 326 328 329 329 329 329 330 330 330 331 330 327 324 323 324 324 323 322 322 322 323 324 323 323 324 324 324 323 323 320
321 319 321 322 323 323 323 325 320 318 320 318 318 317 317 315 315 314 312 321 326 328 329 329 329 329 330 330 330 330 329 328 326 325 324 323 323 323 322 322 324 324 324 323 324 325 323 322 322
317 320 320 318 321 324 321 323 320 320 320 319 317 317 317 316 315 315 316 316 322 325 328 329 328 328 328 329 329 329 328 328 327 326 325 324 324 324 323 323 323 324 324 325 324 324 324 322 322
320 321 326 327 326 321 313 321 321 318 317 317 317 317 316 314 314 314 314 313 316 322 326 328 327 326 327 328 328 328 328 327 327 327 326 325 325 325 325 325 324 323 324 325 326 326 325 323 322
321 322 322 323 323 319 316 321 319 317 317 317 316 316 313 313 312 312 313 314 314 320 325 327 327 326 326 326 327 327 327 327 326 326 326 325 325 325 325 325 325 325 324 325 326 326 326 325 324
320 324 318 319 301 313 317 317 315 313 313 315 317 317 315 314 313 311 311 312 314 317 323 326 327 324 324 325 326 326 326 326 326 325 325 325 324 324 324 324 324 324 325 325 325 326 326 325 325
319 318 323 322 323 318 316 315 319 316 315 315 316 315 313 311 310 308 306 309 310 314 320 324 326 325 323 324 325 326 326 326 326 325 325 325 324 323 324 324 324 324 324 324 325 324 324 323 324
320 320 322 321 317 319 317 316 310 314 313 315 314 312 310 308 306 305 303 305 306 309 314 322 325 326 324 323 323 324 325 325 325 325 325 325 324 324 324 324 324 325 325 325 324 323 323 323 323
317 319 320 324 320 318 315 319 309 310 307 307 309 308 305 303 301 301 302 304 305 305 312 318 324 326 327 327 324 323 323 323 323 323 323 323 323 323 323 324 325 325 325 325 325 325 324 324 323

GFSSGP_925_thetae_120.txt.gz
Theta_e
320 319 319 320 326 322 326 326 320 326 329 330 332 327 328 333 332 332 336 337 336 336 334 335 337 338 336 333 332 331 334 335 335 335 333 331 329 329 329 327 327 327 328 328 327 327 328 326 326
318 319 319 314 326 331 329 323 324 323 331 331 332 333 333 338 334 336 337 337 335 336 333 335 337 336 335 335 333 332 333 334 335 334 333 330 328 328 328 327 326 326 327 328 327 327 326 327 326
317 317 317 318 322 330 328 322 321 327 331 329 336 332 334 336 334 336 338 336 333 334 332 333 335 336 335 334 333 332 332 334 334 334 332 330 328 327 327 326 327 326 327 327 326 326 327 327 325
317 316 313 321 326 323 324 323 325 328 325 330 333 336 332 333 335 337 337 335 335 334 330 333 334 334 334 333 332 331 333 334 334 333 332 330 327 326 326 326 327 326 326 326 326 327 327 326 324
317 315 319 320 321 321 319 323 323 326 326 331 330 335 335 333 334 337 336 336 334 331 328 332 333 333 333 331 329 329 332 333 333 332 330 330 327 326 326 326 326 326 326 326 326 326 323 324 322
318 314 318 321 321 320 321 323 323 325 326 331 332 333 333 333 337 337 335 335 333 328 324 330 331 332 331 329 327 331 334 333 332 331 327 326 327 327 326 326 325 326 326 325 324 323 321 320 321
318 317 320 319 320 321 323 320 322 323 328 330 330 333 332 334 337 337 336 334 331 325 324 328 327 327 327 328 329 331 333 330 328 328 327 326 323 326 326 325 325 324 323 321 320 321 321 321 321
314 317 322 321 322 323 318 321 319 325 326 328 328 330 331 331 337 337 335 334 331 326 326 329 328 327 329 329 330 330 331 329 328 327 325 323 322 322 323 323 322 322 319 318 320 320 321 321 321
315 318 322 324 319 320 317 321 320 321 326 329 330 328 328 335 337 336 335 335 331 328 328 330 329 327 327 327 327 327 328 328 327 326 324 319 321 320 319 320 319 318 317 317 319 320 320 321 321
320 319 320 323 316 316 314 319 321 325 327 328 330 330 330 336 336 333 333 333 331 330 330 331 330 328 327 327 326 326 327 327 326 326 324 319 319 318 318 319 318 317 317 318 320 320 320 321 320
322 323 321 323 316 315 314 319 317 323 326 323 327 329 328 331 333 332 332 332 330 329 327 330 332 330 327 327 327 327 327 327 326 326 324 318 317 316 317 318 317 317 317 319 320 320 321 321 320
327 324 324 324 325 321 317 312 318 322 323 317 321 327 328 329 329 332 332 331 331 330 329 326 329 332 328 327 326 325 326 326 326 324 320 317 319 317 316 316 317 316 317 320 320 320 320 320 320
322 321 321 323 324 321 314 315 314 314 313 321 324 328 328 330 330 331 333 332 331 331 330 328 327 331 331 328 326 325 325 326 326 324 320 321 323 318 316 316 316 317 319 320 321 320 320 320 321
322 319 321 323 322 318 316 315 318 315 315 326 327 327 326 328 329 329 331 333 333 333 331 329 328 328 331 330 327 325 324 325 325 324 322 324 324 323 318 316 316 318 320 321 321 321 321 321 321
324 326 323 323 324 320 314 317 315 316 320 325 327 325 325 326 329 329 330 332 334 334 333 330 329 329 328 328 327 326 324 324 324 324 324 324 324 324 325 320 319 319 322 323 323 322 322 322 322
325 324 325 322 324 322 316 326 318 314 321 321 325 325 325 325 328 330 331 331 332 333 333 331 330 330 329 328 328 328 326 324 324 323 323 325 324 324 325 322 322 321 323 323 323 323 322 322 322
319 321 323 323 319 322 316 319 317 315 318 320 322 325 325 325 326 330 331 331 331 332 332 332 331 331 331 330 330 330 329 325 322 322 322 323 323 324 324 323 321 321 322 323 323 323 322 322 321
322 324 321 321 319 318 320 318 316 314 314 313 313 317 323 325 326 328 330 331 331 331 331 331 332 331 331 332 331 330 330 327 322 320 320 323 323 323 324 324 321 320 321 323 324 324 323 322 321
317 320 320 319 318 318 317 318 319 318 315 314 314 313 313 322 325 327 328 329 330 330 330 330 330 331 331 330 330 328 329 328 325 322 321 322 324 324 325 324 321 321 321 322 324 324 323 322 319
320 321 321 318 318 318 318 319 318 314 315 316 317 315 314 311 315 322 326 327 328 329 329 330 330 330 331 331 330 330 329 328 328 327 325 323 323 322 322 322 321 321 322 323 324 324 324 323 320
321 325 322 322 319 317 316 318 318 316 313 314 312 314 314 314 311 311 318 325 327 327 328 329 330 330 330 330 330 329 328 327 326 326 326 326 324 323 321 321 321 321 323 323 324 324 324 323 322
323 318 320 321 323 322 317 323 318 317 316 315 315 313 313 313 310 311 310 317 324 326 327 328 328 329 330 330 330 329 327 325 326 327 328 327 325 323 323 321 321 322 322 323 323 324 324 324 322
321 317 319 320 322 321 320 324 319 317 317 315 315 314 314 313 313 311 312 312 316 320 325 327 328 328 328 329 330 330 328 328 326 326 326 327 326 324 323 322 321 321 322 323 323 323 323 324 323
316 318 318 317 320 325 319 320 318 316 315 316 315 314 314 313 313 313 314 314 314 318 323 326 327 328 328 328 329 329 329 328 327 326 325 325 325 325 324 323 322 322 321 322 323 323 323 323 324
318 318 318 325 325 321 313 317 318 314 314 315 315 314 313 312 312 312 313 313 314 316 321 325 327 327 327 327 328 329 329 329 329 328 326 325 325 325 326 325 323 323 322 322 323 323 323 323 323
320 318 319 323 322 317 312 317 315 313 314 314 314 314 313 312 310 311 312 313 314 315 317 322 325 326 326 327 327 328 329 328 328 328 327 327 325 325 325 325 325 325 323 323 323 323 323 323 323
320 322 317 320 298 314 314 314 313 312 313 313 313 314 313 313 311 310 310 312 313 315 315 317 323 325 325 326 326 327 328 328 328 327 327 326 326 325 325 324 324 324 324 324 324 323 322 322 322
319 319 320 321 321 317 315 313 317 314 314 313 313 314 312 310 310 309 308 310 312 313 314 315 320 324 325 325 324 325 326 327 327 327 326 326 326 325 324 324 324 324 324 323 323 323 322 322 322
320 319 320 319 320 319 314 315 308 313 313 313 311 310 308 308 307 306 304 305 306 307 308 311 318 323 325 324 324 324 325 325 326 326 326 326 325 325 324 324 324 323 323 323 323 323 322 322 322
315 317 317 321 318 320 318 321 309 308 308 308 306 305 303 303 302 300 299 302 304 305 306 312 315 321 324 325 323 323 324 325 325 325 325 326 326 325 325 324 324 323 323 324 323 323 323 323 322

GFSSGP_925_thetae_123.txt.gz
Theta_e
320 319 319 320 330 327 328 326 320 325 328 330 329 326 331 332 333 335 335 336 335 332 336 336 338 338 335 332 333 335 335 335 334 332 330 329 329 328 327 327 326 329 328 328 328 326 326 325 326
319 318 319 318 330 334 332 323 323 324 333 332 333 333 333 336 335 335 337 336 335 333 335 336 337 336 333 332 332 333 334 334 334 332 329 328 329 327 327 327 328 329 327 328 327 327 326 326 326
319 317 321 322 326 333 332 323 321 326 331 331 335 332 333 336 334 335 337 337 336 334 333 335 336 335 334 333 332 332 334 334 333 333 330 328 328 328 328 327 327 329 327 327 326 326 326 326 326
318 316 316 325 328 325 325 322 323 332 328 330 333 336 332 332 335 336 337 335 335 332 331 332 335 335 334 333 332 331 334 333 333 332 330 328 327 327 327 326 327 327 326 326 326 326 326 326 323
317 315 326 322 323 321 319 321 326 329 326 332 330 334 335 332 334 336 336 334 333 331 328 332 334 334 334 333 331 330 333 332 331 332 331 328 327 326 326 327 327 327 326 326 327 327 326 324 319
319 316 324 329 323 320 318 322 324 325 327 331 332 334 334 332 335 338 336 335 334 329 327 331 332 333 333 331 328 329 334 333 330 330 329 327 327 326 326 327 327 327 326 326 326 325 321 321 320
318 319 322 319 321 321 323 320 323 324 328 331 329 333 332 332 334 338 336 335 332 327 323 329 331 332 331 329 325 332 334 333 330 329 326 323 325 326 326 326 326 326 326 325 323 321 320 320 320
315 317 320 319 321 322 317 321 319 324 326 327 328 331 329 331 334 336 335 334 331 325 323 325 327 328 328 328 328 333 333 331 329 327 325 325 323 325 325 324 325 325 324 321 321 320 320 320 320
313 319 322 323 320 320 316 320 319 320 329 327 327 326 327 333 335 335 334 333 330 327 324 326 326 327 328 329 330 332 331 329 327 326 324 321 322 322 322 322 322 320 319 319 320 320 320 320 320
319 319 320 321 316 316 314 318 321 325 327 328 329 329 329 334 335 333 331 332 333 329 327 328 328 326 328 329 328 328 329 328 327 326 323 318 319 318 318 319 318 317 317 318 319 320 320 320 320
321 323 320 322 316 319 313 318 317 324 327 324 327 329 329 332 333 332 332 331 332 329 328 329 329 327 326 327 326 326 327 327 326 326 325 321 317 317 317 318 317 317 317 319 319 320 320 320 320
326 324 322 323 324 323 321 312 316 322 324 319 322 326 329 332 332 332 332 331 330 330 329 329 331 329 327 326 327 326 327 327 326 325 325 322 316 316 316 317 317 316 316 318 319 319 319 320 320
323 322 320 322 322 322 318 315 313 315 316 318 320 326 329 332 331 331 331 331 330 329 330 328 329 331 329 327 326 326 326 326 326 325 324 319 316 316 315 315 316 316 316 319 320 320 320 320 320
320 320 319 321 322 321 318 316 316 315 314 322 325 327 327 330 330 329 330 332 331 331 331 329 327 328 331 329 327 326 324 325 325 325 323 318 319 320 316 316 315 316 317 319 321 321 321 320 321
323 326 322 322 321 321 313 319 315 314 317 318 324 325 325 326 328 329 331 332 331 331 332 331 329 327 329 330 330 328 325 324 325 325 324 321 323 323 322 318 316 316 318 321 321 321 321 321 321
324 322 325 320 322 322 318 329 321 315 318 318 320 324 325 325 326 328 330 331 332 332 332 333 331 328 329 329 328 328 326 324 324 324 324 322 323 323 323 323 321 319 319 321 322 322 322 322 321
319 319 322 321 319 322 316 323 319 314 316 317 316 321 324 325 325 327 329 330 331 332 332 333 333 330 329 329 328 327 327 326 325 323 324 323 323 323 323 323 323 321 321 321 322 322 322 322 321
320 323 320 321 317 318 321 318 318 315 314 314 313 313 320 324 325 326 327 329 330 331 331 332 333 331 330 329 329 328 328 328 327 325 322 322 322 323 323 323 323 322 321 321 322 323 323 322 321
316 320 320 318 317 318 317 317 317 315 315 314 314 314 313 313 318 322 325 327 329 330 331 331 331 331 331 330 329 328 328 329 329 328 325 321 321 322 323 323 323 323 321 320 321 323 323 322 321
318 319 320 318 317 318 318 319 318 315 316 315 316 315 315 315 313 316 319 323 326 328 329 330 330 330 331 330 330 328 329 329 330 330 329 326 321 320 323 324 323 323 322 320 320 322 323 323 321
320 324 322 321 318 316 315 317 317 315 314 314 314 315 315 315 314 313 313 319 322 326 327 329 329 329 329 330 329 328 328 327 328 327 328 328 327 323 322 322 322 322 323 321 321 321 323 322 322
324 318 321 322 323 324 316 323 317 315 315 314 314 313 313 314 312 313 313 312 317 320 322 326 328 328 328 329 329 328 327 326 327 328 330 329 328 327 325 323 322 321 321 321 320 321 322 323 321
322 317 319 320 322 321 320 324 319 315 316 314 313 313 312 313 313 312 312 312 314 316 319 321 324 327 328 328 329 328 327 328 327 327 327 328 329 329 328 326 324 322 321 321 321 321 322 322 322
315 317 318 317 320 325 319 320 317 315 313 314 313 313 312 312 313 312 313 313 313 314 315 320 323 324 326 327 328 329 328 328 327 326 325 325 327 328 328 327 325 324 322 321 321 321 322 322 322
317 320 323 325 323 321 313 318 318 313 312 314 314 313 313 311 310 312 312 312 313 314 314 317 321 324 324 326 327 328 328 328 328 327 326 324 324 325 327 327 325 324 323 322 322 321 321 321 321
319 318 319 318 318 316 311 318 314 311 312 311 310 310 310 309 309 309 311 312 313 314 314 316 320 323 324 325 326 327 328 328 328 328 327 326 325 326 326 327 327 326 325 324 322 321 321 321 321
318 319 315 318 299 314 315 312 311 310 310 310 311 312 312 311 310 310 310 310 312 314 315 315 317 321 323 324 325 326 327 328 328 328 328 327 327 326 326 326 326 325 325 324 323 322 321 321 320
317 317 322 320 320 318 314 313 316 312 312 311 311 311 310 308 307 307 307 308 310 312 313 314 314 316 320 323 324 325 326 327 327 328 328 327 327 326 326 326 325 325 324 324 323 322 321 320 321
316 319 319 319 319 318 314 315 307 312 311 309 309 309 306 304 304 302 300 301 304 305 306 309 311 314 318 322 324 324 325 326 327 327 327 327 327 327 326 326 325 325 324 324 323 323 322 321 321
314 316 318 322 319 320 320 319 309 308 307 307 305 303 302 301 300 299 299 301 302 303 304 305 310 312 317 321 323 324 324 324 325 325 326 326 326 326 326 325 325 325 324 324 323 323 322 322 322